[[{"header":{"parameterUnit":"m.s-1","parameterCategory":1,"la1":30.6,"la2":29.2853,"lo1":-89.7004,"lo2":-87.6739,"dx":0.0162,"dy":0.0183,"nx":112,"ny":82,"refTime":"2022-11-15T18:00:00:Z","depth":0,"parameterNumber":2,"parameterNumberName":"U-component_of_WINDS"},"data":[0.0,0.0,0.0,0.0,0.0,0.0,0.0,0.0,0.0,0.0,0.0,0.0,0.0,0.0,0.0,0.0,0.0,0.0,0.0,0.0,0.0,0.0,0.0,0.0,0.0,0.0,0.0,0.0,0.0,0.0,0.0,0.0,0.0,0.0,0.0,0.0,0.0,0.0,0.0,0.0,0.0,0.0,0.0,0.0,0.0,0.0,0.0,0.0,0.0,0.0,0.0,0.0,0.0,0.0,0.0,0.0,0.0,0.0,0.0,0.0,0.0,0.0,0.0,0.0,0.0,0.0,0.0,0.0,0.0,0.0,0.0,0.0,0.0,0.0,0.0,0.0,0.0,0.0,0.0,0.0,0.0,0.0,0.0,0.0,0.0,0.0,0.0,0.0,0.0,0.0,5.7446,6.2872,6.5953,6.7216,6.6266,6.3792,6.0512,5.6357,0.0,0.0,0.0,0.0,0.0,0.0,0.0,0.0,0.0,0.0,0.0,0.0,0.0,0.0,0.0,0.0,0.0,0.0,0.0,0.0,0.0,0.0,0.0,0.0,0.0,0.0,0.0,0.0,0.0,0.0,0.0,0.0,0.0,0.0,0.0,0.0,0.0,0.0,0.0,0.0,0.0,0.0,0.0,0.0,0.0,0.0,0.0,0.0,0.0,0.0,0.0,0.0,0.0,0.0,0.0,0.0,0.0,0.0,0.0,0.0,0.0,0.0,0.0,0.0,0.0,0.0,0.0,0.0,0.0,0.0,0.0,0.0,0.0,0.0,0.0,0.0,0.0,0.0,0.0,0.0,0.0,0.0,0.0,0.0,0.0,0.0,0.0,0.0,0.0,0.0,0.0,0.0,0.0,0.0,0.0,0.0,0.0,0.0,0.0,0.0,0.0,0.0,0.0,0.0,5.8937,6.6027,6.781,6.8081,6.7,6.4589,6.1627,5.8127,0.0,0.0,0.0,0.0,0.0,0.0,0.0,0.0,0.0,0.0,0.0,0.0,0.0,0.0,0.0,0.0,0.0,0.0,0.0,0.0,0.0,0.0,0.0,0.0,0.0,0.0,0.0,0.0,0.0,0.0,0.0,0.0,0.0,0.0,0.0,0.0,0.0,0.0,0.0,0.0,0.0,0.0,0.0,0.0,0.0,0.0,0.0,0.0,0.0,0.0,0.0,0.0,0.0,0.0,0.0,0.0,0.0,0.0,0.0,0.0,0.0,0.0,0.0,0.0,0.0,0.0,0.0,0.0,0.0,0.0,0.0,0.0,0.0,0.0,0.0,0.0,0.0,0.0,0.0,0.0,0.0,0.0,0.0,0.0,0.0,0.0,0.0,0.0,0.0,0.0,0.0,0.0,0.0,0.0,0.0,0.0,0.0,0.0,0.0,0.0,0.0,0.0,0.0,5.9872,6.4294,6.8973,7.0174,7.0221,6.9271,6.6821,6.3512,5.9204,5.378,0.0,0.0,0.0,0.0,0.0,0.0,0.0,0.0,0.0,0.0,0.0,0.0,0.0,0.0,0.0,0.0,0.0,0.0,0.0,0.0,0.0,0.0,0.0,0.0,0.0,0.0,0.0,0.0,0.0,0.0,0.0,0.0,0.0,0.0,0.0,0.0,0.0,0.0,0.0,0.0,0.0,0.0,0.0,0.0,0.0,0.0,0.0,0.0,0.0,0.0,0.0,0.0,0.0,0.0,0.0,0.0,0.0,0.0,0.0,0.0,0.0,0.0,0.0,0.0,0.0,0.0,0.0,0.0,0.0,0.0,0.0,0.0,0.0,0.0,0.0,0.0,0.0,0.0,0.0,0.0,0.0,0.0,0.0,0.0,0.0,0.0,0.0,0.0,0.0,0.0,0.0,0.0,0.0,0.0,0.0,0.0,0.0,0.0,0.0,0.0,0.0,0.0,6.4799,6.8819,7.1231,7.2147,7.225,7.1283,6.8859,6.532,6.0435,5.5318,0.0,0.0,0.0,0.0,0.0,0.0,0.0,0.0,0.0,0.0,0.0,0.0,0.0,0.0,0.0,0.0,0.0,0.0,0.0,0.0,0.0,0.0,0.0,0.0,0.0,0.0,0.0,0.0,0.0,0.0,0.0,0.0,0.0,0.0,0.0,0.0,0.0,0.0,0.0,0.0,0.0,0.0,0.0,0.0,0.0,0.0,0.0,0.0,0.0,0.0,0.0,0.0,0.0,0.0,0.0,0.0,0.0,0.0,0.0,0.0,0.0,0.0,0.0,0.0,0.0,0.0,0.0,0.0,0.0,0.0,0.0,0.0,0.0,0.0,0.0,0.0,0.0,0.0,0.0,0.0,0.0,0.0,0.0,0.0,0.0,0.0,0.0,0.0,0.0,0.0,0.0,0.0,0.0,0.0,0.0,0.0,0.0,0.0,0.0,0.0,0.0,0.0,6.5652,6.9691,7.2056,7.3022,7.3135,7.2168,6.9783,6.6474,6.2166,5.7126,0.0,0.0,0.0,0.0,0.0,0.0,0.0,0.0,0.0,0.0,0.0,0.0,0.0,0.0,0.0,0.0,0.0,0.0,0.0,0.0,0.0,0.0,0.0,0.0,0.0,0.0,0.0,0.0,0.0,0.0,0.0,0.0,0.0,0.0,0.0,0.0,0.0,0.0,0.0,0.0,0.0,0.0,0.0,0.0,0.0,0.0,0.0,0.0,0.0,0.0,0.0,0.0,0.0,0.0,0.0,0.0,0.0,0.0,0.0,0.0,0.0,0.0,0.0,0.0,0.0,0.0,0.0,0.0,0.0,0.0,0.0,0.0,0.0,0.0,0.0,0.0,0.0,0.0,0.0,0.0,0.0,0.0,0.0,0.0,0.0,0.0,0.0,0.0,0.0,0.0,0.0,0.0,0.0,0.0,0.0,0.0,0.0,0.0,0.0,0.0,0.0,0.0,6.7193,7.1247,7.3639,7.4137,7.412,7.3783,7.0975,6.7398,6.3128,0.0,0.0,0.0,0.0,0.0,0.0,0.0,0.0,0.0,0.0,0.0,0.0,0.0,0.0,0.0,0.0,0.0,0.0,0.0,0.0,0.0,0.0,0.0,0.0,0.0,0.0,0.0,0.0,0.0,0.0,0.0,0.0,0.0,0.0,0.0,0.0,0.0,0.0,0.0,0.0,0.0,0.0,0.0,0.0,0.0,0.0,0.0,0.0,0.0,0.0,0.0,0.0,0.0,0.0,0.0,0.0,0.0,0.0,0.0,0.0,0.0,0.0,0.0,0.0,0.0,0.0,0.0,0.0,0.0,0.0,0.0,0.0,0.0,0.0,0.0,0.0,0.0,0.0,0.0,0.0,0.0,0.0,0.0,0.0,0.0,0.0,0.0,0.0,0.0,0.0,0.0,0.0,0.0,0.0,0.0,0.0,0.0,0.0,0.0,0.0,0.0,0.0,6.3068,6.8313,7.2428,7.4522,7.4966,7.5014,7.4707,7.186,6.8244,6.3974,0.0,0.0,0.0,0.0,0.0,0.0,0.0,0.0,0.0,0.0,0.0,0.0,0.0,0.0,0.0,0.0,0.0,0.0,0.0,0.0,0.0,0.0,0.0,0.0,0.0,0.0,0.0,0.0,0.0,0.0,0.0,0.0,0.0,0.0,0.0,0.0,0.0,0.0,0.0,0.0,0.0,0.0,0.0,0.0,0.0,0.0,0.0,0.0,0.0,0.0,0.0,0.0,0.0,0.0,0.0,0.0,0.0,0.0,0.0,0.0,0.0,0.0,0.0,0.0,0.0,0.0,0.0,0.0,0.0,0.0,0.0,0.0,0.0,0.0,0.0,0.0,0.0,0.0,0.0,0.0,0.0,0.0,0.0,0.0,0.0,0.0,0.0,0.0,0.0,0.0,0.0,0.0,0.0,0.0,0.0,0.0,0.0,0.0,0.0,0.0,0.0,0.0,6.311,6.8828,7.3073,7.4581,7.5515,7.5668,7.4822,7.2399,6.9129,0.0,0.0,0.0,0.0,0.0,0.0,0.0,0.0,0.0,0.0,0.0,0.0,0.0,0.0,0.0,0.0,0.0,0.0,0.0,0.0,0.0,0.0,0.0,0.0,0.0,0.0,0.0,0.0,0.0,0.0,0.0,0.0,0.0,0.0,0.0,0.0,0.0,0.0,0.0,0.0,0.0,0.0,0.0,0.0,0.0,0.0,0.0,0.0,0.0,0.0,0.0,0.0,0.0,0.0,0.0,0.0,0.0,0.0,0.0,0.0,0.0,0.0,0.0,0.0,0.0,0.0,0.0,0.0,0.0,0.0,0.0,0.0,0.0,0.0,0.0,0.0,0.0,0.0,0.0,0.0,0.0,0.0,0.0,0.0,0.0,0.0,0.0,0.0,0.0,0.0,0.0,0.0,0.0,0.0,0.0,0.0,0.0,0.0,0.0,0.0,0.0,0.0,0.0,6.4732,7.0488,7.4742,7.6361,7.7284,7.7438,7.6592,7.4207,7.0667,6.582,0.0,0.0,0.0,0.0,0.0,0.0,0.0,0.0,0.0,0.0,0.0,0.0,0.0,0.0,0.0,0.0,0.0,0.0,0.0,0.0,0.0,0.0,0.0,0.0,0.0,0.0,0.0,0.0,0.0,0.0,0.0,0.0,0.0,0.0,0.0,0.0,0.0,0.0,0.0,0.0,0.0,0.0,0.0,0.0,0.0,0.0,0.0,0.0,0.0,0.0,0.0,0.0,0.0,0.0,0.0,0.0,0.0,0.0,0.0,0.0,0.0,0.0,0.0,0.0,0.0,0.0,0.0,0.0,0.0,0.0,0.0,0.0,0.0,0.0,0.0,0.0,0.0,0.0,0.0,0.0,0.0,0.0,0.0,0.0,0.0,0.0,0.0,0.0,0.0,0.0,0.0,0.0,0.0,0.0,0.0,0.0,0.0,0.0,0.0,0.0,0.0,0.0,6.5479,7.1172,7.5446,7.7092,7.8015,7.8169,7.7361,7.4976,7.1629,6.7167,0.0,0.0,0.0,0.0,0.0,0.0,0.0,0.0,0.0,0.0,0.0,0.0,0.0,0.0,0.0,0.0,0.0,0.0,0.0,0.0,0.0,0.0,0.0,0.0,0.0,0.0,0.0,0.0,0.0,0.0,0.0,0.0,0.0,0.0,0.0,0.0,0.0,0.0,0.0,0.0,0.0,0.0,0.0,0.0,0.0,0.0,0.0,0.0,0.0,0.0,0.0,0.0,0.0,0.0,0.0,0.0,0.0,0.0,0.0,0.0,0.0,0.0,0.0,0.0,0.0,0.0,0.0,0.0,0.0,0.0,0.0,0.0,0.0,0.0,0.0,0.0,0.0,0.0,0.0,0.0,0.0,0.0,0.0,0.0,0.0,0.0,0.0,0.0,0.0,0.0,0.0,0.0,0.0,0.0,0.0,0.0,0.0,0.0,0.0,0.0,0.0,0.0,6.5681,7.1339,7.561,7.7438,7.8361,7.8515,7.7707,7.5399,7.2437,6.8859,0.0,0.0,0.0,0.0,0.0,0.0,0.0,0.0,0.0,0.0,0.0,0.0,0.0,0.0,0.0,0.0,0.0,0.0,0.0,0.0,0.0,0.0,0.0,0.0,0.0,0.0,0.0,0.0,0.0,0.0,0.0,0.0,0.0,0.0,0.0,0.0,0.0,0.0,0.0,0.0,0.0,0.0,0.0,0.0,0.0,0.0,0.0,0.0,0.0,0.0,0.0,0.0,0.0,0.0,0.0,0.0,0.0,0.0,0.0,0.0,5.1463,4.8373,0.0,0.0,0.0,0.0,0.0,0.0,0.0,0.0,0.0,0.0,0.0,0.0,0.0,0.0,0.0,0.0,0.0,0.0,0.0,0.0,0.0,0.0,0.0,0.0,0.0,0.0,0.0,0.0,0.0,0.0,0.0,0.0,0.0,0.0,0.0,0.0,0.0,0.0,0.0,0.0,6.7229,7.2531,7.6929,7.9939,8.1016,8.117,8.0362,7.8515,7.5399,7.0667,6.5897,0.0,0.0,0.0,0.0,0.0,0.0,0.0,0.0,0.0,0.0,0.0,0.0,0.0,0.0,0.0,0.0,0.0,0.0,0.0,0.0,0.0,0.0,0.0,0.0,0.0,0.0,0.0,0.0,0.0,0.0,0.0,0.0,0.0,0.0,0.0,0.0,0.0,0.0,0.0,0.0,0.0,0.0,0.0,0.0,0.0,0.0,0.0,0.0,0.0,0.0,0.0,0.0,0.0,0.0,0.0,0.0,0.0,0.0,0.0,5.7791,5.4216,0.0,0.0,0.0,0.0,0.0,0.0,0.0,0.0,0.0,0.0,0.0,0.0,0.0,0.0,0.0,0.0,0.0,0.0,0.0,0.0,0.0,0.0,0.0,0.0,0.0,0.0,0.0,0.0,0.0,0.0,0.0,0.0,0.0,0.0,0.0,0.0,0.0,0.0,0.0,0.0,6.8411,7.385,7.8207,8.0823,8.217,8.2439,8.1208,7.99,7.7284,7.3014,6.8744,0.0,0.0,0.0,0.0,0.0,0.0,0.0,0.0,0.0,0.0,0.0,0.0,0.0,0.0,0.0,0.0,0.0,0.0,0.0,0.0,0.0,0.0,0.0,0.0,0.0,0.0,0.0,0.0,0.0,0.0,0.0,0.0,0.0,0.0,0.0,0.0,0.0,0.0,0.0,0.0,0.0,0.0,0.0,0.0,0.0,0.0,0.0,0.0,0.0,0.0,0.0,0.0,0.0,6.4649,6.5954,6.7539,6.8326,6.9031,6.9282,6.3891,6.0555,5.876,5.6287,0.0,0.0,0.0,0.0,0.0,0.0,0.0,0.0,0.0,0.0,0.0,0.0,0.0,0.0,0.0,0.0,0.0,0.0,0.0,0.0,0.0,0.0,6.2025,6.3535,6.4363,6.3643,5.9417,0.0,0.0,0.0,0.0,0.0,0.0,0.0,0.0,0.0,0.0,0.0,7.0206,7.5553,7.9708,8.1747,8.3362,8.3632,8.2093,8.1054,7.9054,7.5822,7.1783,6.8052,0.0,0.0,0.0,0.0,0.0,0.0,0.0,0.0,0.0,0.0,0.0,0.0,0.0,0.0,0.0,0.0,0.0,0.0,0.0,0.0,0.0,0.0,0.0,0.0,0.0,0.0,0.0,0.0,0.0,0.0,0.0,0.0,4.6722,4.7813,0.0,0.0,0.0,0.0,0.0,0.0,0.0,0.0,0.0,0.0,0.0,0.0,0.0,6.055,6.1849,6.41,6.6157,6.8006,6.9515,7.1092,7.2723,7.3472,7.3856,7.3971,7.3763,0.0,6.5653,6.3844,0.0,0.0,0.0,0.0,0.0,0.0,0.0,0.0,0.0,0.0,0.0,0.0,0.0,0.0,0.0,0.0,0.0,0.0,0.0,0.0,0.0,0.0,6.8783,6.9629,6.9951,6.981,6.9066,6.4354,5.9926,5.888,5.7934,5.7011,0.0,0.0,0.0,0.0,0.0,0.0,7.4322,7.8438,8.1977,8.5093,8.6324,8.6517,8.5517,8.4016,8.1939,7.9323,7.5822,7.2668,7.0014,6.6551,0.0,0.0,0.0,0.0,0.0,0.0,0.0,0.0,0.0,0.0,0.0,0.0,0.0,0.0,0.0,0.0,0.0,0.0,0.0,0.0,0.0,0.0,0.0,0.0,0.0,0.0,0.0,0.0,0.0,4.781,5.1024,5.2848,5.1117,4.9317,0.0,0.0,0.0,0.0,0.0,0.0,0.0,0.0,0.0,6.3145,6.528,6.7432,6.9652,7.0719,7.2048,7.3659,7.4359,7.5285,7.6426,7.7227,7.7314,7.6958,7.7746,7.6361,7.3206,6.9629,6.6282,6.3051,0.0,0.0,0.0,0.0,5.8556,6.1674,6.2983,6.4792,6.6602,6.7089,0.0,0.0,0.0,0.0,0.0,0.0,0.0,6.4784,6.8135,7.0117,7.1557,7.2762,7.3108,7.308,7.3053,7.1118,6.8424,6.5128,6.3051,6.1435,6.0089,5.9935,0.0,0.0,0.0,7.1937,7.6784,8.0823,8.3978,8.5901,8.7325,8.7594,8.6209,8.544,8.3708,8.0708,7.8669,7.6438,7.386,7.0514,6.6782,0.0,0.0,0.0,0.0,0.0,0.0,0.0,0.0,0.0,0.0,0.0,0.0,0.0,0.0,0.0,0.0,0.0,0.0,0.0,0.0,0.0,0.0,0.0,0.0,0.0,0.0,0.0,0.0,5.2155,5.4843,5.741,5.5813,5.4225,0.0,0.0,0.0,0.0,0.0,0.0,6.0722,6.3401,6.6422,6.9768,7.1281,7.3467,7.6359,7.6055,7.6752,7.8343,7.8132,7.8421,7.9169,8.0054,8.0092,7.9515,8.04,8.0285,7.9092,7.4437,7.1552,6.9667,6.609,6.4897,6.5089,6.382,6.5397,6.8359,6.9821,7.1437,7.2937,7.3591,7.2668,7.1052,6.9783,0.0,0.0,0.0,0.0,6.9926,7.3058,7.4032,7.4571,7.5976,7.6361,7.6361,7.6361,7.6669,7.5668,7.1206,6.8629,6.6705,6.5282,6.532,0.0,6.8205,7.1898,7.5745,7.9323,8.317,8.5863,8.6671,8.8325,8.8632,8.6901,8.6555,8.5209,8.2247,8.1054,7.9515,7.74,7.4437,7.1168,6.759,0.0,0.0,0.0,0.0,0.0,0.0,0.0,0.0,0.0,0.0,0.0,0.0,0.0,0.0,0.0,0.0,0.0,0.0,0.0,0.0,0.0,0.0,0.0,0.0,0.0,0.0,0.0,0.0,0.0,6.0939,6.0333,0.0,0.0,0.0,0.0,6.1934,6.3596,6.6023,6.9398,7.0389,7.2418,7.5847,7.6698,7.8001,7.9855,7.891,7.9288,8.0983,8.0085,8.0131,8.1016,8.1823,8.2131,8.217,8.3016,8.2901,8.1823,7.84,7.5938,7.4207,7.2399,7.1206,7.0514,7.0437,7.2014,7.4399,7.5284,7.6707,7.813,7.8169,7.7053,7.5668,7.5592,7.3783,0.0,0.0,7.4245,7.4899,7.7515,7.8784,7.9669,8.0554,8.0785,8.0785,8.0785,8.0169,7.8823,7.613,7.4861,7.3937,7.3091,0.0,7.2591,7.5091,7.6399,7.8631,8.2785,8.5632,8.7594,8.8479,9.0056,9.0402,8.8709,8.7825,8.6594,8.4824,8.3093,8.1785,8.0862,7.9092,7.613,7.1937,6.9283,0.0,0.0,0.0,0.0,0.0,0.0,0.0,0.0,0.0,0.0,0.0,0.0,0.0,0.0,0.0,0.0,0.0,0.0,0.0,0.0,0.0,0.0,0.0,0.0,0.0,0.0,0.0,0.0,6.5196,6.4753,0.0,6.4769,6.5799,6.6671,6.7329,6.9941,7.228,7.4038,7.4881,7.6339,7.8579,7.945,8.0425,8.1522,8.1693,8.2124,8.2771,8.2432,8.2401,8.2747,8.3593,8.367,8.317,8.4055,8.3939,8.3016,8.1862,8.0015,7.7861,7.6707,7.6053,7.5707,7.5207,7.6284,7.8054,7.8361,7.9208,8.0246,8.0785,8.1285,8.1516,8.04,7.94,7.8823,7.94,7.9592,7.9939,8.14,8.1593,8.1477,8.1785,8.2285,8.2708,8.2708,8.3324,8.3593,8.267,7.9592,7.7053,7.6784,7.6938,7.74,7.8323,8.0092,8.2285,8.4863,8.6978,8.8556,8.9363,9.0517,9.0517,8.8825,8.8402,8.7286,8.5055,8.4324,8.3324,8.1939,8.0246,7.813,7.5515,7.2976,6.9167,0.0,0.0,0.0,0.0,0.0,0.0,0.0,0.0,0.0,0.0,0.0,0.0,0.0,0.0,0.0,0.0,0.0,0.0,0.0,0.0,0.0,0.0,0.0,0.0,0.0,6.2069,6.5141,6.8219,6.851,6.8723,6.9529,7.1108,7.2206,7.2515,7.4847,7.6636,7.7472,7.8282,7.9345,8.0684,8.157,8.254,8.3555,8.3901,8.4324,8.4863,8.4593,8.4439,8.4478,8.5363,8.544,8.4939,8.5786,8.5517,8.4478,8.4747,8.3362,8.1016,8.0131,7.9785,7.9708,7.9169,7.9862,8.1093,8.1093,8.1477,8.2093,8.2901,8.4132,8.5132,8.4286,8.4016,8.4016,8.4016,8.3824,8.3785,8.467,8.4439,8.4093,8.4401,8.4901,8.5324,8.5324,8.617,8.6978,8.6978,8.3785,8.1054,8.1054,8.1554,8.1939,8.1939,8.3593,8.5286,8.6401,8.8055,8.9325,8.9863,9.0671,9.0633,8.921,8.8594,8.7555,8.5863,8.5478,8.467,8.3247,8.1823,8.0169,7.8169,7.5091,7.1283,6.6744,0.0,0.0,0.0,0.0,0.0,0.0,0.0,0.0,0.0,0.0,0.0,0.0,0.0,0.0,0.0,0.0,0.0,0.0,0.0,0.0,0.0,0.0,0.0,6.3036,6.5079,6.756,6.998,7.1634,7.2891,7.3742,7.5323,7.6673,7.751,7.8276,7.9095,7.9943,8.0777,8.1593,8.2362,8.3247,8.4478,8.6132,8.5401,8.5824,8.744,8.6594,8.617,8.6209,8.7055,8.744,8.7478,8.8325,8.7748,8.6247,8.7094,8.5978,8.3632,8.2708,8.2362,8.2324,8.2324,8.2901,8.3632,8.367,8.3708,8.3862,8.4709,8.5517,8.6324,8.7171,8.744,8.7478,8.7478,8.6901,8.644,8.7286,8.7517,8.7671,8.8517,8.8748,8.8786,8.8786,8.8786,8.8825,8.8825,8.744,8.6247,8.6209,8.617,8.617,8.617,8.6901,0.0,8.7478,8.8902,8.9902,8.9902,9.0671,9.0825,8.994,8.8363,8.744,8.744,8.6632,8.5824,8.4978,8.4093,8.2439,7.99,7.5784,7.2014,6.8667,0.0,0.0,0.0,0.0,0.0,0.0,0.0,0.0,0.0,0.0,0.0,0.0,0.0,0.0,0.0,0.0,0.0,0.0,0.0,0.0,0.0,6.5696,6.8354,6.8174,7.0331,7.2594,7.4378,7.544,7.6326,7.7158,7.8219,7.8921,7.9152,8.0469,8.1393,8.1624,8.3054,8.3978,8.417,8.5593,8.6594,8.7055,8.744,8.7902,8.8325,8.8094,8.7979,8.7979,8.8209,8.8325,8.8363,8.8594,8.844,8.7979,8.8248,8.7555,8.6209,8.4747,8.3785,8.3247,8.3247,8.3785,8.4632,8.5209,8.5824,8.6401,8.6632,8.7286,8.8017,8.8248,8.8748,8.921,8.921,8.9517,8.9863,9.0094,8.971,8.9286,8.9517,9.0056,9.0517,9.0517,9.1018,9.1441,9.1441,9.0556,8.9402,8.8171,8.7979,8.7979,8.7979,8.8171,8.8556,8.9133,8.9633,8.9902,8.9902,9.0133,8.994,8.9094,8.8594,8.8325,8.8325,8.8132,8.7325,8.5824,8.4978,8.3324,8.0785,7.8361,7.6361,0.0,0.0,0.0,0.0,0.0,0.0,0.0,0.0,0.0,0.0,0.0,0.0,0.0,0.0,0.0,0.0,0.0,0.0,0.0,0.0,0.0,0.0,7.0152,7.2544,7.3596,7.4447,7.5499,7.7074,7.7957,7.8749,7.9576,8.0392,8.1016,8.1362,8.2631,8.3401,8.3401,8.5016,8.594,8.594,8.7248,8.8094,8.844,8.9325,8.994,9.0287,9.0287,9.0287,9.0287,8.9902,8.9748,8.9748,8.9748,8.9556,8.921,8.921,8.8709,8.7825,0.0,0.0,0.0,0.0,8.6055,8.6555,8.7017,8.7517,8.794,8.794,8.8517,8.921,8.921,9.0056,9.0979,9.0979,9.1595,9.2249,9.2249,9.1864,9.1479,9.1479,9.1633,9.1748,9.1748,9.1864,9.1979,9.1979,9.1556,0.0,9.0402,8.9979,8.9633,8.9248,8.9825,9.0325,9.0441,9.1056,9.1479,9.1479,9.1479,9.1171,9.0364,8.994,0.0,0.0,0.0,8.844,8.6709,8.5863,0.0,0.0,0.0,0.0,0.0,0.0,0.0,0.0,6.7653,6.7711,0.0,0.0,0.0,0.0,0.0,0.0,0.0,0.0,0.0,0.0,0.0,0.0,0.0,0.0,0.0,0.0,7.4295,7.6283,7.8756,7.7753,7.7302,7.871,7.9584,8.0439,8.1285,8.2016,8.2824,8.367,8.4555,8.5093,8.517,8.6786,0.0,0.0,0.0,8.9325,9.0056,9.0825,9.1595,9.2364,9.2364,9.2364,9.2326,9.1556,9.121,9.121,9.121,9.0825,9.021,9.0094,8.9633,8.8902,8.7902,8.7555,8.7632,8.8517,8.8825,8.8863,8.894,0.0,0.0,8.8979,8.9479,9.0056,9.0171,9.1325,9.2672,9.2749,9.3287,9.3826,9.3826,9.371,9.3557,9.3557,9.3018,9.2479,9.2479,9.1979,9.1479,9.1479,9.1479,9.1748,9.2479,9.1902,9.1133,9.0441,9.1633,9.2364,9.1595,9.2787,9.3672,9.3557,9.3557,0.0,9.2556,9.1787,9.1056,9.0364,9.0171,8.9325,8.7748,8.6863,8.6055,8.5363,8.4555,8.417,8.417,8.3401,8.2978,8.2708,7.6321,7.4668,0.0,0.0,0.0,0.0,0.0,0.0,0.0,0.0,0.0,0.0,0.0,0.0,0.0,0.0,0.0,7.3955,7.638,7.8787,8.1359,8.0799,8.0277,8.0585,8.1323,8.217,8.3016,8.3247,8.3708,8.4593,8.5401,8.617,8.6863,8.8517,8.944,8.944,9.0248,9.0787,9.0941,9.1133,9.1287,9.1441,9.1441,0.0,9.1441,9.1287,9.121,9.121,9.121,9.1518,9.1941,9.1248,9.0864,9.0556,8.9017,8.844,8.8556,8.9363,8.9671,8.9787,9.0479,9.071,9.071,9.071,9.0825,9.1095,9.1787,9.2672,0.0,9.4326,9.4634,9.4749,9.4749,9.3749,9.271,9.271,9.2595,9.2479,9.2479,9.2864,9.321,9.321,9.321,9.3249,9.3441,9.2787,9.2402,9.2903,9.3249,9.3403,9.3249,9.348,9.3441,9.2787,9.271,9.2672,9.2518,9.2364,9.2441,9.2941,9.171,9.0444,8.9374,8.8598,8.8132,8.7979,8.7786,8.7709,8.7709,8.7517,8.7094,8.6324,8.2224,8.1368,0.0,0.0,0.0,0.0,0.0,0.0,0.0,0.0,0.0,0.0,0.0,6.6665,6.9254,0.0,7.4379,7.6916,7.8746,8.0461,8.2117,8.274,8.2824,8.2401,8.3093,8.3939,8.4786,8.5247,8.5863,8.6748,8.7555,8.8209,8.8632,8.9863,9.0556,9.0556,9.0979,9.121,9.121,9.1633,9.1864,9.1864,9.1864,9.1864,9.1825,9.1402,9.121,9.121,9.121,9.1441,9.1825,9.1364,9.121,9.1133,9.0287,8.994,9.0017,9.0402,9.0556,9.0633,9.1056,9.121,9.121,9.121,9.121,9.1287,9.171,9.2441,9.3172,9.3633,9.4018,9.4326,9.4326,9.4057,9.3749,9.3749,9.3749,9.3749,9.3749,9.371,9.371,9.371,9.371,9.3826,9.4287,9.4018,9.3749,9.371,9.4057,9.4326,9.4326,9.4711,9.4864,9.4441,9.4403,9.402,9.3138,9.2638,9.2753,9.3599,9.2521,9.1598,9.1066,9.0367,8.9906,8.9832,8.9906,8.994,8.994,8.994,8.9748,8.9248,8.7545,8.6274,0.0,0.0,0.0,0.0,0.0,0.0,0.0,6.3858,6.6551,6.8244,7.0475,7.2811,7.5039,7.6265,7.7669,7.9715,8.0907,8.1939,8.2901,8.4247,8.5016,8.4632,8.5055,8.5709,8.6517,8.7248,8.8017,8.8863,8.9517,8.9979,9.0133,9.0825,9.121,9.121,9.121,9.121,9.121,9.1902,9.2249,9.2249,9.2249,9.2249,9.221,9.1518,9.121,9.121,9.1364,9.1364,9.121,9.1364,9.1364,9.121,9.121,9.121,9.121,9.121,9.121,9.121,9.121,9.121,9.121,9.121,9.121,9.1248,9.1402,9.2056,9.2749,9.2941,9.3441,9.3941,9.3941,9.4326,9.4749,9.4749,9.4749,9.4749,9.4749,9.4326,9.3941,9.3905,9.402,9.4366,9.5058,9.5212,9.498,9.4326,9.4788,9.5212,9.5212,9.5789,9.6213,9.6213,9.6213,9.5636,9.4177,9.3371,9.3141,9.3525,9.2985,9.2448,9.2027,9.1449,9.11,9.0989,9.11,9.1175,9.1175,9.1175,9.1024,9.087,9.0898,8.9552,6.1127,6.1627,6.2589,6.432,6.5513,6.6667,0.0,7.0014,7.1822,7.3514,7.5322,7.6861,7.7891,7.94,8.0631,8.0914,8.2292,8.3862,8.544,8.5824,8.6517,8.794,8.7517,8.744,8.8325,8.8479,8.8902,8.971,8.9863,9.0248,9.1018,9.1171,9.121,9.121,9.121,9.121,9.121,9.1287,9.1364,9.1364,9.1364,9.1364,9.1325,9.1248,9.121,9.1248,9.2018,9.1902,9.1248,9.2056,9.1902,9.121,9.121,9.121,9.121,9.121,9.121,9.121,9.121,9.121,9.121,9.121,9.121,9.1325,9.2133,9.2903,9.371,9.448,9.4788,9.4826,9.4826,9.4326,9.3826,9.3826,9.3826,9.3826,9.3826,9.4364,9.4789,9.4715,9.5291,9.5829,9.5983,9.5983,9.5983,9.6019,9.5982,9.5983,9.5983,9.5982,9.5941,9.5941,9.5941,9.5864,9.5672,9.5557,9.4903,9.344,9.3291,9.2603,9.0951,9.0992,9.1028,9.0989,9.0989,9.1028,9.1028,9.0953,9.0532,8.9764,8.9758,9.0094,6.5628,6.6397,6.7436,6.9129,7.0937,7.2476,7.3206,7.4668,7.6361,7.8054,7.9361,8.0477,8.1316,8.2086,8.2715,8.3226,8.4291,8.5478,8.6709,8.7709,8.8594,8.9325,8.9517,8.9556,8.9402,8.9863,9.0287,9.0633,9.0671,9.0825,9.1171,9.121,9.121,9.121,9.121,9.121,9.121,9.121,9.121,9.121,9.121,9.121,9.121,9.1748,9.221,9.2672,9.3018,9.2979,9.2672,9.3056,9.2979,9.2633,9.2633,9.2633,9.2556,9.1556,9.121,9.121,9.121,9.121,9.1287,9.1787,9.1979,9.2095,9.2941,9.3441,9.3787,9.4134,9.4249,9.4249,9.4249,9.4326,9.4441,9.4441,9.4826,9.5211,9.5098,9.5443,9.5712,9.556,9.5906,9.6213,9.6213,9.6213,9.6213,9.6213,9.6213,9.6213,9.6213,9.6175,9.6098,9.602,9.5478,9.509,9.509,9.509,9.4742,9.405,9.4134,9.379,9.294,9.2104,9.1644,9.1566,9.1184,9.0953,9.0989,9.0991,9.1067,9.1295,9.1297,9.1757,6.9206,7.0244,7.1475,7.3168,7.5322,7.7053,7.7053,7.8323,7.99,8.117,8.2093,8.2855,8.3471,8.3971,8.4484,8.5109,8.6137,8.7209,8.8286,8.9286,9.0094,9.0556,9.0979,9.0941,9.0325,9.0825,9.121,9.121,9.121,9.121,9.121,9.121,9.121,9.121,9.121,9.121,9.121,9.1441,9.1556,9.1556,9.1787,9.1902,9.1902,9.2556,9.3172,9.3674,9.3674,9.3637,9.3637,9.3637,9.3637,9.3637,9.3637,9.3637,9.3484,9.2254,9.1867,9.1902,9.1902,9.1902,9.1979,9.2633,9.2826,9.2941,9.3482,9.3828,9.402,9.3983,9.4137,9.4329,9.4366,9.4828,9.5289,9.5365,9.5826,9.6251,9.6213,9.6251,9.6251,9.6098,9.6098,9.6213,9.6175,9.6175,9.6136,9.6058,9.6136,9.6213,9.6175,9.6097,9.6019,9.5938,9.5155,9.4687,9.4687,9.4687,9.461,9.4381,9.4467,9.4432,9.408,9.2981,9.237,9.2327,9.1833,9.1567,9.1644,9.1606,9.1951,9.2679,9.268,9.2986,7.186,7.3283,7.4976,7.6707,7.8438,7.9669,7.9669,8.0977,8.2208,8.2247,8.2939,8.3555,8.3599,8.4939,8.6055,8.6026,8.7483,8.921,9.0864,9.0402,9.0517,9.221,9.171,9.121,9.1171,9.1171,9.121,9.121,9.121,9.121,9.121,9.121,9.121,9.121,9.121,9.121,9.121,9.2056,9.2441,9.2479,9.3249,9.3633,9.3633,9.3633,9.3674,9.3601,9.3601,9.3524,9.3408,9.3408,9.3408,9.3408,9.3408,9.3408,9.3408,9.3331,9.3448,9.3633,9.3633,9.3633,9.3633,9.3633,9.3672,9.3672,9.3639,9.4139,9.4715,9.4675,9.521,9.5864,9.5982,9.6059,9.6098,9.6212,9.6288,9.6288,9.6288,9.6288,9.6213,9.5941,9.59,9.59,9.5853,9.581,9.5814,9.59,9.59,9.5859,9.5853,9.5598,9.5417,9.5417,9.5286,9.5153,9.5153,9.5153,9.4849,9.4049,9.4151,9.3816,9.2977,9.3081,9.3169,9.3169,9.3131,9.3131,9.3131,9.3047,9.3043,9.3081,9.3086,9.3166,7.4879,7.6409,7.7757,8.0068,8.1462,8.2471,8.3048,8.3625,8.4318,8.5427,8.5466,8.5241,8.5241,8.6203,8.6978,8.6945,8.8863,9.0556,9.1133,9.1441,9.1633,9.1633,9.1364,9.121,9.121,9.121,9.121,9.121,9.121,9.121,9.121,9.121,9.1479,9.2056,9.2056,9.2326,9.2864,9.3133,9.3287,9.3287,9.3522,9.387,9.4369,9.4369,9.4637,9.5097,9.5097,9.5097,9.5057,9.5057,9.5057,9.5057,9.5175,9.5214,9.5214,9.5291,9.5367,9.5212,9.3947,9.3525,9.3601,9.4177,9.4369,9.4484,9.5099,9.5445,9.5675,9.5752,9.5944,9.6136,9.6098,9.6098,9.6098,9.6058,9.602,9.6019,9.5977,9.5979,9.6019,9.5856,9.6358,9.6782,9.6741,9.7239,9.7542,9.7461,9.6587,9.59,9.5859,9.5686,9.5554,9.5554,9.5239,9.5094,9.5191,9.5094,9.498,9.4811,9.4858,9.4706,9.4439,9.3961,9.3739,9.3739,9.3257,9.3033,9.3162,9.3158,9.3506,9.4132,9.4139,9.4484,7.7805,7.949,8.0799,8.2763,8.4119,8.5087,8.5665,8.6049,8.655,8.7622,8.6929,8.6088,8.612,8.6588,8.7055,8.7363,8.9286,9.0941,9.1595,9.1864,9.1941,9.171,9.1402,9.121,9.121,9.121,9.121,9.121,9.121,9.121,9.121,9.1518,9.1902,9.2479,9.2787,9.3172,9.3672,9.4018,9.4326,9.4559,9.4522,9.4753,9.5173,9.5173,9.5442,9.59,9.5859,9.5818,9.5776,9.5776,9.5776,9.5776,9.5898,9.5938,9.5938,9.6019,9.6057,9.5904,9.483,9.4407,9.4445,9.502,9.5173,9.5248,9.5826,9.5979,9.5979,9.6019,9.6057,9.6019,9.5979,9.5979,9.5979,9.59,9.59,9.59,9.5856,9.6128,9.6319,9.6231,9.6963,9.758,9.7538,9.7997,9.8298,9.8255,9.7342,9.658,9.6231,9.5974,9.5676,9.5277,9.4946,9.4741,9.4703,9.4651,9.4651,9.4703,9.4755,9.4807,9.4857,9.4414,9.4247,9.4382,9.3859,9.3732,9.3829,9.3912,9.4309,9.4975,9.4983,9.5291,8.0631,8.2516,8.4016,8.4901,8.6286,8.7478,8.7517,8.8171,8.8748,8.8748,8.7363,8.6132,8.6055,8.6055,8.6363,8.7209,8.8825,9.0556,9.221,9.1748,9.1556,9.2326,9.171,9.121,9.121,9.121,9.121,9.1248,9.1287,9.1287,9.1287,9.2095,9.2595,9.2633,9.3364,9.3787,9.3826,9.4634,9.5405,9.6098,9.6098,9.6098,9.6058,9.6058,9.5981,9.59,9.5814,9.5686,9.5598,9.5598,9.5598,9.5598,9.5598,9.5598,9.5637,9.5675,9.5675,9.5801,9.6251,9.6213,9.6058,9.6058,9.5981,9.5859,9.5814,9.581,9.5768,9.5643,9.5643,9.5643,9.5768,9.581,9.5853,9.5936,9.5977,9.5977,9.6015,9.6667,9.7239,9.7074,9.7763,9.8331,9.8235,9.8235,9.8235,9.8235,9.8235,9.7884,9.6867,9.6513,9.5958,9.481,9.4462,9.4235,9.3948,9.3948,9.3948,9.3911,9.399,9.4161,9.4235,9.44,9.4613,9.4908,9.492,9.5029,9.5134,9.5273,9.5363,9.5369,9.5522,9.5598,8.338,8.5142,8.6637,8.7487,8.8025,8.8525,8.9137,8.9444,8.956,8.959,8.8243,8.6704,8.5434,8.5703,8.617,8.6401,8.894,9.1018,9.1479,9.1902,9.2018,9.1595,9.1325,9.121,9.121,9.121,9.1479,9.2133,9.2172,9.2172,9.2172,9.2941,9.3672,9.4326,9.4445,9.483,9.5483,9.5714,9.5867,9.5895,9.5938,9.5859,9.5729,9.5729,9.5729,9.5686,9.5643,9.5554,9.5463,9.5463,9.5417,9.5286,9.5379,9.5807,9.6341,9.647,9.6859,9.7394,9.7528,9.6724,9.5729,9.5729,9.5729,9.5686,9.5772,9.581,9.5772,9.5818,9.5818,9.5818,9.5772,9.581,9.5964,9.6489,9.6642,9.6795,9.7407,9.7713,9.7866,9.7821,9.851,9.9312,9.9878,9.9954,9.9908,9.9813,9.9813,9.9317,9.7782,9.7349,9.6982,9.6436,9.6044,9.5585,9.4849,9.4692,9.4369,9.3695,9.3717,9.3717,9.356,9.3739,9.3877,9.3973,9.4296,9.4516,9.4516,9.492,9.5077,9.514,9.5331,9.5446,8.5527,8.7214,8.8714,8.9598,8.9829,8.9944,9.0367,8.9906,8.9286,8.8897,8.6858,8.501,8.4433,8.4395,8.4786,8.594,8.8363,9.0364,9.1095,9.1633,9.1748,9.1248,9.121,9.1364,9.1748,9.1787,9.2133,9.2941,9.271,9.2633,9.3018,9.3751,9.4406,9.4906,9.5214,9.5598,9.6098,9.6019,9.5898,9.581,9.5856,9.5814,9.5686,9.5686,9.5686,9.5724,9.6063,9.6081,9.599,9.6277,9.6295,9.6059,9.6109,9.6325,9.6654,9.6705,9.7059,9.7439,9.7439,9.6831,9.6159,9.6485,9.657,9.657,9.6706,9.6706,9.6751,9.6844,9.6844,9.6844,9.6795,9.6795,9.691,9.7318,9.7432,9.7547,9.8006,9.8426,9.877,9.9152,9.961,10.0107,10.0489,10.0604,10.0595,10.0375,10.0288,9.9885,9.8732,9.8106,9.7457,9.6589,9.6168,9.5705,9.4989,9.4924,9.4636,9.4152,9.3779,9.3593,9.3556,9.3322,9.3277,9.3358,9.3614,9.3838,9.3984,9.4378,9.4703,9.4858,9.5087,9.5303,8.7325,8.8979,9.0441,9.1171,9.1364,9.1325,9.1248,8.9902,8.8402,8.744,8.4593,8.2516,8.3285,8.2708,8.3016,8.567,8.7478,8.9133,9.0941,9.121,9.121,9.121,9.1287,9.1672,9.2441,9.2595,9.2943,9.3826,9.3174,9.3097,9.3826,9.4561,9.4945,9.4945,9.5675,9.6058,9.6019,9.5856,9.581,9.5768,9.5768,9.5806,9.5921,9.5877,9.5954,9.6069,9.6745,9.6913,9.681,9.7349,9.7413,9.7058,9.6893,9.6856,9.6722,9.6722,9.6873,9.7061,9.6948,9.6986,9.7139,9.7629,9.7703,9.7654,9.7801,9.7849,9.7896,9.8074,9.812,9.812,9.812,9.812,9.812,9.8273,9.8273,9.8311,9.8426,9.9037,9.9763,10.0489,10.0604,10.0604,10.0604,10.0604,10.0471,10.0403,10.0177,9.9972,9.9443,9.8668,9.7659,9.6292,9.5864,9.5457,9.4995,9.4958,9.4921,9.4739,9.4111,9.3776,9.3916,9.3282,9.3033,9.3289,9.3364,9.3507,9.3779,9.414,9.4443,9.4765,9.5068,9.5325,8.921,9.0748,9.2095,9.2249,9.2287,9.2095,9.1364,8.9902,8.8248,8.6671,8.417,8.2362,8.2516,8.1862,8.2362,8.5593,8.6978,8.844,9.0864,9.121,9.121,9.121,9.1825,9.2326,9.2479,9.3061,9.3754,9.4561,9.4446,9.4369,9.46,9.529,9.5708,9.5623,9.5738,9.5772,9.5686,9.5729,9.5729,9.5643,9.5643,9.5936,9.6532,9.6438,9.6734,9.7382,9.7486,9.7414,9.721,9.7166,9.6837,9.6433,9.6291,9.6581,9.6916,9.6916,9.7814,9.8899,9.829,9.8477,9.8766,9.7573,9.7257,9.7324,9.7503,9.7703,9.7896,9.7943,9.799,9.812,9.812,9.812,9.8273,9.8999,9.9152,9.9343,9.9992,10.0298,10.0413,10.0604,10.0604,10.0604,10.0604,10.051,10.0403,10.0113,9.9812,9.9386,9.8829,9.8679,9.8405,9.7777,9.7372,9.6725,9.5881,9.5807,9.544,9.4631,9.4447,9.4338,9.4228,9.4224,9.4256,9.4256,9.4585,9.4764,9.4832,9.5157,9.537,9.563,9.6057,9.6403,8.953,9.0989,9.241,9.2757,9.2603,9.2065,9.1181,8.9066,8.6795,8.5132,8.2401,8.0592,8.1516,8.0631,8.1016,8.4863,8.617,8.7594,9.0171,9.1287,9.1864,9.1864,9.2633,9.3287,9.3676,9.4023,9.4523,9.529,9.5284,9.5284,9.5367,9.5668,9.5814,9.581,9.5729,9.5686,9.5686,9.5598,9.5554,9.5509,9.579,9.6115,9.6436,9.6654,9.693,9.7347,9.7712,9.7739,9.7592,9.8191,9.8167,9.7899,9.8046,9.8184,9.8379,9.8379,9.8899,9.953,9.9121,9.9233,9.9522,9.8731,9.8567,9.8705,9.9119,9.9691,10.0291,10.0479,10.0586,10.0795,10.0795,10.0413,10.0222,10.0604,10.0413,10.0107,10.0489,10.0604,10.0604,10.0604,10.0604,10.0604,10.0604,10.051,10.0315,10.0024,9.9556,9.9035,9.8514,9.815,9.7881,9.7641,9.7393,9.7027,9.64,9.6363,9.6141,9.5698,9.5257,9.4962,9.4923,9.4559,9.4375,9.4375,9.4589,9.4736,9.4815,9.5,9.5248,9.552,9.5939,9.6318,8.9725,9.1219,9.2674,9.32,9.2783,9.1947,9.0913,8.8231,8.5501,8.3874,8.0984,7.9177,8.0592,7.9554,7.9785,8.3708,8.5016,8.6517,8.9248,9.1133,9.2287,9.2479,9.3364,9.4137,9.4753,9.4945,9.5327,9.6051,9.604,9.5964,9.5818,9.5772,9.5768,9.5768,9.5643,9.5757,9.5992,9.5776,9.5714,9.5858,9.6173,9.6437,9.6575,9.6855,9.7272,9.7554,9.8078,9.8336,9.8454,9.9413,9.9643,9.9448,9.9685,9.9685,9.9572,9.9572,9.9682,9.9793,9.9609,9.9572,9.9535,9.9538,9.981,10.0331,10.0797,10.1504,10.2304,10.2525,10.2609,10.2591,10.2591,10.2094,10.1597,10.1597,10.11,10.0604,10.0604,10.0604,10.0604,10.0604,10.0604,10.0604,10.0595,10.0375,10.0177,9.9866,9.9271,9.8667,9.815,9.757,9.7138,9.7064,9.6952,9.6838,9.6685,9.6685,9.6685,9.6685,9.6098,9.5768,9.5768,9.5182,9.4815,9.4813,9.4816,9.4852,9.4952,9.5175,9.5431,9.5948,9.6215,9.6703,9.079,9.2512,9.3892,9.38,9.3236,9.2335,9.0732,8.7959,8.5245,8.3668,8.1354,7.9652,7.9869,7.9131,7.94,8.2093,8.3247,8.4978,8.8325,9.0248,9.1595,9.2402,9.3791,9.4715,9.4792,9.5323,9.6044,9.6844,9.6745,9.631,9.5681,9.5643,9.5598,9.5598,9.5598,9.5936,9.66,9.66,9.68,9.7275,9.7052,9.7195,9.7664,9.7403,9.8017,9.9245,9.932,9.9702,10.0209,10.0187,9.9978,9.9686,9.9498,9.9342,9.9186,9.9186,9.9664,10.0142,9.9444,9.9186,9.9076,9.8535,9.9458,10.0778,10.1094,10.1313,10.1377,10.1572,10.1214,10.0795,10.0795,10.0795,10.0718,10.0718,10.0718,10.0604,10.0604,10.0604,10.0604,10.0604,10.0604,10.0595,10.0424,10.0215,9.9866,9.9424,9.8792,9.815,9.7641,9.7248,9.6989,9.6762,9.6685,9.6685,9.6685,9.6685,9.6685,9.6685,9.6649,9.6575,9.6575,9.6502,9.6465,9.6465,9.6465,9.6465,9.6539,9.6539,9.6979,9.7941,9.8091,9.8836,9.0445,9.2315,9.3655,9.3415,9.291,9.2081,9.0324,8.7966,8.5741,8.4286,8.2088,8.0613,8.1177,7.9361,7.8746,8.1823,8.2593,8.3824,8.6748,8.9479,9.1482,9.2292,9.3717,9.5018,9.5929,9.6178,9.6578,9.7371,9.68,9.6474,9.6714,9.6353,9.6133,9.6133,9.6591,9.7001,9.7197,9.7009,9.6863,9.6931,9.7019,9.713,9.7216,9.783,9.8444,9.9006,9.9456,9.972,9.9981,10.0352,10.0385,10.0306,10.063,10.0582,10.0503,10.0503,10.0393,10.0283,9.9916,9.9512,9.9071,9.8819,9.9352,10.0195,10.0217,10.0917,10.1618,10.1915,10.1991,10.1939,10.1988,10.1703,10.1292,10.0718,10.0604,10.0604,10.0604,10.0604,10.0604,10.0604,10.0519,10.05,10.0413,10.0024,9.9556,9.9154,9.8477,9.7849,9.7356,9.7469,9.7497,9.7419,9.6979,9.6685,9.6685,9.6685,9.6685,9.6685,9.6685,9.6685,9.6685,9.6685,9.6685,9.6685,9.7203,9.7423,9.7423,9.7941,9.8309,9.8753,9.8888,9.9407,8.9544,9.165,9.31,9.2599,9.2048,9.1241,8.9541,8.7534,8.5727,8.4671,8.271,8.1387,8.183,7.9785,7.8823,8.117,8.1977,8.317,8.5747,8.879,9.1177,9.2217,9.3639,9.5007,9.6331,9.6905,9.7323,9.7465,9.7058,9.6863,9.7096,9.6847,9.6703,9.6629,9.7199,9.7513,9.7582,9.7271,9.7212,9.7403,9.76,9.7681,9.7706,9.8501,9.9021,9.9205,9.9645,9.9975,10.0269,10.0667,10.0924,10.0924,10.1097,10.109,10.109,10.0907,10.0393,9.9952,9.9952,9.9438,9.8741,9.8741,9.879,9.8947,9.889,10.0002,10.1302,10.1693,10.1877,10.1991,10.2093,10.1824,10.1235,10.0624,10.051,10.0624,10.0815,10.0929,10.0881,10.1187,10.0898,10.0684,10.0811,10.0196,9.9493,9.913,9.868,9.8166,9.7544,9.7944,9.8264,9.8264,9.775,9.7419,9.7419,9.7419,9.7419,9.7419,9.7419,9.7419,9.7419,9.7423,9.7423,9.7423,9.7978,9.8272,9.8227,9.8819,9.9228,9.9448,9.9616,9.9946,8.818,9.052,9.2286,9.1283,9.0601,8.9836,8.8254,8.6415,8.4866,8.4324,8.3025,8.1785,8.1215,8.04,7.9785,7.9823,8.1208,8.317,8.5747,8.8256,9.0488,9.2287,9.3598,9.4649,9.5615,9.7496,9.8234,9.7079,9.763,9.7454,9.6181,9.6856,9.72,9.6986,9.7004,9.7253,9.7793,9.7576,9.8155,9.9478,9.9108,9.9201,9.9685,9.9459,9.9747,10.0283,10.0283,10.0686,10.1494,10.1494,10.1494,10.1384,10.0613,10.0283,10.0209,9.9438,9.9145,9.9108,9.9108,9.8594,9.7897,9.7897,9.75,9.7063,9.7175,9.8476,9.9942,10.0511,10.0292,10.001,10.001,10.0075,10.0177,10.0177,10.0177,10.0406,10.1319,10.1509,10.17,10.2499,10.19,10.1384,10.1902,10.0903,9.9841,9.9351,9.9498,9.9315,9.8314,9.875,9.9108,9.9108,9.9071,9.9071,9.9071,9.9071,9.9071,9.9071,9.9071,9.9071,9.9071,9.9081,9.9124,9.9124,9.9124,9.9076,9.9126,9.9126,9.9492,10.0269,10.0269,10.0966,8.6847,8.8719,8.975,8.9355,8.8915,8.8333,8.7419,8.6549,8.5681,8.4557,8.3594,8.277,8.2023,8.0746,8.0169,8.1323,8.2439,8.383,8.5762,8.8685,9.0991,9.2027,9.4834,9.6876,9.7503,9.7999,9.8234,9.8245,9.7741,9.7654,9.815,9.8352,9.803,9.7055,9.8105,9.8691,9.8759,9.9158,9.9443,9.9646,9.9354,9.9277,9.9264,9.9816,10.0105,10.0319,10.0907,10.1274,10.1494,10.0907,10.0686,10.0613,9.9805,9.9475,9.9475,9.9181,9.8741,9.8264,9.8264,9.775,9.7089,9.7089,9.6982,9.6838,9.7027,9.7685,9.8561,9.9117,9.9675,10.0142,9.9632,10.0499,10.1308,9.9986,10.0685,10.1497,10.1009,10.1519,10.2105,10.2294,10.1522,10.0842,10.0797,9.9642,9.8598,9.8152,9.8393,9.8498,9.8088,9.8594,9.9328,9.9879,9.9916,9.9695,9.9145,9.9108,9.9108,9.9108,9.9108,9.9108,9.9113,9.9113,9.9117,9.9124,9.9627,9.9909,9.9939,10.0533,10.0863,10.1127,10.131,10.1617,8.41,8.6058,8.6959,8.6623,8.6406,8.6138,8.5638,8.525,8.4771,8.4098,8.3435,8.2842,8.2401,8.1208,8.0746,8.2061,8.322,8.4686,8.6652,8.9189,9.145,9.3038,9.582,9.7755,9.8234,9.8287,9.8327,9.8504,9.8001,9.8067,9.8791,9.9018,9.8722,9.7789,9.9034,9.9592,9.9381,9.9757,9.9982,9.9977,9.9861,9.9853,9.9989,10.0503,10.0796,10.0796,10.098,10.098,0.0,10.0209,9.9842,9.9805,9.9292,9.8924,9.8668,9.8668,9.8337,9.7897,9.7897,9.775,9.7603,9.7603,9.7603,9.7603,9.7757,9.795,9.823,9.8873,9.9722,10.0205,9.9843,10.0668,10.1302,10.0225,10.079,10.1566,10.1302,10.1815,10.229,10.2592,10.1845,10.1145,10.119,10.0097,9.905,9.8762,9.909,9.9301,9.8851,9.9255,9.9732,10.0209,9.9989,9.9769,9.9585,9.9842,9.9989,9.9989,9.9989,9.9989,10.0031,9.9989,10.0031,10.0,10.0503,10.079,10.079,10.131,10.1494,10.1494,10.1567,10.1831,0.0,8.2697,8.3834,8.3264,8.3266,8.3419,8.3171,8.2829,0.0,8.3137,8.2664,8.2227,8.2208,8.1593,8.1369,8.2155,8.3658,8.5619,8.8116,8.9955,9.2083,9.5048,9.6641,9.7636,9.7951,9.8341,9.8385,9.8017,9.8383,9.854,9.8278,9.9051,9.9452,9.9255,9.9758,9.9945,9.9721,9.9606,9.9934,10.0667,10.0472,10.0796,10.1494,10.1384,10.1384,10.1384,10.0576,10.0209,10.0209,9.9402,9.9071,9.9035,9.9035,9.8521,9.7787,9.7787,9.7787,9.7787,9.7787,9.83,9.8961,9.8998,9.9035,9.9035,9.9145,9.898,9.8909,9.9649,10.0124,10.0406,10.0406,10.0507,10.0718,10.0606,10.0718,10.1009,10.1891,10.222,10.2482,10.3193,10.2497,10.1961,10.2387,10.15,10.0718,10.0487,10.1029,10.109,10.0393,10.0283,10.0283,10.0283,9.9585,9.9402,10.0209,10.098,10.1384,10.1494,10.1494,10.1494,10.1494,10.1494,10.1494,10.1494,10.1494,10.1494,10.1494,10.1494,10.1494,10.1494,10.1494,10.1567,7.5676,0.0,7.9744,7.9796,8.0039,8.0564,0.0,8.1913,8.2147,8.2399,8.2342,8.2099,8.1477,8.1145,8.142,8.2885,8.4468,8.6429,8.8883,9.2164,9.4998,9.6866,9.7703,9.7724,9.6906,9.7691,9.7726,9.661,9.7654,9.8462,9.8856,9.9664,10.0325,10.0907,10.1103,10.0772,10.022,10.0693,10.1097,10.1317,10.1164,10.1274,10.1494,10.0907,10.0576,10.0503,9.9732,9.9402,9.9365,9.9181,9.8741,9.819,9.819,9.7676,9.6979,9.6979,9.6979,9.6979,9.6979,9.7126,9.7383,9.797,9.819,9.8411,9.9659,9.9517,9.9084,9.9385,9.9685,9.9871,9.998,10.0232,10.0266,10.0087,10.0678,10.1341,10.1421,10.1976,10.2528,10.2007,10.1195,10.0497,10.0426,9.9537,9.8977,9.937,10.0062,10.0503,10.0319,10.0283,10.0283,10.0283,9.9585,9.9181,9.9365,10.0099,10.0796,10.1494,10.1494,10.1494,10.1494,10.1494,10.1494,10.1494,10.1494,10.1494,10.1494,10.1494,10.1494,10.1494,10.1494,10.1494,7.3155,7.5075,7.6733,7.7424,7.8116,7.8888,7.9912,8.0736,8.1374,8.1618,8.1715,8.1593,8.1068,8.1574,8.2429,8.363,8.5932,8.85,9.1326,9.4471,9.6762,9.7528,9.7853,9.7793,9.733,9.7197,9.6907,9.651,9.7467,9.8342,9.9071,9.9879,10.0686,10.1494,10.1494,10.1274,10.087,10.1274,10.1494,10.1494,10.109,10.0907,10.0907,10.0099,9.9952,10.0283,9.9475,9.9108,9.9071,9.8704,9.808,9.7383,9.775,9.7419,9.6722,9.7126,9.7236,9.7236,9.7236,9.7493,9.786,9.83,9.8704,9.9071,9.9585,9.9695,9.9732,10.022,10.0372,10.0527,10.0604,10.072,10.0757,10.0718,10.1126,10.1534,10.1495,10.1867,10.198,10.1241,10.0573,10.0129,9.9532,9.8974,9.8897,9.9548,9.9989,10.0393,10.0796,10.0503,10.0283,10.0283,9.9585,9.9108,9.9108,9.9842,10.0319,10.0393,10.0686,10.0907,10.0863,10.131,10.1494,10.1494,10.1494,10.1494,10.1494,10.1494,10.1494,10.1494,10.1494,10.1494,7.1899,7.3479,7.4956,7.5832,7.6916,7.8029,7.8704,7.9781,8.0685,8.1029,8.1208,8.1292,8.1272,8.2429,8.3703,8.4786,8.7884,9.1285,9.4485,9.6582,9.7794,9.7641,9.7667,9.7742,9.7806,9.6862,9.6289,9.6768,9.7423,9.819,9.8888,9.9695,10.0503,10.1274,10.1274,10.1274,10.1274,10.1384,10.1384,10.1274,10.0613,10.0209,10.0099,9.9292,9.9292,9.9879,9.9071,9.8741,9.8704,9.8117,9.7419,9.6795,9.7566,9.7419,9.6795,9.7456,9.7713,9.7713,9.7713,9.8227,9.8924,9.8924,9.9475,9.9989,9.9328,9.9585,10.0283,10.0907,10.098,10.098,10.109,10.098,10.098,10.1274,10.1274,10.1427,10.1697,10.166,10.1292,10.0483,10.034,9.9931,9.9035,9.8924,9.9181,9.9989,10.0099,10.0393,10.098,10.0503,10.0099,9.9952,9.9328,9.8888,9.8741,9.9365,9.9475,9.8778,9.9695,10.0319,10.0269,10.1127,10.1494,10.1494,10.1494,10.1494,10.1494,10.1494,10.1494,10.1494,10.1494,10.1494,7.1471,7.3324,7.5304,7.5357,7.6187,7.7349,7.8631,7.9781,8.0685,8.1029,8.1606,8.2227,8.2885,8.3131,8.4174,8.7003,9.0727,9.4211,9.6838,9.7844,9.8318,9.821,9.8177,9.7545,9.5946,9.6468,9.6584,9.5807,9.7052,9.7933,9.808,9.8851,9.9659,10.0503,10.0503,10.0503,10.0503,10.12,10.12,10.0503,10.0393,9.9952,9.9255,9.8447,9.8154,9.8227,9.7419,9.7089,9.7126,9.7676,9.7419,9.6795,9.7566,9.7419,9.6722,9.6832,9.6869,9.6869,9.6869,9.7419,9.808,9.808,9.8631,9.9255,9.9145,9.9181,9.9328,9.9438,9.8961,9.8594,9.9292,9.8961,9.8778,10.0172,10.0503,10.0686,10.1427,10.1023,10.0325,9.9517,9.8819,9.8305,9.808,9.808,9.8374,9.9181,9.9292,9.9328,9.9475,9.9365,9.9035,9.8337,9.8154,9.7787,9.7126,9.7199,9.7199,9.7089,9.9113,10.0325,10.0269,10.1127,10.1494,10.1494,10.1494,10.1494,10.1494,10.1494,10.1494,10.1494,10.1494,10.1494,7.2679,7.459,7.6572,7.7928,7.9001,8.0175,8.1901,8.3139,8.3868,8.37,8.3892,8.4241,8.4588,8.5322,8.7234,9.131,9.3792,9.5729,9.7237,9.7885,9.8083,9.7793,9.7552,9.7137,9.6388,9.6253,9.6137,9.6135,9.6832,9.7419,9.786,9.8264,9.9035,10.0283,10.0283,10.0503,10.0907,10.0907,10.0686,10.0283,9.9879,9.9475,9.9071,9.7823,9.7493,9.786,9.7493,9.7346,9.7383,9.775,9.7419,9.6722,9.7126,9.7016,9.6685,9.6685,9.6685,9.6685,9.6685,9.6942,9.7236,9.7236,9.7787,9.8374,9.7933,9.8117,9.8374,9.7933,9.8484,9.9292,9.9659,9.9475,9.9475,10.0686,10.0613,10.0393,10.0796,10.0576,9.9916,9.8704,9.8154,9.775,9.7309,9.7236,9.753,9.8337,9.8447,9.8631,9.9035,9.9108,9.8961,9.8594,9.8557,9.8227,9.7419,9.775,9.7823,9.7419,9.8378,9.9186,9.9616,9.9995,10.0215,10.0159,10.0196,10.0196,10.0196,10.0196,10.0196,10.0196,10.0196,10.0196,7.3951,7.5984,7.8195,8.0681,8.1741,8.2816,8.5029,8.6344,8.6927,8.647,8.6661,8.6815,8.6585,8.815,9.0814,9.4905,9.6135,9.6825,9.7457,9.7818,9.7877,9.7478,9.7055,9.6833,9.7101,9.6362,9.6061,9.6649,9.6685,9.6979,9.7566,9.7603,9.8264,9.9695,9.9732,9.9989,10.0686,10.0209,9.9989,9.9989,9.9402,9.8924,9.8521,9.7456,9.7199,9.7603,9.7603,9.7603,9.7603,9.7603,9.7273,9.6685,9.6685,9.6685,9.6685,9.6685,9.6685,9.6685,9.6685,9.6832,9.6942,9.6759,9.7236,9.775,9.6942,9.7126,9.7493,9.6869,9.8154,9.9695,9.9512,9.9585,9.9879,10.0503,10.0283,9.9989,9.9989,9.9879,9.9365,9.8117,9.775,9.7419,9.6795,9.6685,9.6906,9.753,9.7603,9.7823,9.8484,9.8557,9.8557,9.8557,9.8557,9.83,9.7676,9.819,9.83,9.7635,9.779,9.8158,9.8778,9.9007,9.9076,9.906,9.9133,9.9133,9.9096,9.9096,9.9096,9.9096,9.9096,9.9096,7.426,7.6897,7.9955,8.1881,8.2336,8.3063,8.5838,8.7225,8.7921,8.8079,8.9227,8.9944,8.9179,9.1438,9.397,9.5679,9.6931,9.7906,9.8614,9.8263,9.7905,9.7775,9.7425,9.7101,9.7027,9.6801,9.6649,9.6685,9.6685,9.6722,9.6795,9.6795,9.7163,9.8043,9.8043,9.808,9.8154,9.8851,9.9181,9.9181,9.9145,9.8337,9.6906,9.753,9.7419,9.6795,9.6795,9.6795,9.6795,9.6795,9.6759,9.6685,9.6685,9.6685,9.6685,9.6685,9.6685,9.6685,9.6685,9.7199,9.7676,9.6942,9.7236,9.775,9.6942,9.6722,9.6759,9.6722,9.7346,9.7897,9.7163,9.7493,9.808,9.8154,9.8704,9.9181,9.9181,9.8594,9.8043,9.7897,9.7309,9.6759,9.6722,9.6685,9.6722,9.6795,9.6795,9.6795,9.6869,9.6869,9.6869,9.6869,9.6869,9.6869,9.6795,9.6832,9.6869,9.6795,9.7497,9.7941,9.8014,9.8672,9.9117,9.9084,9.9113,9.9113,9.9084,9.9084,9.9084,9.9084,9.9084,9.9084,7.6656,7.9,8.1528,8.3331,8.4309,8.5703,8.9005,9.0427,9.1081,9.125,9.2504,9.3289,9.2398,9.4344,9.6237,9.6582,9.7609,9.8392,9.8348,9.7949,9.757,9.7321,9.7175,9.7027,9.6838,9.6762,9.6685,9.6685,9.6685,9.6685,9.6685,9.6685,9.7052,9.786,9.7897,9.8117,9.8631,9.8447,9.8337,9.8337,9.8337,9.83,9.819,9.7456,9.6979,9.6685,9.6685,9.6685,9.6685,9.6685,9.6685,9.6685,9.6685,9.6685,9.6685,9.6685,9.6685,9.6685,9.6685,9.6906,9.7089,9.6795,9.6906,9.7089,9.6795,9.6685,9.6685,9.6685,9.6906,9.7199,9.7383,9.7676,9.8007,9.8521,9.8484,9.8337,9.8337,9.8117,9.775,9.7236,9.6906,9.6685,9.6685,9.6685,9.6685,9.6685,9.6685,9.6685,9.6685,9.6685,9.6685,9.6685,9.6685,9.6685,9.6685,9.6685,9.6685,9.6685,9.6942,9.7166,9.7166,9.7419,9.7644,9.757,9.7566,9.7566,9.757,9.757,9.757,9.757,9.757,9.757,7.8864,8.0929,8.3012,8.5232,8.6653,8.8326,9.1667,9.2665,9.316,9.4364,9.5006,9.5239,9.5045,9.6034,9.6923,9.7083,9.7891,9.8282,9.7849,9.7499,9.7175,9.6914,9.6914,9.6838,9.6685,9.6685,9.6795,9.7052,9.6832,9.6795,9.7052,9.6832,9.6942,9.7493,9.753,9.7787,9.8337,9.7787,9.764,9.7897,9.764,9.7823,9.83,9.7456,9.6942,9.6685,9.6685,9.6685,9.6685,9.6685,9.6685,9.6685,9.6685,9.6685,9.6685,9.6685,9.6685,9.6685,9.6685,9.6685,9.6685,9.6685,9.6685,9.6685,9.6685,9.6685,9.6685,9.6685,9.6685,9.6832,9.7383,9.753,9.764,9.8227,9.7933,9.753,9.753,9.753,9.7346,9.6795,9.6685,9.6685,9.6685,9.6685,9.6685,9.6685,9.6685,9.6685,9.6685,9.6685,9.6685,9.6685,9.6685,9.6685,9.6685,9.6685,9.6685,9.6685,9.6685,9.6685,9.6685,9.6685,9.6685,9.6685,9.6685,9.6685,9.6685,9.6685,9.6685,9.6685,9.6685,9.6685,8.047,8.2424,8.4529,8.7588,8.9086,9.0559,9.3383,9.3364,9.3716,9.7163,9.6467,9.5627,9.6885,9.6327,9.6007,9.7143,9.7599,9.7678,9.7284,9.6877,9.6685,9.6685,9.6685,9.6685,9.6685,9.6722,9.7052,9.7823,9.7163,9.7052,9.7823,9.7126,9.6685,9.6685,9.6685,9.6685,9.6685,9.6685,9.7089,9.786,9.7089,9.6685,9.6722,9.753,9.7456,9.6685,9.6685,9.6685,9.6685,9.6685,9.6685,9.6685,9.6685,9.6685,9.6685,9.6685,9.6685,9.6685,9.6685,9.6685,9.6685,9.6685,9.6685,9.6685,9.6685,9.6685,9.6685,9.6685,9.6685,9.6685,9.6685,9.6685,9.6685,9.6685,9.6685,9.6685,9.6685,9.6685,9.6685,9.6685,9.6685,9.6685,9.6685,9.6685,9.6685,9.6685,9.6685,9.6685,9.6685,9.6685,9.6685,9.6685,9.6685,9.6685,9.6685,9.6685,9.6685,9.6685,9.6685,9.6685,9.6685,9.6685,9.6685,9.6685,9.6685,9.6685,9.6685,9.6685,9.6685,9.6685,9.6685,9.6685,8.1511,8.4153,8.6536,8.835,9.0464,9.2715,9.4855,9.4882,9.5267,9.8095,9.779,9.7186,9.8015,9.7592,9.7148,9.7141,9.736,9.7428,9.7101,9.6838,9.6685,9.6685,9.6685,9.6685,9.6685,9.7199,9.7419,9.7089,9.7346,9.7383,9.7052,9.6832,9.6685,9.6685,9.6685,9.6685,9.6685,9.6685,9.6832,9.7052,9.6795,9.7016,9.753,9.7199,9.6942,9.6685,9.6685,9.6685,9.6685,9.6685,9.6685,9.6685,9.6685,9.6685,9.6685,9.6685,9.6685,9.6685,9.6685,9.6685,9.6685,9.6685,9.6685,9.6685,9.6685,9.6685,9.6685,9.6685,9.6685,9.6685,9.6685,9.6685,9.6685,9.6685,9.6685,9.6685,9.6685,9.6685,9.6685,9.6685,9.6685,9.6685,9.6685,9.6685,9.6685,9.6685,9.6685,9.6685,9.6685,9.6685,9.6685,9.6685,9.6685,9.6685,9.6685,9.6685,9.6685,9.6685,9.6685,9.6685,9.6685,9.6685,9.6685,9.6685,9.6685,9.6685,9.6685,9.6685,9.6685,9.6685,9.6685,9.6685,8.4294,8.6994,8.9397,9.1371,9.3162,9.4801,9.6272,9.6809,9.7427,9.8894,9.8604,9.8324,9.9121,9.8283,9.7642,9.8166,9.7681,9.7285,9.7318,9.6982,9.6685,9.6685,9.6685,9.6685,9.6685,9.7126,9.7346,9.7199,9.7309,9.7346,9.7199,9.6869,9.6685,9.6685,9.6685,9.6685,9.6685,9.6685,9.6685,9.6685,9.6685,9.6942,9.7419,9.6906,9.6685,9.6685,9.6685,9.6685,9.6685,9.6685,9.6685,9.6685,9.6685,9.6685,9.6685,9.6685,9.6685,9.6685,9.6685,9.6685,9.6685,9.6685,9.6685,9.6685,9.6685,9.6685,9.6685,9.6685,9.6685,9.6685,9.6685,9.6685,9.6685,9.6685,9.6685,9.6685,9.6685,9.6685,9.6685,9.6685,9.6685,9.6685,9.6685,9.6685,9.6685,9.6685,9.6685,9.6685,9.6685,9.6685,9.6685,9.6685,9.6685,9.6685,9.6685,9.6685,9.6685,9.6685,9.6685,9.6685,9.6685,9.6685,9.6685,9.6685,9.6685,9.6685,9.6685,9.6685,9.6685,9.6685,9.6685,9.6685,8.7727,9.0239,9.2561,9.532,9.6281,9.6741,9.7492,9.8627,9.9593,9.9443,9.9064,9.9046,10.0089,9.8717,9.7972,9.972,9.8392,9.7355,9.7787,9.7273,9.6795,9.6722,9.6685,9.6685,9.6685,9.6759,9.7089,9.775,9.7163,9.7089,9.775,9.7089,9.6685,9.6685,9.6685,9.6685,9.6685,9.6685,9.6685,9.6685,9.6685,9.6685,9.6685,9.6685,9.6685,9.6685,9.6685,9.6685,9.6685,9.6685,9.6685,9.6685,9.6685,9.6685,9.6685,9.6685,9.6685,9.6685,9.6685,9.6685,9.6685,9.6685,9.6685,9.6685,9.6685,9.6685,9.6685,9.6685,9.6685,9.6685,9.6685,9.6685,9.6685,9.6685,9.6685,9.6685,9.6685,9.6685,9.6685,9.6685,9.6685,9.6685,9.6685,9.6685,9.6685,9.6685,9.6685,9.6685,9.6685,9.6685,9.6685,9.6685,9.6685,9.6685,9.6685,9.6685,9.6685,9.6685,9.6685,9.6685,9.6685,9.6685,9.6685,9.6685,9.6685,9.6685,9.6685,9.6685,9.6685,9.6685,9.6685,9.6685,8.6878,9.058,9.3813,9.5297,9.6658,9.7665,9.7756,9.8105,9.8354,9.8207,9.9117,9.9901,9.9856,9.9673,9.9601,9.976,9.9124,9.8488,9.797,9.775,9.7419,9.6795,9.6685,9.6685,9.6685,9.7273,9.7456,9.6979,9.7383,9.7419,9.6979,9.6795,9.6685,9.6685,9.6685,9.6685,9.6685,9.6685,9.6685,9.6685,9.6685,9.6685,9.6685,9.6685,9.6685,9.6685,9.6685,9.6685,9.6685,9.6685,9.6685,9.6685,9.6685,9.6685,9.6685,9.6685,9.6685,9.6685,9.6685,9.6685,9.6685,9.6685,9.6685,9.6685,9.6685,9.6685,9.6685,9.6685,9.6685,9.6685,9.6685,9.6685,9.6685,9.6685,9.6685,9.6685,9.6685,9.6685,9.6685,9.6685,9.6685,9.6685,9.6685,9.6685,9.6685,9.6685,9.6685,9.6685,9.6685,9.6685,9.6685,9.6685,9.6685,9.6685,9.6685,9.6685,9.6685,9.6685,9.6685,9.6685,9.6685,9.6685,9.6685,9.6685,9.6685,9.6685,9.6685,9.6685,9.6685,9.6685,9.6685,9.6685,8.7298,9.0889,9.3758,9.5929,9.7112,9.778,9.7607,9.7607,9.778,9.8046,9.8983,9.9825,9.9934,9.9935,10.013,10.0567,9.9526,9.8521,9.8484,9.7823,9.7163,9.6759,9.6685,9.6685,9.6685,9.7089,9.7163,9.6722,9.7089,9.7126,9.6722,9.6685,9.6685,9.6685,9.6685,9.6685,9.6685,9.6685,9.6685,9.6685,9.6685,9.6685,9.6685,9.6685,9.6685,9.6685,9.6685,9.6685,9.6685,9.6685,9.6685,9.6685,9.6685,9.6685,9.6685,9.6685,9.6685,9.6685,9.6685,9.6685,9.6685,9.6685,9.6685,9.6685,9.6685,9.6685,9.6685,9.6685,9.6685,9.6685,9.6685,9.6685,9.6685,9.6685,9.6685,9.6685,9.6685,9.6685,9.6685,9.6685,9.6685,9.6685,9.6685,9.6685,9.6685,9.6685,9.6685,9.6685,9.6685,9.6685,9.6685,9.6685,9.6685,9.6685,9.6685,9.6685,9.6685,9.6685,9.6685,9.6685,9.6685,9.6685,9.6685,9.6685,9.6685,9.6685,9.6685,9.6685,9.6685,9.6685,9.6685,9.6685,8.7673,9.0905,9.3554,9.6801,9.7467,9.7284,9.7211,9.7211,9.7433,9.8245,9.8905,9.9485,10.0089,10.0204,10.0383,10.1628,9.9774,9.8484,9.9035,9.7823,9.6869,9.6722,9.6685,9.6685,9.6685,9.6685,9.6685,9.6685,9.6685,9.6685,9.6685,9.6685,9.6685,9.6685,9.6685,9.6685,9.6685,9.6685,9.6685,9.6685,9.6685,9.6685,9.6685,9.6685,9.6685,9.6685,9.6685,9.6685,9.6685,9.6685,9.6685,9.6685,9.6685,9.6685,9.6685,9.6685,9.6685,9.6685,9.6685,9.6685,9.6685,9.6685,9.6685,9.6685,9.6685,9.6685,9.6685,9.6685,9.6685,9.6685,9.6685,9.6685,9.6685,9.6685,9.6685,9.6685,9.6685,9.6685,9.6685,9.6685,9.6685,9.6685,9.6685,9.6685,9.6685,9.6685,9.6685,9.6685,9.6685,9.6685,9.6685,9.6685,9.6685,9.6685,9.6685,9.6685,9.6685,9.6685,9.6685,9.6685,9.6685,9.6685,9.6685,9.6685,9.6685,9.6685,9.6685,9.6685,9.6685,9.6685,9.6685,9.6685,8.5758,9.0324,9.4926,9.7469,9.7429,9.6838,9.6762,9.6762,9.7019,9.779,9.8871,9.9834,10.042,10.1117,10.1476,10.1501,10.0686,9.9769,9.9181,9.83,9.7456,9.6795,9.6685,9.6685,9.6685,9.6685,9.6685,9.6685,9.6685,9.6685,9.6685,9.6685,9.6685,9.6685,9.6685,9.6685,9.6685,9.6685,9.6685,9.6685,9.6685,9.6685,9.6685,9.6685,9.6685,9.6685,9.6685,9.6685,9.6685,9.6685,9.6685,9.6685,9.6685,9.6685,9.6685,9.6685,9.6685,9.6685,9.6685,9.6685,9.6685,9.6685,9.6685,9.6685,9.6685,9.6685,9.6685,9.6685,9.6685,9.6685,9.6685,9.6685,9.6685,9.6685,9.6685,9.6685,9.6685,9.6685,9.6685,9.6685,9.6685,9.6685,9.6685,9.6685,9.6685,9.6685,9.6685,9.6685,9.6685,9.6685,9.6685,9.6685,9.6685,9.6685,9.6685,9.6685,9.6685,9.6685,9.6685,9.6685,9.6685,9.6685,9.6685,9.6685,9.6685,9.6685,9.6685,9.6685,9.6685,9.6685,9.6685,9.6685,8.5772,9.0478,9.4375,9.6764,9.7019,9.6685,9.6685,9.7052,9.7603,9.8411,9.9338,10.0078,10.0404,10.1139,10.1574,10.1457,10.0393,9.9512,9.9145,9.8007,9.7273,9.7346,9.6979,9.6869,9.7309,9.6942,9.6685,9.6685,9.6685,9.6685,9.6685,9.6685,9.6685,9.6685,9.6685,9.6685,9.6685,9.6685,9.6685,9.6685,9.6685,9.6942,9.7346,9.7346,9.7126,9.6685,9.6685,9.6685,9.6722,9.7199,9.7346,9.7419,9.786,9.8043,9.8007,9.753,9.7346,9.7309,9.6869,9.6685,9.6685,9.6685,9.6685,9.6685,9.6685,9.6685,9.6685,9.6685,9.6685,9.6685,9.6685,9.6685,9.6685,9.6685,9.6685,9.6685,9.6685,9.6685,9.6685,9.6685,9.6685,9.6685,9.6685,9.6685,9.6685,9.6685,9.6685,9.6685,9.6685,9.6685,9.6685,9.6685,9.6685,9.6685,9.6685,9.6685,9.6685,9.6685,9.6685,9.6685,9.6685,9.6685,9.6685,9.6685,9.6685,9.6685,9.6685,9.6685,9.6685,9.6685,9.6685,9.6685,8.5453,8.9528,9.2427,9.485,9.5768,9.6135,9.6355,9.7016,9.786,9.8888,9.9585,10.0099,10.0503,10.109,10.1494,10.1494,10.0099,9.9108,9.9108,9.7897,9.7236,9.7823,9.7346,9.7236,9.7823,9.7163,9.6685,9.6685,9.6685,9.6685,9.6685,9.6685,9.6685,9.6685,9.6685,9.6685,9.6685,9.6685,9.6685,9.6685,9.6906,9.7309,9.7897,9.8117,9.786,9.7309,9.7309,9.7309,9.7346,9.797,9.819,9.8264,9.8888,9.9108,9.9035,9.8411,9.819,9.808,9.7273,9.7016,9.6979,9.6759,9.6685,9.6685,9.6685,9.6685,9.6685,9.6685,9.6685,9.6759,9.6942,9.7016,9.7052,9.7273,9.7309,9.7199,9.6795,9.6685,9.6685,9.6685,9.6685,9.6685,9.6685,9.6685,9.6685,9.6685,9.6685,9.6685,9.6685,9.6685,9.6685,9.6685,9.6685,9.6685,9.6685,9.6685,9.6685,9.6685,9.6685,9.6685,9.6685,9.6685,9.6685,9.6685,9.6685,9.6685,9.6685,9.6685,9.6685,9.6685,9.6685,9.6685,8.4058,8.6591,8.9014,9.1436,9.3235,9.463,9.5401,9.6171,9.7199,9.8778,9.9145,9.9622,10.12,10.1494,10.1494,10.1494,10.0099,9.9108,9.9108,9.8374,9.7823,9.7897,9.786,9.7823,9.7897,9.7163,9.6685,9.6685,9.6685,9.6685,9.6685,9.6685,9.6685,9.6685,9.6685,9.6685,9.6685,9.6685,9.6685,9.6722,9.7456,9.786,9.7933,9.8704,9.9035,9.8998,9.8998,9.8998,9.8998,9.9035,9.9035,9.9035,9.9071,9.9108,9.9108,9.9071,9.9035,9.8924,9.8117,9.7823,9.7713,9.6942,9.6685,9.6685,9.6685,9.6685,9.6685,9.6685,9.6685,9.6869,9.764,9.7823,9.8007,9.8814,9.8998,9.8557,9.7016,9.6685,9.6685,9.6685,9.6685,9.6685,9.6685,9.6685,9.6685,9.6685,9.6685,9.6685,9.6685,9.6685,9.6685,9.6685,9.6685,9.6685,9.6685,9.6685,9.6685,9.6685,9.6685,9.6685,9.6685,9.6685,9.6685,9.6685,9.6685,9.6685,9.6685,9.6685,9.6685,9.6685,9.6685,9.6685,8.303,8.4829,8.6738,9.0188,9.2281,9.3749,9.4556,9.6539,9.8411,9.8998,9.9916,10.0796,10.1384,10.1494,10.1494,10.1494,10.0576,9.9879,9.9879,9.9181,9.8851,9.9365,9.8521,9.808,9.8631,9.7493,9.6685,9.6685,9.6685,9.6685,9.6685,9.6685,9.6685,9.6685,9.6685,9.6685,9.6685,9.7199,9.7456,9.7456,9.83,9.8924,9.9438,9.9732,10.0209,10.0613,10.0613,10.0099,9.9145,9.9659,9.9879,9.9916,10.0393,10.0613,10.0576,10.0099,9.9879,9.9695,9.8337,9.7897,9.775,9.6942,9.7052,9.7456,9.7456,9.7823,9.8264,9.8264,9.8264,9.83,9.8594,9.8668,9.8631,9.8374,9.8337,9.8043,9.6942,9.6685,9.6685,9.6685,9.6685,9.6685,9.6685,9.6685,9.6685,9.6685,9.6685,9.6685,9.6685,9.6685,9.6685,9.6685,9.6685,9.6685,9.6685,9.6685,9.6685,9.6685,9.6685,9.6685,9.6685,9.7203,9.7239,9.6722,9.7239,9.7239,9.6685,9.6685,9.6685,9.6685,9.6685,9.6942,8.1599,8.3177,8.4976,8.8206,9.0225,9.1803,9.3161,9.5547,9.764,9.819,9.9585,10.0796,10.098,10.1274,10.1494,10.1494,10.0796,10.0283,10.0283,9.9842,9.9695,10.0209,9.9365,9.8924,9.9438,9.83,9.753,9.753,9.7273,9.7089,9.7089,9.7089,9.7236,9.7493,9.7236,9.7089,9.7089,9.764,9.7897,9.7897,9.8998,9.9769,10.0283,10.0576,10.098,10.1494,10.1494,10.0907,9.9952,10.0503,10.0686,10.0796,10.1274,10.1494,10.1384,10.0907,10.0686,10.0503,9.8851,9.8484,9.8521,9.7456,9.764,9.83,9.83,9.8668,9.9108,9.9108,9.9108,9.9181,9.9438,9.9695,9.9769,9.9218,9.8704,9.8154,9.764,9.7089,9.6685,9.6685,9.6685,9.6685,9.6685,9.6685,9.6685,9.6685,9.6685,9.6685,9.6685,9.6685,9.6685,9.6685,9.6685,9.6685,9.6685,9.6685,9.6685,9.6685,9.6685,9.6795,9.7129,9.7607,9.779,9.7525,9.8011,9.8051,9.7497,9.7239,9.7239,9.7497,9.7239,9.7236,0.0,0.0,0.0,8.5306,8.6958,8.8793,9.1143,9.3051,9.474,9.6355,9.797,9.9365,10.0209,10.098,10.1494,10.1494,10.0796,10.0319,10.0319,10.0319,10.0319,10.0319,10.0283,10.0283,10.0283,9.9585,9.9108,9.9108,9.8337,9.7897,9.7897,9.7897,9.8264,9.9071,9.8337,9.7933,9.7933,9.7933,9.797,9.797,9.9585,10.0319,10.0393,10.109,10.1494,10.1494,10.1494,10.1494,10.1494,10.1494,10.1494,10.1494,10.1494,10.1494,10.1494,10.1494,10.1494,10.1274,9.9695,9.9659,9.9989,9.8447,9.8484,9.9145,9.9145,9.9145,9.9181,9.9181,9.9181,9.9365,10.0099,10.0907,10.1494,10.1384,10.0209,9.9071,9.9035,9.7787,9.6685,9.6685,9.6685,9.6685,9.6685,9.6685,9.6685,9.6685,9.6685,9.6685,9.6685,9.6685,9.6685,9.6685,9.6685,9.6685,9.6685,9.6685,9.6685,9.6685,9.6722,9.7129,9.7904,9.7978,9.8337,9.9126,9.9113,9.9121,9.9084,9.8309,9.8309,9.9011,9.8235,9.7489,8.0351,0.0,0.0,0.0,0.0,0.0,8.8904,9.184,9.474,9.6355,9.797,9.9512,10.0907,10.131,10.1494,10.1494,10.1274,10.12,10.12,10.12,10.12,10.12,10.0686,10.0283,10.0283,9.9585,9.9108,9.9108,9.8337,9.7897,9.7897,9.7897,9.8264,9.9071,9.8888,9.8778,9.8778,9.9328,9.9622,9.9659,10.0686,10.12,10.12,10.1384,10.1494,10.1494,10.1494,10.1494,10.1494,10.1494,10.1494,10.1494,10.1494,10.1494,10.1494,10.1494,10.1494,10.1384,10.0319,10.0099,10.0099,9.9108,9.9328,9.9989,9.9989,10.0393,10.0796,10.0796,10.0796,10.0907,10.109,10.0907,10.0503,9.9916,9.8961,9.808,9.7493,9.7016,9.6685,9.6685,9.6685,9.6685,9.6685,9.6685,9.6685,9.6685,9.6685,9.6685,9.6685,9.6685,9.6685,9.6685,9.6685,9.6685,9.6685,9.6685,9.6685,9.6685,9.7276,9.7644,9.7904,9.8998,9.9426,9.9126,9.9689,9.9989,9.9989,9.9176,9.8583,9.8211,9.797,9.7419,8.0755,8.1269,8.1819,8.3104,0.0,0.0,8.7802,9.0555,9.3418,9.5731,9.775,9.9402,10.0319,10.0796,10.0907,10.0576,10.0796,10.109,10.1494,10.1494,10.1494,10.1494,10.109,10.0796,10.0796,10.0393,10.0099,10.0099,9.9035,9.8411,9.8411,9.8411,9.8924,10.0099,9.9769,9.9622,9.9622,10.0099,10.0283,10.0283,10.109,10.1494,10.1494,10.1494,10.1494,10.1494,10.1494,10.1494,10.1494,10.1494,10.1494,10.1494,10.1494,10.1494,10.1494,10.1494,10.1494,10.1384,10.0576,10.0503,10.0686,9.9879,10.0099,10.0796,10.0796,10.109,10.1494,10.1494,10.1274,10.098,10.098,10.0393,9.9695,9.9218,9.8484,9.775,9.7309,9.7199,9.7089,9.6759,9.6685,9.6685,9.6685,9.6685,9.6685,9.6685,9.6685,9.6685,9.6685,9.6685,9.6685,9.6685,9.6685,9.6685,9.6685,9.6685,9.6685,9.6685,9.746,9.8048,9.8411,9.9653,10.0086,9.9566,10.0423,10.0606,10.0269,9.9456,9.8687,9.7923,9.7937,9.746,8.1269,8.1709,8.237,8.3104,8.3398,0.0,8.7142,8.9124,9.1253,9.4446,9.6869,9.8521,9.8778,9.9438,9.9695,9.9071,9.9659,10.0393,10.1274,10.1384,10.1494,10.1494,10.1494,10.1494,10.1494,10.1494,10.1494,10.1494,9.9989,9.9071,9.8961,9.9071,9.9805,10.1274,10.0796,10.0393,10.0393,10.0393,10.0393,10.0393,10.12,10.1494,10.1494,10.1494,10.1494,10.1494,10.1494,10.1494,10.1494,10.1494,10.1494,10.1494,10.1494,10.1494,10.1494,10.1494,10.1494,10.1384,10.0686,10.0907,10.1384,10.0686,10.0907,10.1494,10.1494,10.1494,10.1494,10.1384,10.0796,10.0209,10.0283,9.9695,9.9145,9.9218,9.8631,9.8007,9.8007,9.8007,9.7823,9.7126,9.6979,9.6942,9.6832,9.6832,9.6795,9.6722,9.6685,9.6685,9.6685,9.6685,9.6685,9.6685,9.6685,9.6685,9.6685,9.6685,9.6722,9.6832,9.757,9.8374,9.9199,10.0012,10.0423,10.0269,10.0973,10.0973,10.0269,9.9499,9.8736,9.8014,9.7941,9.7533,8.2957,8.259,8.2223,8.237,8.3398,0.0,8.5159,8.7068,8.9417,9.1987,9.3455,9.485,9.6832,9.7309,9.7566,9.8043,9.8814,9.9622,10.0393,10.109,10.1494,10.1494,10.1494,10.1494,10.1494,10.1494,10.1494,10.1494,9.9989,9.8814,9.8154,9.8741,9.9548,10.0503,10.098,10.1274,10.1274,10.1274,10.1274,10.1274,10.1384,10.1494,10.1494,10.1494,10.1494,10.1494,10.1494,10.1494,10.1494,10.1494,10.1494,10.1494,10.1494,10.1494,10.1494,10.1494,10.1494,10.1494,10.1274,10.1384,10.1494,10.1274,10.1384,10.1494,10.1494,10.1494,10.1384,10.0686,9.9952,9.9475,10.0099,9.9695,9.9255,9.9916,9.9438,9.8888,9.8888,9.8888,9.8814,9.8668,9.8631,9.8447,9.7787,9.7676,9.7456,9.6795,9.6685,9.6685,9.6685,9.6685,9.6685,9.6685,9.6685,9.6685,9.6685,9.6685,9.6942,9.7607,9.8459,9.9264,9.9976,10.079,10.0973,10.0269,10.0533,10.0533,10.0269,9.948,9.9048,9.8827,9.8198,9.8161,8.4242,8.3691,8.3398,8.3398,0.0,0.0,0.0,8.6444,8.828,9.0702,9.2207,9.3455,9.4666,9.4887,9.5034,9.5437,9.6539,9.7603,9.8374,10.0209,10.1494,10.1494,10.1494,10.1494,10.1494,10.1494,10.12,10.0393,9.9548,9.8741,9.7933,9.8668,9.9475,10.0283,10.109,10.1494,10.1494,10.1494,10.1494,10.1494,10.1494,10.1494,10.1494,10.1494,10.1494,10.1494,10.1494,10.1494,10.1494,10.1494,10.1494,10.1494,10.1494,10.1494,10.1494,10.1494,10.1494,10.1494,10.1494,10.1494,10.1494,10.1494,10.1494,10.1494,10.1494,10.12,10.0907,10.0907,9.9989,9.9292,10.0099,9.9695,9.9218,9.9622,9.9402,9.9108,9.9108,9.9438,9.9695,9.9695,9.9989,9.9769,9.8154,9.7897,9.764,9.6832,9.6685,9.6685,9.6685,9.6685,9.6685,9.6685,9.7093,9.7313,9.7313,9.7644,9.8051,9.8496,9.9264,9.9879,10.0269,10.1127,10.1317,10.0924,10.0503,10.0086,9.9756,9.9286,9.8893,9.8532,9.8088,9.7904,8.571,8.4939,8.4646,0.0,0.0,8.3985,0.0,0.0,0.0,8.9454,9.0996,9.2024,9.2354,9.2391,9.2464,9.2611,9.4006,9.5327,9.6135,9.8741,10.0686,10.098,10.1274,10.1384,10.1274,10.109,10.0503,9.9218,9.8961,9.8594,9.7933,9.8814,9.9622,10.0283,10.109,10.1494,10.1494,10.1494,10.1494,10.1494,10.1494,10.1494,10.1494,10.1494,10.1494,10.1494,10.1494,10.1494,10.1494,10.1494,10.1494,10.1494,10.1494,10.1494,10.1494,10.1494,10.1494,10.1494,10.1494,10.1494,10.1494,10.1494,10.1494,10.1494,10.1494,10.0907,10.0393,10.109,10.0209,9.9292,10.0099,9.9805,9.9365,9.9548,9.9548,9.9548,9.9548,10.0099,10.0503,10.0503,10.109,10.0796,9.8704,9.8337,9.808,9.7273,9.7163,9.7163,9.7163,9.7163,9.7163,9.7163,9.7754,9.8161,9.8084,9.8753,9.9158,9.9342,9.9952,10.0423,10.0533,10.0973,10.1323,10.1526,10.0619,9.9866,9.9346,9.9206,9.8662,9.7904,9.7904,9.7607,8.8023,8.6224,8.4756,8.549,8.5049,8.4499,8.4682,0.0,8.538,8.7068,0.0,8.8133,8.9564,0.0,0.0,9.0776,9.2281,9.3639,9.4446,9.6098,9.7787,9.9218,10.0613,10.12,10.0503,9.9805,9.9292,9.9108,9.8447,9.8007,9.7897,9.9328,10.0209,10.0283,10.109,10.1494,10.1494,10.1494,10.1494,10.1494,10.1494,10.1494,10.1494,10.1494,10.1494,10.1494,10.1494,10.1494,10.1494,10.1494,10.1494,10.1494,10.1494,10.1494,10.1494,10.1494,10.1494,10.1494,10.1494,10.1494,10.1494,10.1494,10.1494,10.1494,10.1494,10.0907,10.0319,10.0393,9.9805,9.9292,10.0099,10.0209,10.0319,10.109,10.12,10.12,10.12,10.1274,10.1384,10.1384,10.1384,10.12,10.0209,9.9989,9.9769,9.8961,9.8851,9.8851,9.8851,9.8851,9.8851,9.8851,9.8929,9.8966,9.8961,9.9044,9.9375,10.0093,10.0239,10.0606,10.131,10.079,10.0753,10.1501,9.9976,9.9529,10.0196,9.9444,9.8639,9.7904,9.7904,9.8198,8.9381,8.85,8.7949,8.7325,8.6591,8.5747,8.4829,0.0,8.4792,0.0,0.0,0.0,0.0,0.0,0.0,0.0,9.0188,9.1253,9.206,9.3565,9.5401,9.7456,9.83,9.8778,9.8888,9.9035,9.9108,9.9108,9.8337,9.808,9.8557,9.9695,10.0283,10.0283,10.109,10.1494,10.1494,10.1494,10.1494,10.1494,10.1494,10.1494,10.1494,10.1494,10.1494,10.1494,10.1494,10.1494,10.1494,10.1494,10.1494,10.1494,10.1494,10.1494,10.1494,10.1494,10.1494,10.1494,10.1494,10.1494,10.1494,10.1494,10.1494,10.1494,10.1494,10.0907,10.0393,10.0907,10.0393,9.9989,10.0796,10.098,10.109,10.1384,10.1494,10.1494,10.1494,10.1494,10.1494,10.1494,10.1494,10.1384,10.109,10.0613,9.9989,9.9218,9.9108,9.9108,9.9108,9.9108,9.9108,9.9108,9.9517,9.9774,9.9811,10.0178,10.0619,10.1017,10.0973,10.1127,10.1494,10.0716,10.0533,10.079,9.9639,9.906,9.8888,9.8566,9.7978,9.7239,9.7644,9.7867,9.1363,9.0849,9.0555,8.894,8.7582,8.6371,0.0,0.0,0.0,0.0,8.6371,0.0,0.0,0.0,0.0,0.0,0.0,8.9564,8.9895,9.1179,9.3015,9.5437,9.6098,9.6685,9.7493,9.7713,9.808,9.8741,9.8043,9.8117,9.9365,10.0209,10.0613,10.0613,10.12,10.1494,10.1494,10.1494,10.1494,10.1494,10.1494,10.1494,10.1494,10.1494,10.1494,10.1494,10.1494,10.1494,10.1494,10.1494,10.1494,10.1494,10.1494,10.1494,10.1494,10.1494,10.1494,10.1494,10.1494,10.1494,10.1494,10.1494,10.1494,10.1494,10.1494,10.109,10.0796,10.131,10.109,10.0796,10.131,10.1494,10.1494,10.1494,10.1494,10.1494,10.1494,10.1494,10.1494,10.1494,10.1494,10.1494,10.1494,10.098,10.0393,9.9842,9.9769,9.9769,9.9769,9.9769,9.9769,9.9769,10.0325,10.0582,10.0582,10.1244,10.1494,10.1494,10.1494,10.1494,10.1494,10.0863,10.0459,10.0283,9.9506,9.8741,9.7904,9.7644,9.7276,9.6722,9.7313,9.7276,9.4593,9.2978,9.1363,8.9784,8.7582,8.582,0.0,0.0,8.5049,0.0,0.0,0.0,0.0,0.0,0.0,0.0,0.0,0.0,0.0,8.9014,9.0445,9.2941,9.4593,9.5878,9.6649,9.5327,9.5401,9.775,9.7199,9.7787,10.0099,10.098,10.1494,10.1494,10.1494,10.1494,10.1494,10.1494,10.1494,10.1494,10.1494,10.1494,10.1494,10.1494,10.1494,10.1494,10.1494,10.1494,10.1494,10.1494,10.1494,10.1494,10.1494,10.1494,10.1494,10.1494,10.1494,10.1494,10.1494,10.1494,10.1494,10.1494,10.1494,10.1494,10.1494,10.1494,10.1494,10.1494,10.1494,10.1494,10.1494,10.1494,10.1494,10.1494,10.1494,10.1494,10.1494,10.1494,10.1494,10.1494,10.1494,10.1494,10.1494,10.1494,10.1494,10.1384,10.1384,10.1384,10.1384,10.1384,10.1384,10.1384,10.1384,10.1494,10.1494,10.1494,10.1494,10.1494,10.1494,10.1494,10.1494,10.1494,10.1139,10.0306,9.9529,9.8716,9.7904,9.7166,9.6722,9.6685,9.6722,9.6722,0.0,0.0,9.452,9.2391,9.0812,8.9344,8.7729,8.7178,0.0,0.0,0.0,0.0,0.0,0.0,0.0,0.0,0.0,0.0,0.0,8.8096,8.894,8.9748,9.2281,9.4042,9.4299,9.4777,9.5841,9.775,9.764,9.8557,10.098,10.1384,10.1494,10.1494,10.1494,10.1494,10.1494,10.1494,10.1494,10.1494,10.1494,10.1494,10.1494,10.1494,10.1494,10.1494,10.1494,10.1494,10.1494,10.1494,10.1494,10.1494,10.1494,10.1494,10.1494,10.1494,10.1494,10.1494,10.1494,10.1494,10.1494,10.1494,10.1494,10.1494,10.1494,10.1494,10.1494,10.1494,10.1494,10.1494,10.1494,10.1494,10.1494,10.1494,10.1494,10.1494,10.1494,10.1494,10.1494,10.1494,10.1494,10.1494,10.1494,10.1494,10.1494,10.1494,10.1494,10.1494,10.1494,10.1494,10.1494,10.1494,10.1494,10.1494,10.1494,10.1494,10.1494,10.1494,10.1494,10.1494,10.1494,10.0973,10.065,10.0325,9.9526,9.8716,9.7904,9.7607,9.7239,9.6685,9.6685,9.6685,9.8851,9.819,0.0,9.4997,9.3529,0.0,9.0372,8.9931,9.0188,9.0996,0.0,0.0,0.0,0.0,0.0,0.0,0.0,0.0,0.0,8.7472,8.7876,8.8169,9.0592,9.2317,9.2611,9.3565,9.5217,9.7713,9.764,9.8631,10.1384,10.1494,10.1494,10.1494,10.1494,10.1494,10.1494,10.1494,10.1494,10.1494,10.1494,10.1494,10.1494,10.1494,10.1494,10.1494,10.1494,10.1494,10.1494,10.1494,10.1494,10.1494,10.1494,10.1494,10.1494,10.1494,10.1494,10.1494,10.1494,10.1494,10.1494,10.1494,10.1494,10.1494,10.1494,10.1494,10.1494,10.1494,10.1494,10.1494,10.1494,10.1494,10.1494,10.1494,10.1494,10.1494,10.1494,10.1494,10.1494,10.1494,10.1494,10.1494,10.1494,10.1494,10.1494,10.1494,10.1494,10.1494,10.1494,10.1494,10.1494,10.1494,10.1494,10.1494,10.1494,10.1494,10.1494,10.1494,10.1494,10.1494,10.1494,10.0973,10.0606,10.0269,9.9811,9.9113,9.8337,9.8345,9.8051,9.7533,9.7533,9.7386]},{"header":{"parameterUnit":"m.s-1","parameterCategory":1,"la1":30.6,"la2":29.2853,"lo1":-89.7004,"lo2":-87.6739,"dx":0.0162,"dy":0.0183,"nx":112,"ny":82,"refTime":"2022-11-15T18:00:00:Z","depth":0,"parameterNumber":3,"parameterNumberName":"V-component_of_WINDS"},"data":[0.0,0.0,0.0,0.0,0.0,0.0,0.0,0.0,0.0,0.0,0.0,0.0,0.0,0.0,0.0,0.0,0.0,0.0,0.0,0.0,0.0,0.0,0.0,0.0,0.0,0.0,0.0,0.0,0.0,0.0,0.0,0.0,0.0,0.0,0.0,0.0,0.0,0.0,0.0,0.0,0.0,0.0,0.0,0.0,0.0,0.0,0.0,0.0,0.0,0.0,0.0,0.0,0.0,0.0,0.0,0.0,0.0,0.0,0.0,0.0,0.0,0.0,0.0,0.0,0.0,0.0,0.0,0.0,0.0,0.0,0.0,0.0,0.0,0.0,0.0,0.0,0.0,0.0,0.0,0.0,0.0,0.0,0.0,0.0,0.0,0.0,0.0,0.0,0.0,0.0,0.3891,0.5639,0.839,1.0346,1.1089,1.0961,1.067,0.9937,0.0,0.0,0.0,0.0,0.0,0.0,0.0,0.0,0.0,0.0,0.0,0.0,0.0,0.0,0.0,0.0,0.0,0.0,0.0,0.0,0.0,0.0,0.0,0.0,0.0,0.0,0.0,0.0,0.0,0.0,0.0,0.0,0.0,0.0,0.0,0.0,0.0,0.0,0.0,0.0,0.0,0.0,0.0,0.0,0.0,0.0,0.0,0.0,0.0,0.0,0.0,0.0,0.0,0.0,0.0,0.0,0.0,0.0,0.0,0.0,0.0,0.0,0.0,0.0,0.0,0.0,0.0,0.0,0.0,0.0,0.0,0.0,0.0,0.0,0.0,0.0,0.0,0.0,0.0,0.0,0.0,0.0,0.0,0.0,0.0,0.0,0.0,0.0,0.0,0.0,0.0,0.0,0.0,0.0,0.0,0.0,0.0,0.0,0.0,0.0,0.0,0.0,0.0,0.0,0.4897,0.8107,0.953,1.0631,1.1663,1.1389,1.0867,1.0249,0.0,0.0,0.0,0.0,0.0,0.0,0.0,0.0,0.0,0.0,0.0,0.0,0.0,0.0,0.0,0.0,0.0,0.0,0.0,0.0,0.0,0.0,0.0,0.0,0.0,0.0,0.0,0.0,0.0,0.0,0.0,0.0,0.0,0.0,0.0,0.0,0.0,0.0,0.0,0.0,0.0,0.0,0.0,0.0,0.0,0.0,0.0,0.0,0.0,0.0,0.0,0.0,0.0,0.0,0.0,0.0,0.0,0.0,0.0,0.0,0.0,0.0,0.0,0.0,0.0,0.0,0.0,0.0,0.0,0.0,0.0,0.0,0.0,0.0,0.0,0.0,0.0,0.0,0.0,0.0,0.0,0.0,0.0,0.0,0.0,0.0,0.0,0.0,0.0,0.0,0.0,0.0,0.0,0.0,0.0,0.0,0.0,0.0,0.0,0.0,0.0,0.0,0.0,0.4975,0.6758,0.9387,1.0644,1.1594,1.2059,1.1782,1.1199,1.0439,0.9483,0.0,0.0,0.0,0.0,0.0,0.0,0.0,0.0,0.0,0.0,0.0,0.0,0.0,0.0,0.0,0.0,0.0,0.0,0.0,0.0,0.0,0.0,0.0,0.0,0.0,0.0,0.0,0.0,0.0,0.0,0.0,0.0,0.0,0.0,0.0,0.0,0.0,0.0,0.0,0.0,0.0,0.0,0.0,0.0,0.0,0.0,0.0,0.0,0.0,0.0,0.0,0.0,0.0,0.0,0.0,0.0,0.0,0.0,0.0,0.0,0.0,0.0,0.0,0.0,0.0,0.0,0.0,0.0,0.0,0.0,0.0,0.0,0.0,0.0,0.0,0.0,0.0,0.0,0.0,0.0,0.0,0.0,0.0,0.0,0.0,0.0,0.0,0.0,0.0,0.0,0.0,0.0,0.0,0.0,0.0,0.0,0.0,0.0,0.0,0.0,0.0,0.0,0.6811,0.845,1.0169,1.1427,1.2253,1.2569,1.2142,1.1518,1.0656,0.9754,0.0,0.0,0.0,0.0,0.0,0.0,0.0,0.0,0.0,0.0,0.0,0.0,0.0,0.0,0.0,0.0,0.0,0.0,0.0,0.0,0.0,0.0,0.0,0.0,0.0,0.0,0.0,0.0,0.0,0.0,0.0,0.0,0.0,0.0,0.0,0.0,0.0,0.0,0.0,0.0,0.0,0.0,0.0,0.0,0.0,0.0,0.0,0.0,0.0,0.0,0.0,0.0,0.0,0.0,0.0,0.0,0.0,0.0,0.0,0.0,0.0,0.0,0.0,0.0,0.0,0.0,0.0,0.0,0.0,0.0,0.0,0.0,0.0,0.0,0.0,0.0,0.0,0.0,0.0,0.0,0.0,0.0,0.0,0.0,0.0,0.0,0.0,0.0,0.0,0.0,0.0,0.0,0.0,0.0,0.0,0.0,0.0,0.0,0.0,0.0,0.0,0.0,0.7625,0.933,1.1252,1.1892,1.2403,1.2725,1.2305,1.1721,1.0962,1.0073,0.0,0.0,0.0,0.0,0.0,0.0,0.0,0.0,0.0,0.0,0.0,0.0,0.0,0.0,0.0,0.0,0.0,0.0,0.0,0.0,0.0,0.0,0.0,0.0,0.0,0.0,0.0,0.0,0.0,0.0,0.0,0.0,0.0,0.0,0.0,0.0,0.0,0.0,0.0,0.0,0.0,0.0,0.0,0.0,0.0,0.0,0.0,0.0,0.0,0.0,0.0,0.0,0.0,0.0,0.0,0.0,0.0,0.0,0.0,0.0,0.0,0.0,0.0,0.0,0.0,0.0,0.0,0.0,0.0,0.0,0.0,0.0,0.0,0.0,0.0,0.0,0.0,0.0,0.0,0.0,0.0,0.0,0.0,0.0,0.0,0.0,0.0,0.0,0.0,0.0,0.0,0.0,0.0,0.0,0.0,0.0,0.0,0.0,0.0,0.0,0.0,0.0,0.8846,1.033,1.1993,1.2573,1.2903,1.301,1.2515,1.1884,1.1131,0.0,0.0,0.0,0.0,0.0,0.0,0.0,0.0,0.0,0.0,0.0,0.0,0.0,0.0,0.0,0.0,0.0,0.0,0.0,0.0,0.0,0.0,0.0,0.0,0.0,0.0,0.0,0.0,0.0,0.0,0.0,0.0,0.0,0.0,0.0,0.0,0.0,0.0,0.0,0.0,0.0,0.0,0.0,0.0,0.0,0.0,0.0,0.0,0.0,0.0,0.0,0.0,0.0,0.0,0.0,0.0,0.0,0.0,0.0,0.0,0.0,0.0,0.0,0.0,0.0,0.0,0.0,0.0,0.0,0.0,0.0,0.0,0.0,0.0,0.0,0.0,0.0,0.0,0.0,0.0,0.0,0.0,0.0,0.0,0.0,0.0,0.0,0.0,0.0,0.0,0.0,0.0,0.0,0.0,0.0,0.0,0.0,0.0,0.0,0.0,0.0,0.0,0.8163,0.9601,1.1148,1.2638,1.305,1.3227,1.3173,1.2671,1.2033,1.128,0.0,0.0,0.0,0.0,0.0,0.0,0.0,0.0,0.0,0.0,0.0,0.0,0.0,0.0,0.0,0.0,0.0,0.0,0.0,0.0,0.0,0.0,0.0,0.0,0.0,0.0,0.0,0.0,0.0,0.0,0.0,0.0,0.0,0.0,0.0,0.0,0.0,0.0,0.0,0.0,0.0,0.0,0.0,0.0,0.0,0.0,0.0,0.0,0.0,0.0,0.0,0.0,0.0,0.0,0.0,0.0,0.0,0.0,0.0,0.0,0.0,0.0,0.0,0.0,0.0,0.0,0.0,0.0,0.0,0.0,0.0,0.0,0.0,0.0,0.0,0.0,0.0,0.0,0.0,0.0,0.0,0.0,0.0,0.0,0.0,0.0,0.0,0.0,0.0,0.0,0.0,0.0,0.0,0.0,0.0,0.0,0.0,0.0,0.0,0.0,0.0,0.0,0.8729,1.0133,1.1574,1.2983,1.3315,1.3342,1.3193,1.2766,1.2189,0.0,0.0,0.0,0.0,0.0,0.0,0.0,0.0,0.0,0.0,0.0,0.0,0.0,0.0,0.0,0.0,0.0,0.0,0.0,0.0,0.0,0.0,0.0,0.0,0.0,0.0,0.0,0.0,0.0,0.0,0.0,0.0,0.0,0.0,0.0,0.0,0.0,0.0,0.0,0.0,0.0,0.0,0.0,0.0,0.0,0.0,0.0,0.0,0.0,0.0,0.0,0.0,0.0,0.0,0.0,0.0,0.0,0.0,0.0,0.0,0.0,0.0,0.0,0.0,0.0,0.0,0.0,0.0,0.0,0.0,0.0,0.0,0.0,0.0,0.0,0.0,0.0,0.0,0.0,0.0,0.0,0.0,0.0,0.0,0.0,0.0,0.0,0.0,0.0,0.0,0.0,0.0,0.0,0.0,0.0,0.0,0.0,0.0,0.0,0.0,0.0,0.0,0.0,0.953,1.1164,1.2507,1.3464,1.3627,1.3654,1.3505,1.3085,1.2461,1.1606,0.0,0.0,0.0,0.0,0.0,0.0,0.0,0.0,0.0,0.0,0.0,0.0,0.0,0.0,0.0,0.0,0.0,0.0,0.0,0.0,0.0,0.0,0.0,0.0,0.0,0.0,0.0,0.0,0.0,0.0,0.0,0.0,0.0,0.0,0.0,0.0,0.0,0.0,0.0,0.0,0.0,0.0,0.0,0.0,0.0,0.0,0.0,0.0,0.0,0.0,0.0,0.0,0.0,0.0,0.0,0.0,0.0,0.0,0.0,0.0,0.0,0.0,0.0,0.0,0.0,0.0,0.0,0.0,0.0,0.0,0.0,0.0,0.0,0.0,0.0,0.0,0.0,0.0,0.0,0.0,0.0,0.0,0.0,0.0,0.0,0.0,0.0,0.0,0.0,0.0,0.0,0.0,0.0,0.0,0.0,0.0,0.0,0.0,0.0,0.0,0.0,0.0,1.0078,1.1591,1.2795,1.3593,1.3756,1.3783,1.3641,1.322,1.263,1.1843,0.0,0.0,0.0,0.0,0.0,0.0,0.0,0.0,0.0,0.0,0.0,0.0,0.0,0.0,0.0,0.0,0.0,0.0,0.0,0.0,0.0,0.0,0.0,0.0,0.0,0.0,0.0,0.0,0.0,0.0,0.0,0.0,0.0,0.0,0.0,0.0,0.0,0.0,0.0,0.0,0.0,0.0,0.0,0.0,0.0,0.0,0.0,0.0,0.0,0.0,0.0,0.0,0.0,0.0,0.0,0.0,0.0,0.0,0.0,0.0,0.0,0.0,0.0,0.0,0.0,0.0,0.0,0.0,0.0,0.0,0.0,0.0,0.0,0.0,0.0,0.0,0.0,0.0,0.0,0.0,0.0,0.0,0.0,0.0,0.0,0.0,0.0,0.0,0.0,0.0,0.0,0.0,0.0,0.0,0.0,0.0,0.0,0.0,0.0,0.0,0.0,0.0,1.055,1.1778,1.2992,1.3654,1.3817,1.3844,1.3702,1.3295,1.2773,1.2142,0.0,0.0,0.0,0.0,0.0,0.0,0.0,0.0,0.0,0.0,0.0,0.0,0.0,0.0,0.0,0.0,0.0,0.0,0.0,0.0,0.0,0.0,0.0,0.0,0.0,0.0,0.0,0.0,0.0,0.0,0.0,0.0,0.0,0.0,0.0,0.0,0.0,0.0,0.0,0.0,0.0,0.0,0.0,0.0,0.0,0.0,0.0,0.0,0.0,0.0,0.0,0.0,0.0,0.0,0.0,0.0,0.0,0.0,0.0,0.0,0.6205,0.6047,0.0,0.0,0.0,0.0,0.0,0.0,0.0,0.0,0.0,0.0,0.0,0.0,0.0,0.0,0.0,0.0,0.0,0.0,0.0,0.0,0.0,0.0,0.0,0.0,0.0,0.0,0.0,0.0,0.0,0.0,0.0,0.0,0.0,0.0,0.0,0.0,0.0,0.0,0.0,0.0,1.125,1.2463,1.3392,1.4095,1.4285,1.4312,1.417,1.3844,1.3295,1.2461,1.1619,0.0,0.0,0.0,0.0,0.0,0.0,0.0,0.0,0.0,0.0,0.0,0.0,0.0,0.0,0.0,0.0,0.0,0.0,0.0,0.0,0.0,0.0,0.0,0.0,0.0,0.0,0.0,0.0,0.0,0.0,0.0,0.0,0.0,0.0,0.0,0.0,0.0,0.0,0.0,0.0,0.0,0.0,0.0,0.0,0.0,0.0,0.0,0.0,0.0,0.0,0.0,0.0,0.0,0.0,0.0,0.0,0.0,0.0,0.0,0.8122,0.774,0.0,0.0,0.0,0.0,0.0,0.0,0.0,0.0,0.0,0.0,0.0,0.0,0.0,0.0,0.0,0.0,0.0,0.0,0.0,0.0,0.0,0.0,0.0,0.0,0.0,0.0,0.0,0.0,0.0,0.0,0.0,0.0,0.0,0.0,0.0,0.0,0.0,0.0,0.0,0.0,1.1755,1.2856,1.379,1.4251,1.4489,1.4536,1.4319,1.4089,1.3627,1.2874,1.2121,0.0,0.0,0.0,0.0,0.0,0.0,0.0,0.0,0.0,0.0,0.0,0.0,0.0,0.0,0.0,0.0,0.0,0.0,0.0,0.0,0.0,0.0,0.0,0.0,0.0,0.0,0.0,0.0,0.0,0.0,0.0,0.0,0.0,0.0,0.0,0.0,0.0,0.0,0.0,0.0,0.0,0.0,0.0,0.0,0.0,0.0,0.0,0.0,0.0,0.0,0.0,0.0,0.0,0.7795,0.8683,0.9492,1.0059,1.0625,1.1283,1.0119,0.9456,0.9307,0.9419,0.0,0.0,0.0,0.0,0.0,0.0,0.0,0.0,0.0,0.0,0.0,0.0,0.0,0.0,0.0,0.0,0.0,0.0,0.0,0.0,0.0,0.0,0.8303,0.9071,0.9619,0.9938,0.9145,0.0,0.0,0.0,0.0,0.0,0.0,0.0,0.0,0.0,0.0,0.0,1.2379,1.3322,1.4055,1.4414,1.4699,1.4746,1.4475,1.4292,1.3939,1.337,1.2657,1.1999,0.0,0.0,0.0,0.0,0.0,0.0,0.0,0.0,0.0,0.0,0.0,0.0,0.0,0.0,0.0,0.0,0.0,0.0,0.0,0.0,0.0,0.0,0.0,0.0,0.0,0.0,0.0,0.0,0.0,0.0,0.0,0.0,0.1836,0.2715,0.0,0.0,0.0,0.0,0.0,0.0,0.0,0.0,0.0,0.0,0.0,0.0,0.0,0.5297,0.5683,0.6737,0.7684,0.8652,0.9461,1.0308,1.1031,1.1801,1.2359,1.2379,1.2675,0.0,1.1429,1.1114,0.0,0.0,0.0,0.0,0.0,0.0,0.0,0.0,0.0,0.0,0.0,0.0,0.0,0.0,0.0,0.0,0.0,0.0,0.0,0.0,0.0,0.0,1.0433,1.134,1.1549,1.1682,1.1868,1.0914,1.0163,1.025,1.0215,1.0053,0.0,0.0,0.0,0.0,0.0,0.0,1.3105,1.3831,1.4455,1.5004,1.5221,1.5255,1.5079,1.4814,1.4448,1.3987,1.337,1.2813,1.2345,1.1735,0.0,0.0,0.0,0.0,0.0,0.0,0.0,0.0,0.0,0.0,0.0,0.0,0.0,0.0,0.0,0.0,0.0,0.0,0.0,0.0,0.0,0.0,0.0,0.0,0.0,0.0,0.0,0.0,0.0,0.1983,0.2674,0.358,0.3687,0.3665,0.0,0.0,0.0,0.0,0.0,0.0,0.0,0.0,0.0,0.608,0.6717,0.7534,0.8398,0.8997,0.9965,1.0844,1.1445,1.2092,1.2618,1.327,1.3459,1.3224,1.3709,1.3464,1.2908,1.2277,1.1687,1.1118,0.0,0.0,0.0,0.0,1.0062,1.0598,1.0822,1.1133,1.1444,1.1377,0.0,0.0,0.0,0.0,0.0,0.0,0.0,0.9971,1.0792,1.1262,1.1654,1.2503,1.2562,1.2722,1.2881,1.238,1.1911,1.1484,1.1118,1.0833,1.0595,1.0568,0.0,0.0,0.0,1.2684,1.3539,1.4251,1.4808,1.5147,1.5398,1.5445,1.5201,1.5065,1.476,1.4231,1.3871,1.3478,1.3024,1.2433,1.1775,0.0,0.0,0.0,0.0,0.0,0.0,0.0,0.0,0.0,0.0,0.0,0.0,0.0,0.0,0.0,0.0,0.0,0.0,0.0,0.0,0.0,0.0,0.0,0.0,0.0,0.0,0.0,0.0,0.2733,0.3595,0.4392,0.476,0.4983,0.0,0.0,0.0,0.0,0.0,0.0,0.5981,0.6664,0.7421,0.8412,0.891,0.9672,1.0732,1.1197,1.1813,1.2759,1.3075,1.3475,1.396,1.4116,1.4122,1.4021,1.4177,1.4156,1.3946,1.3125,1.2617,1.2284,1.1653,1.1443,1.1477,1.1253,1.1531,1.2054,1.2311,1.2596,1.2861,1.2976,1.2813,1.2528,1.2305,0.0,0.0,0.0,0.0,1.1702,1.239,1.2721,1.2814,1.3397,1.3464,1.3464,1.3464,1.3519,1.3342,1.2556,1.2101,1.1762,1.1511,1.1518,0.0,1.2026,1.2678,1.3356,1.3987,1.4665,1.514,1.5282,1.5574,1.5628,1.5323,1.5262,1.5025,1.4502,1.4292,1.4021,1.3648,1.3125,1.2549,1.1918,0.0,0.0,0.0,0.0,0.0,0.0,0.0,0.0,0.0,0.0,0.0,0.0,0.0,0.0,0.0,0.0,0.0,0.0,0.0,0.0,0.0,0.0,0.0,0.0,0.0,0.0,0.0,0.0,0.0,0.5331,0.5942,0.0,0.0,0.0,0.0,0.6783,0.7386,0.7814,0.8214,0.9111,0.9856,1.0154,1.1121,1.1657,1.1934,1.2675,1.3268,1.3552,1.3941,1.4129,1.4285,1.4428,1.4482,1.4489,1.4638,1.4618,1.4428,1.3824,1.339,1.3085,1.2766,1.2556,1.2433,1.242,1.2698,1.3119,1.3275,1.3526,1.3777,1.3783,1.3587,1.3342,1.3329,1.301,0.0,0.0,1.3091,1.3207,1.3668,1.3892,1.4048,1.4204,1.4245,1.4245,1.4245,1.4136,1.3899,1.3424,1.32,1.3037,1.2888,0.0,1.28,1.3241,1.3471,1.3865,1.4597,1.5099,1.5445,1.5601,1.5879,1.594,1.5642,1.5486,1.5269,1.4957,1.4652,1.4421,1.4258,1.3946,1.3424,1.2684,1.2216,0.0,0.0,0.0,0.0,0.0,0.0,0.0,0.0,0.0,0.0,0.0,0.0,0.0,0.0,0.0,0.0,0.0,0.0,0.0,0.0,0.0,0.0,0.0,0.0,0.0,0.0,0.0,0.0,0.714,0.7235,0.0,0.8096,0.8663,0.8925,0.9013,0.9519,0.9998,1.0405,1.0857,1.1409,1.227,1.2761,1.3098,1.3642,1.4037,1.4296,1.4223,1.435,1.4529,1.459,1.474,1.4753,1.4665,1.4821,1.4801,1.4638,1.4434,1.4109,1.3729,1.3526,1.341,1.3349,1.3261,1.3451,1.3763,1.3817,1.3966,1.415,1.4245,1.4333,1.4373,1.4177,1.4,1.3899,1.4,1.4034,1.4095,1.4353,1.4387,1.4367,1.4421,1.4509,1.4584,1.4584,1.4692,1.474,1.4577,1.4034,1.3587,1.3539,1.3566,1.3648,1.381,1.4122,1.4509,1.4964,1.5337,1.5615,1.5757,1.5961,1.5961,1.5662,1.5588,1.5391,1.4997,1.4869,1.4692,1.4448,1.415,1.3777,1.3315,1.2868,1.2196,0.0,0.0,0.0,0.0,0.0,0.0,0.0,0.0,0.0,0.0,0.0,0.0,0.0,0.0,0.0,0.0,0.0,0.0,0.0,0.0,0.0,0.0,0.0,0.0,0.0,0.584,0.7278,0.8527,0.8716,0.92,0.9926,1.0469,1.0791,1.0837,1.1353,1.1795,1.227,1.2399,1.2922,1.3683,1.3833,1.4183,1.4733,1.4794,1.4869,1.4964,1.4916,1.4889,1.4896,1.5052,1.5065,1.4977,1.5126,1.5079,1.4896,1.4943,1.4699,1.4285,1.4129,1.4068,1.4055,1.396,1.4082,1.4299,1.4299,1.4367,1.4475,1.4618,1.4835,1.5011,1.4862,1.4814,1.4814,1.4814,1.478,1.4774,1.493,1.4889,1.4828,1.4882,1.497,1.5045,1.5045,1.5194,1.5337,1.5337,1.4774,1.4292,1.4292,1.438,1.4448,1.4448,1.474,1.5038,1.5235,1.5527,1.575,1.5845,1.5988,1.5981,1.573,1.5622,1.5438,1.514,1.5072,1.493,1.4679,1.4428,1.4136,1.3783,1.3241,1.2569,1.1769,0.0,0.0,0.0,0.0,0.0,0.0,0.0,0.0,0.0,0.0,0.0,0.0,0.0,0.0,0.0,0.0,0.0,0.0,0.0,0.0,0.0,0.0,0.0,0.6764,0.8135,0.9345,0.9524,1.0386,1.1219,1.1845,1.2099,1.2315,1.2276,1.2923,1.3236,1.3378,1.4062,1.4387,1.4523,1.4679,1.4896,1.5187,1.5059,1.5133,1.5418,1.5269,1.5194,1.5201,1.535,1.5418,1.5425,1.5574,1.5472,1.5208,1.5357,1.516,1.4746,1.4584,1.4523,1.4516,1.4516,1.4618,1.4746,1.4753,1.476,1.4787,1.4936,1.5079,1.5221,1.5371,1.5418,1.5425,1.5425,1.5323,1.5242,1.5391,1.5432,1.5459,1.5608,1.5649,1.5655,1.5655,1.5655,1.5662,1.5662,1.5418,1.5208,1.5201,1.5194,1.5194,1.5194,1.5323,0.0,1.5425,1.5676,1.5852,1.5852,1.5988,1.6015,1.5859,1.5581,1.5418,1.5418,1.5276,1.5133,1.4984,1.4828,1.4536,1.4089,1.3363,1.2698,1.2108,0.0,0.0,0.0,0.0,0.0,0.0,0.0,0.0,0.0,0.0,0.0,0.0,0.0,0.0,0.0,0.0,0.0,0.0,0.0,0.0,0.0,0.7921,0.9303,0.7918,0.8636,0.9718,1.0784,1.1611,1.226,1.2739,1.3265,1.3561,1.3601,1.4008,1.4169,1.4209,1.4645,1.4808,1.4841,1.5092,1.5269,1.535,1.5418,1.5499,1.5574,1.5533,1.5513,1.5513,1.5554,1.5574,1.5581,1.5622,1.5594,1.5513,1.556,1.5438,1.5201,1.4943,1.4774,1.4679,1.4679,1.4774,1.4923,1.5025,1.5133,1.5235,1.5276,1.5391,1.552,1.556,1.5649,1.573,1.573,1.5784,1.5845,1.5886,1.5818,1.5744,1.5784,1.5879,1.5961,1.5961,1.6049,1.6123,1.6123,1.5967,1.5764,1.5547,1.5513,1.5513,1.5513,1.5547,1.5615,1.5716,1.5805,1.5852,1.5852,1.5893,1.5859,1.571,1.5622,1.5574,1.5574,1.554,1.5398,1.5133,1.4984,1.4692,1.4245,1.3817,1.3464,0.0,0.0,0.0,0.0,0.0,0.0,0.0,0.0,0.0,0.0,0.0,0.0,0.0,0.0,0.0,0.0,0.0,0.0,0.0,0.0,0.0,0.0,0.9703,1.1166,1.018,1.0297,1.0947,1.2035,1.2696,1.3178,1.3674,1.3995,1.4285,1.4346,1.457,1.4706,1.4706,1.4991,1.5153,1.5153,1.5384,1.5533,1.5594,1.575,1.5859,1.592,1.592,1.592,1.592,1.5852,1.5825,1.5825,1.5825,1.5791,1.573,1.573,1.5642,1.5486,0.0,0.0,0.0,0.0,1.5174,1.5262,1.5343,1.5432,1.5506,1.5506,1.5608,1.573,1.573,1.5879,1.6042,1.6042,1.6151,1.6266,1.6266,1.6198,1.613,1.613,1.6157,1.6178,1.6178,1.6198,1.6218,1.6218,1.6144,0.0,1.594,1.5866,1.5805,1.5737,1.5839,1.5927,1.5947,1.6056,1.613,1.613,1.613,1.6076,1.5934,1.5859,0.0,0.0,0.0,1.5594,1.5289,1.514,0.0,0.0,0.0,0.0,0.0,0.0,0.0,0.0,1.1321,1.0724,0.0,0.0,0.0,0.0,0.0,0.0,0.0,0.0,0.0,0.0,0.0,0.0,0.0,0.0,0.0,0.0,1.1601,1.2765,1.265,1.2489,1.2589,1.3172,1.3854,1.4183,1.4333,1.4462,1.4604,1.4753,1.4909,1.5004,1.5018,1.5303,0.0,0.0,0.0,1.575,1.5879,1.6015,1.6151,1.6286,1.6286,1.6286,1.6279,1.6144,1.6083,1.6083,1.6083,1.6015,1.5906,1.5886,1.5805,1.5676,1.5499,1.5438,1.5452,1.5608,1.5662,1.5669,1.5683,0.0,0.0,1.5689,1.5778,1.5879,1.59,1.6103,1.6341,1.6354,1.6449,1.6544,1.6544,1.6524,1.6497,1.6497,1.6402,1.6307,1.6307,1.6218,1.613,1.613,1.613,1.6178,1.6307,1.6205,1.6069,1.5947,1.6157,1.6286,1.6151,1.6361,1.6517,1.6497,1.6497,0.0,1.632,1.6185,1.6056,1.5934,1.59,1.575,1.5472,1.5316,1.5174,1.5052,1.4909,1.4841,1.4841,1.4706,1.4631,1.4584,1.2772,1.1993,0.0,0.0,0.0,0.0,0.0,0.0,0.0,0.0,0.0,0.0,0.0,0.0,0.0,0.0,0.0,1.2708,1.3125,1.3184,1.3432,1.3702,1.3974,1.4028,1.434,1.4489,1.4638,1.4679,1.476,1.4916,1.5059,1.5194,1.5316,1.5608,1.5771,1.5771,1.5913,1.6008,1.6035,1.6069,1.6096,1.6123,1.6123,0.0,1.6123,1.6096,1.6083,1.6083,1.6083,1.6137,1.6212,1.609,1.6022,1.5967,1.5696,1.5594,1.5615,1.5757,1.5811,1.5832,1.5954,1.5995,1.5995,1.5995,1.6015,1.6062,1.6185,1.6341,0.0,1.6632,1.6686,1.6707,1.6707,1.653,1.6347,1.6347,1.6327,1.6307,1.6307,1.6374,1.6435,1.6435,1.6435,1.6442,1.6476,1.6361,1.6293,1.6381,1.6442,1.6469,1.6442,1.6483,1.6476,1.6361,1.6347,1.6341,1.6313,1.6286,1.63,1.6388,1.6171,1.6151,1.6363,1.5822,1.554,1.5513,1.5479,1.5466,1.5466,1.5432,1.5357,1.5221,1.3944,1.3616,0.0,0.0,0.0,0.0,0.0,0.0,0.0,0.0,0.0,0.0,0.0,1.1305,1.0969,0.0,1.2781,1.3909,1.3885,1.3826,1.411,1.4403,1.4604,1.4529,1.4652,1.4801,1.495,1.5031,1.514,1.5296,1.5438,1.5554,1.5628,1.5845,1.5967,1.5967,1.6042,1.6083,1.6083,1.6157,1.6198,1.6198,1.6198,1.6198,1.6191,1.6117,1.6083,1.6083,1.6083,1.6123,1.6191,1.611,1.6083,1.6069,1.592,1.5859,1.5872,1.594,1.5967,1.5981,1.6056,1.6083,1.6083,1.6083,1.6083,1.6096,1.6171,1.63,1.6429,1.651,1.6578,1.6632,1.6632,1.6585,1.653,1.653,1.653,1.653,1.653,1.6524,1.6524,1.6524,1.6524,1.6544,1.6625,1.6578,1.653,1.6524,1.6585,1.6632,1.6632,1.67,1.6727,1.6653,1.6646,1.679,1.6842,1.6752,1.6773,1.6925,1.6522,1.6357,1.6878,1.6138,1.6055,1.6244,1.6055,1.5859,1.5859,1.5859,1.5825,1.5737,1.5043,1.4825,0.0,0.0,0.0,0.0,0.0,0.0,0.0,1.126,1.1735,1.2033,1.2427,1.2675,1.2389,1.3105,1.3695,1.4235,1.4448,1.4448,1.4618,1.4855,1.4991,1.4923,1.4997,1.5113,1.5255,1.5384,1.552,1.5669,1.5784,1.5866,1.5893,1.6015,1.6083,1.6083,1.6083,1.6083,1.6083,1.6205,1.6266,1.6266,1.6266,1.6266,1.6259,1.6137,1.6083,1.6083,1.611,1.611,1.6083,1.611,1.611,1.6083,1.6083,1.6083,1.6083,1.6083,1.6083,1.6083,1.6083,1.6083,1.6083,1.6083,1.6083,1.609,1.6117,1.6232,1.6354,1.6388,1.6476,1.6564,1.6564,1.6632,1.6707,1.6707,1.6707,1.6707,1.6707,1.6632,1.6564,1.6769,1.679,1.6852,1.6975,1.7003,1.6748,1.6632,1.6714,1.7003,1.7003,1.7106,1.7398,1.7398,1.7398,1.7294,1.7455,1.7516,1.7473,1.7545,1.7024,1.6926,1.7264,1.6743,1.6474,1.6864,1.6474,1.6282,1.6282,1.6282,1.646,1.6432,1.5823,1.5589,1.0778,1.0867,1.1036,1.1341,1.1552,1.1755,0.0,1.2345,1.2664,1.2963,1.3281,1.3553,1.3559,1.4,1.4217,1.4632,1.4695,1.4787,1.5065,1.5133,1.5255,1.5506,1.5432,1.5418,1.5574,1.5601,1.5676,1.5818,1.5845,1.5913,1.6049,1.6076,1.6083,1.6083,1.6083,1.6083,1.6083,1.6096,1.611,1.611,1.611,1.611,1.6103,1.609,1.6083,1.609,1.6225,1.6205,1.609,1.6232,1.6205,1.6083,1.6083,1.6083,1.6083,1.6083,1.6083,1.6083,1.6083,1.6083,1.6083,1.6083,1.6083,1.6103,1.6246,1.6381,1.6524,1.6659,1.6714,1.672,1.672,1.6632,1.6544,1.6544,1.6544,1.6544,1.6544,1.6639,1.6927,1.7341,1.7661,1.7761,1.7573,1.7573,1.7573,1.6931,1.7356,1.7573,1.7573,1.8006,1.8432,1.8432,1.8432,1.8417,1.838,1.8358,1.8447,1.8798,1.8345,1.8,1.8298,1.7275,1.6871,1.6864,1.6864,1.6871,1.6871,1.7268,1.7393,1.7245,1.6433,1.5886,1.1572,1.1708,1.1891,1.2189,1.2508,1.2779,1.2908,1.3166,1.3464,1.3763,1.3994,1.419,1.4155,1.4289,1.4771,1.5237,1.5053,1.5072,1.5289,1.5466,1.5622,1.575,1.5784,1.5791,1.5764,1.5845,1.592,1.5981,1.5988,1.6015,1.6076,1.6083,1.6083,1.6083,1.6083,1.6083,1.6083,1.6083,1.6083,1.6083,1.6083,1.6083,1.6083,1.6178,1.6259,1.6341,1.6402,1.6395,1.6341,1.6408,1.6395,1.6334,1.6334,1.6334,1.632,1.6144,1.6083,1.6083,1.6083,1.6083,1.6096,1.6185,1.6218,1.6239,1.6388,1.6476,1.6537,1.6598,1.6619,1.6619,1.6619,1.6632,1.6653,1.6653,1.672,1.6788,1.7197,1.7044,1.7092,1.7711,1.7559,1.7398,1.7398,1.7398,1.7398,1.7398,1.7398,1.7398,1.7398,1.7608,1.7811,1.8013,1.8559,1.8915,1.8915,1.8915,1.906,1.9135,1.8511,1.8443,1.8909,1.7903,1.7606,1.8006,1.7518,1.7268,1.6864,1.707,1.7084,1.6715,1.6921,1.7006,1.2203,1.2386,1.2603,1.2901,1.3281,1.3587,1.3587,1.381,1.4089,1.4312,1.4475,1.4423,1.4531,1.4618,1.5087,1.5582,1.5382,1.5377,1.5567,1.5744,1.5886,1.5967,1.6042,1.6035,1.5927,1.6015,1.6083,1.6083,1.6083,1.6083,1.6083,1.6083,1.6083,1.6083,1.6083,1.6083,1.6083,1.6123,1.6144,1.6144,1.6185,1.6205,1.6205,1.632,1.6429,1.6728,1.6728,1.6932,1.6932,1.6932,1.6932,1.6932,1.6932,1.6932,1.6905,1.6682,1.6405,1.6205,1.6205,1.6205,1.6218,1.6334,1.6368,1.6388,1.6694,1.6756,1.679,1.6995,1.7023,1.7058,1.6852,1.6934,1.7016,1.6815,1.6897,1.7188,1.7398,1.7188,1.7188,1.7811,1.7811,1.7398,1.7608,1.7608,1.7818,1.802,1.7601,1.7398,1.7608,1.8027,1.823,1.8649,1.9576,1.9911,1.9911,1.9911,1.9894,1.9846,1.9434,1.9212,1.9569,1.8706,1.8374,1.8784,1.8267,1.7799,1.7399,1.7599,1.7457,1.7177,1.7805,1.8075,1.2671,1.2922,1.322,1.3526,1.3831,1.4048,1.4048,1.4278,1.4496,1.4502,1.4624,1.4733,1.4929,1.4977,1.5174,1.5556,1.5622,1.573,1.6022,1.594,1.5961,1.6259,1.6171,1.6083,1.6076,1.6076,1.6083,1.6083,1.6083,1.6083,1.6083,1.6083,1.6083,1.6083,1.6083,1.6083,1.6083,1.6232,1.63,1.6307,1.6442,1.651,1.651,1.651,1.6728,1.7348,1.7348,1.7756,1.8157,1.8157,1.8157,1.8157,1.8157,1.8157,1.8157,1.8142,1.753,1.651,1.651,1.651,1.651,1.651,1.6517,1.6517,1.7144,1.7448,1.7768,1.8189,1.8507,1.8417,1.8006,1.7804,1.7594,1.7181,1.6978,1.6978,1.6978,1.6978,1.7398,1.8432,1.8641,1.8641,1.9284,1.9493,1.9276,1.8641,1.8641,1.885,1.9284,2.032,2.1154,2.1154,2.1561,2.1968,2.1968,2.1968,2.1898,2.1713,2.1088,2.0798,2.0612,1.9573,1.8955,1.8955,1.8948,1.8948,1.8948,1.9354,1.9565,1.9573,1.9362,1.9167,1.2867,1.2958,1.3186,1.3578,1.3998,1.4356,1.4457,1.4557,1.4678,1.4679,1.4686,1.4839,1.4839,1.5006,1.5337,1.5526,1.5669,1.5967,1.6069,1.6123,1.6157,1.6157,1.611,1.6083,1.6083,1.6083,1.6083,1.6083,1.6083,1.6083,1.6083,1.6083,1.613,1.6232,1.6232,1.6279,1.6374,1.6422,1.6449,1.6449,1.6912,1.7398,1.7703,1.7703,1.7967,1.827,1.827,1.827,1.8477,1.8477,1.8477,1.8477,1.8069,1.7862,1.7862,1.7446,1.7245,1.7003,1.7412,1.7545,1.7559,1.7667,1.7703,1.7725,1.7626,1.769,1.7732,1.7531,1.7566,1.7601,1.7811,1.7811,1.7811,1.802,1.8013,1.823,1.8656,1.8439,1.823,1.9067,1.8948,1.8813,1.9024,1.9122,1.9402,1.9607,1.8993,1.8641,1.885,1.9903,2.0529,2.0529,2.1769,2.2392,2.1977,2.2392,2.2365,2.1889,2.1682,2.1647,2.1586,2.1046,2.0782,2.0782,2.0248,1.9987,1.9378,1.9589,1.9449,1.8724,1.766,1.7298,1.3369,1.348,1.3702,1.4036,1.4454,1.4812,1.4912,1.4979,1.5066,1.5056,1.4937,1.4986,1.4798,1.5073,1.535,1.5404,1.5744,1.6035,1.6151,1.6198,1.6212,1.6171,1.6117,1.6083,1.6083,1.6083,1.6083,1.6083,1.6083,1.6083,1.6083,1.6137,1.6205,1.6307,1.6361,1.6429,1.6517,1.6578,1.6632,1.6886,1.7305,1.7775,1.8284,1.8284,1.8336,1.8641,1.885,1.9059,1.9268,1.9268,1.9268,1.9268,1.8858,1.8649,1.8649,1.823,1.8237,1.8208,1.779,1.7924,1.8144,1.8255,1.8284,1.8514,1.841,1.8439,1.8439,1.823,1.8237,1.823,1.8439,1.8439,1.8439,1.8641,1.8641,1.8641,1.9067,1.8903,1.8941,1.9579,1.9507,1.941,1.9623,1.9715,1.9999,2.0213,1.9804,1.943,1.9579,2.0619,2.143,2.1778,2.3014,2.3841,2.3832,2.4038,2.4038,2.3832,2.3625,2.3418,2.3211,2.2885,2.2409,2.2007,2.1669,2.0995,2.0372,2.0176,1.9616,1.8892,1.8033,1.7876,1.4217,1.455,1.4814,1.497,1.5215,1.5425,1.5432,1.5547,1.5649,1.5649,1.5404,1.5187,1.5174,1.5174,1.5228,1.5377,1.5662,1.5967,1.6259,1.6178,1.6144,1.6279,1.6171,1.6083,1.6083,1.6083,1.6083,1.609,1.6096,1.6096,1.6096,1.6239,1.6327,1.6334,1.6463,1.6537,1.6544,1.6686,1.7037,1.7811,1.7811,1.7811,1.802,1.802,1.8222,1.8641,1.9276,1.9903,2.032,2.032,2.032,2.032,2.032,2.032,2.0328,2.0336,2.0336,1.9927,1.7839,1.7615,1.802,1.802,1.8222,1.885,1.9276,1.9493,1.9702,2.0111,2.0111,2.0111,1.9702,1.9493,1.9284,1.8865,1.8656,1.8656,1.8663,1.879,1.9122,1.975,1.989,2.0229,2.088,2.088,2.088,2.088,2.088,2.1029,2.1475,2.2504,2.3481,2.452,2.5532,2.6355,2.6939,2.6939,2.6939,2.6928,2.6508,2.5892,2.5471,2.4853,2.4029,2.3004,2.2788,2.2158,2.1527,2.0903,2.0488,2.0271,2.0304,2.032,1.5265,1.5396,1.5471,1.582,1.5918,1.6008,1.5918,1.5973,1.5993,1.5596,1.5361,1.5093,1.4872,1.4919,1.5194,1.5235,1.5683,1.6049,1.613,1.6205,1.6225,1.6151,1.6103,1.6083,1.6083,1.6083,1.613,1.6246,1.6252,1.6252,1.6252,1.6388,1.6517,1.6632,1.7078,1.7362,1.7481,1.7524,1.7984,1.9075,1.8649,1.885,1.9694,1.9694,1.9694,1.9903,2.0111,2.0529,2.0945,2.0945,2.1154,2.1561,2.1145,2.1021,2.1138,2.0726,2.0588,2.0702,2.0064,1.9899,1.9694,1.9694,1.9694,1.9903,1.9485,1.9493,1.9485,1.9059,1.9059,1.9059,1.9485,1.9493,1.9524,2.007,2.0102,2.0133,2.0261,2.0324,2.0356,2.057,2.0714,2.0883,2.123,2.1246,2.1464,2.19,2.19,2.1791,2.1678,2.2699,2.3731,2.494,2.641,2.7183,2.7198,2.76,2.773,2.7531,2.7316,2.7316,2.7714,2.7101,2.6476,2.584,2.4167,2.3128,2.3128,2.2788,2.195,2.0223,2.0263,2.0288,1.5466,1.5574,1.5842,1.6,1.6041,1.6062,1.6138,1.6055,1.5744,1.5475,1.512,1.4798,1.4698,1.4691,1.495,1.5153,1.5581,1.5934,1.6062,1.6157,1.6178,1.609,1.6083,1.611,1.6178,1.6185,1.6246,1.6388,1.6347,1.6334,1.6402,1.6742,1.7071,1.7162,1.7432,1.7718,1.7811,1.823,1.8858,1.9493,1.9067,1.9276,1.9903,1.9903,1.9903,1.9911,2.02,2.0861,2.128,2.1785,2.2231,2.3062,2.2852,2.3126,2.3428,2.3217,2.3078,2.3168,2.3168,2.3024,2.2642,2.139,2.1188,2.1188,2.0556,2.0556,2.0345,1.9703,1.9703,1.9703,2.0133,2.0133,2.0157,2.0686,2.071,2.0734,2.0832,2.0921,2.0994,2.1075,2.1173,2.1278,2.136,2.1384,2.1612,2.2253,2.2463,2.2831,2.3476,2.4233,2.5204,2.6786,2.8258,2.926,2.9722,2.993,3.0066,2.9912,2.9794,2.9734,2.9723,2.9424,2.8518,2.7432,2.6402,2.5144,2.3651,2.4628,2.3832,2.1682,2.1734,2.1128,1.5398,1.5689,1.5947,1.6076,1.611,1.6103,1.609,1.5852,1.5588,1.5418,1.4916,1.455,1.4685,1.4584,1.4638,1.5106,1.5425,1.5716,1.6035,1.6083,1.6083,1.6083,1.6096,1.6164,1.63,1.6327,1.6598,1.6544,1.6639,1.6625,1.6544,1.7313,1.7811,1.7811,1.7948,1.802,1.823,1.9067,1.9493,1.9702,1.9702,1.971,1.9733,1.9943,1.9958,1.9982,2.0564,2.1263,2.1906,2.2699,2.3612,2.4875,2.551,2.5953,2.6596,2.6596,2.6638,2.669,2.6658,2.6669,2.6256,2.3214,2.2557,2.277,2.213,2.1917,2.1703,2.107,2.0856,2.0856,2.0856,2.0856,2.0856,2.0889,2.0889,2.0897,2.0921,2.1051,2.1205,2.136,2.1384,2.1384,2.1384,2.1384,2.1814,2.2489,2.3128,2.4001,2.5949,2.6438,2.7313,2.921,3.0456,3.1708,3.2709,3.2697,3.2684,3.2853,3.2635,3.229,3.188,3.1438,3.0453,2.8744,2.8767,2.7476,2.4909,2.655,2.6191,2.4067,2.4144,2.3106,1.573,1.6001,1.6239,1.6266,1.6273,1.6239,1.611,1.5852,1.556,1.5282,1.4841,1.4523,1.455,1.4434,1.4523,1.5092,1.5337,1.5594,1.6022,1.6083,1.6083,1.6083,1.6191,1.6279,1.6307,1.6828,1.7165,1.7313,1.7718,1.7916,1.7533,1.8091,1.8604,1.9238,1.9261,1.9485,1.9903,1.9694,1.9694,2.0111,2.0111,2.0611,2.118,2.1601,2.1889,2.2035,2.2282,2.2938,2.3787,2.4451,2.5721,2.7197,2.7838,2.8379,2.9169,2.9169,2.9439,2.9765,2.9348,2.9404,2.9256,2.5689,2.4249,2.3815,2.3408,2.2557,2.1703,2.1489,2.1276,2.0856,2.0856,2.0856,2.0889,2.1043,2.1075,2.1116,2.1254,2.1319,2.1343,2.1384,2.1384,2.1384,2.1384,2.1823,2.2489,2.3574,2.4655,2.6166,2.8339,2.8296,2.8682,3.0361,3.1638,3.2598,3.3015,3.2989,3.3096,3.3279,3.3214,3.3407,3.3831,3.2905,3.2455,3.2455,3.0733,3.0562,3.173,3.0231,2.8476,2.6296,2.7091,2.6283,1.6593,1.6864,1.7127,1.761,1.7372,1.7063,1.6899,1.6307,1.5695,1.5011,1.4529,1.4211,1.4373,1.4217,1.4285,1.4964,1.5194,1.5445,1.59,1.6096,1.6198,1.6198,1.6334,1.6449,1.6939,1.7214,1.7732,1.8091,1.8737,1.8737,1.8106,1.8813,1.9276,1.9493,1.9694,1.9903,1.9903,2.032,2.0529,2.0737,2.1456,2.1969,2.2486,2.3428,2.3943,2.4046,2.4362,2.505,2.5922,2.7,2.8381,2.9697,3.0679,3.1665,3.2203,3.2203,3.2373,3.2579,3.2446,3.2482,3.2097,3.0185,2.8264,2.6448,2.5173,2.4164,2.3154,2.2506,2.1839,2.1425,2.1425,2.1343,2.1303,2.1384,2.1343,2.1278,2.136,2.1384,2.1384,2.1384,2.1384,2.1384,2.1384,2.1823,2.2699,2.3783,2.5515,2.7465,2.9415,3.0477,3.1332,3.2197,3.306,3.3646,3.4137,3.4124,3.4282,3.4359,3.4201,3.4329,3.4549,3.395,3.3652,3.3884,3.2569,3.262,3.4276,3.3408,3.2332,3.1267,3.048,2.8988,1.8051,1.8352,1.8644,1.9386,1.9088,1.8498,1.829,1.715,1.604,1.5167,1.4462,1.4139,1.4211,1.4027,1.4068,1.476,1.4991,1.5255,1.5737,1.6069,1.6273,1.6307,1.6463,1.7023,1.7561,1.7811,1.8314,1.8888,1.954,1.9524,1.9059,1.9485,1.9702,1.9702,2.0111,2.0136,1.9966,2.0795,2.1439,2.169,2.3089,2.3821,2.4079,2.55,2.6064,2.6368,2.6969,2.7502,2.8231,2.9683,3.094,3.2073,3.3354,3.4324,3.4772,3.4772,3.4811,3.4849,3.4785,3.4772,3.4759,3.4031,3.171,2.877,2.7244,2.5779,2.4325,2.3199,2.2279,2.1806,2.1806,2.1701,2.1595,2.1595,2.149,2.1384,2.1384,2.1384,2.1384,2.1384,2.1384,2.1384,2.1612,2.2253,2.3128,2.4437,2.66,2.8759,3.0477,3.241,3.3684,3.3896,3.4332,3.4768,3.5191,3.5191,3.5191,3.5191,3.4977,3.4857,3.4857,3.4409,3.4276,3.4509,3.4042,3.4289,3.5265,3.5112,3.5207,3.516,3.3364,3.1421,2.0544,2.0721,2.0815,2.1225,2.0884,2.0259,1.9907,1.8496,1.715,1.6263,1.5262,1.4583,1.4263,1.3953,1.4,1.4475,1.4679,1.4984,1.5574,1.5913,1.6151,1.6293,1.696,1.7554,1.7569,1.8745,1.9322,1.9703,2.0564,2.0911,2.0119,2.0111,2.032,2.032,2.032,2.0611,2.1416,2.1416,2.2126,2.3354,2.4423,2.5589,2.6855,2.793,2.9034,3.0106,3.0128,3.0482,3.1355,3.207,3.2968,3.4082,3.4746,3.5423,3.5856,3.5856,3.6029,3.6201,3.5949,3.5856,3.5816,3.4893,3.2796,3.0571,2.9227,2.6673,2.4338,2.3683,2.2439,2.1425,2.1425,2.1425,2.1408,2.1408,2.1408,2.1384,2.1384,2.1384,2.1384,2.1384,2.1384,2.1612,2.2034,2.3137,2.4437,2.6176,2.8328,3.0477,3.2197,3.3485,3.4346,3.498,3.5191,3.5191,3.5191,3.5191,3.5191,3.5191,3.5177,3.5151,3.5151,3.5124,3.511,3.511,3.511,3.511,3.5137,3.5137,3.5297,3.5164,3.4977,3.4032,2.2341,2.2589,2.2701,2.3508,2.295,2.1894,2.1685,2.0106,1.8225,1.6766,1.5585,1.4759,1.4496,1.3994,1.3885,1.4428,1.4563,1.478,1.5296,1.5778,1.6337,1.6689,1.7581,1.847,1.9299,2.0224,2.0969,2.1364,2.2126,2.2495,2.2328,2.1802,2.1532,2.1532,2.1635,2.1949,2.2663,2.329,2.4375,2.552,2.7134,2.8311,2.9259,3.0846,3.1749,3.2169,3.2555,3.3124,3.3453,3.4065,3.4811,3.5274,3.5882,3.6361,3.658,3.658,3.654,3.65,3.6366,3.6219,3.6059,3.5723,3.4452,3.2555,3.04,2.7987,2.5808,2.4938,2.3781,2.2599,2.2377,2.185,2.153,2.1408,2.1384,2.1384,2.1384,2.1384,2.1384,2.1384,2.1595,2.205,2.2261,2.3783,2.5515,2.7033,2.9404,3.1557,3.3048,3.4276,3.5245,3.5458,3.5297,3.5191,3.5191,3.5191,3.5191,3.5191,3.5191,3.5191,3.5191,3.5191,3.5191,3.5191,3.5139,3.5219,3.5219,3.5164,3.5296,3.5213,3.5992,3.5936,2.4413,2.4557,2.4728,2.568,2.488,2.3809,2.3365,2.142,1.9202,1.7227,1.6077,1.5084,1.4613,1.4068,1.3899,1.4312,1.4455,1.4665,1.512,1.5856,1.6488,1.6883,1.799,1.9329,2.0256,2.1483,2.2469,2.3399,2.375,2.4375,2.4885,2.4596,2.3887,2.3199,2.3335,2.3861,2.4556,2.5609,2.6731,2.793,2.9607,3.0799,3.1747,3.3197,3.3854,3.4159,3.4798,3.5158,3.5261,3.5895,3.5987,3.5987,3.6547,3.6794,3.6794,3.6727,3.654,3.638,3.638,3.6193,3.5939,3.5939,3.5226,3.3829,3.1893,2.9622,2.7618,2.63,2.4929,2.3781,2.3336,2.2574,2.198,2.1848,2.1823,2.1848,2.1889,2.1914,2.2134,2.2201,2.26,2.3014,2.3506,2.5214,2.7125,2.8425,3.0877,3.2846,3.3825,3.4924,3.5765,3.5765,3.5578,3.5458,3.5458,3.5458,3.5458,3.5458,3.5458,3.5458,3.5458,3.5219,3.5219,3.5219,3.5178,3.5283,3.5752,3.5723,3.5626,3.5706,3.6504,3.6624,2.6749,2.7243,2.7336,2.769,2.6837,2.5548,2.4682,2.2348,1.9983,1.8309,1.6892,1.5712,1.4503,1.4177,1.4068,1.4075,1.4319,1.4665,1.512,1.5959,1.6567,1.6273,1.8406,1.9902,1.967,2.2061,2.4038,2.5106,2.5932,2.7027,2.849,2.869,2.7642,2.5308,2.5087,2.5831,2.712,2.7749,2.8842,3.0413,3.1725,3.2952,3.4324,3.4976,3.5567,3.65,3.65,3.6647,3.6941,3.6941,3.6941,3.6901,3.662,3.65,3.6473,3.6193,3.6086,3.6072,3.6072,3.5885,3.5631,3.5631,3.5006,3.4134,3.3697,3.1522,2.9131,2.7402,2.5471,2.401,2.401,2.3565,2.3128,2.3128,2.3128,2.318,2.3391,2.3435,2.3479,2.3664,2.3994,2.4808,2.6116,2.7746,2.9338,3.1087,3.305,3.4439,3.4815,3.5455,3.6072,3.6072,3.6059,3.6059,3.6059,3.6059,3.6059,3.6059,3.6059,3.6059,3.6059,3.5574,3.5102,3.5102,3.5102,3.5816,3.6815,3.6815,3.6951,3.6991,3.6991,3.5754,2.6967,2.7124,2.7225,2.7318,2.6338,2.5121,2.4038,2.1981,1.9584,1.778,1.6438,1.534,1.4647,1.4238,1.4136,1.434,1.4536,1.497,1.5702,1.6437,1.707,1.7888,2.0158,2.2143,2.3408,2.4661,2.6092,2.7246,2.8027,2.9158,3.0477,3.101,3.0205,2.8289,2.8595,2.9234,2.9958,3.0789,3.1832,3.31,3.3968,3.4669,3.564,3.5838,3.6188,3.6513,3.6727,3.6861,3.6941,3.6727,3.6647,3.662,3.6326,3.6206,3.6206,3.6099,3.5939,3.5765,3.5765,3.5578,3.5338,3.5338,3.5059,3.4768,3.4121,3.2685,3.0604,2.889,2.7642,2.6365,2.5999,2.529,2.479,2.4929,2.487,2.4836,2.5184,2.5076,2.4985,2.5031,2.5548,2.6314,2.7244,2.9043,3.0616,3.1891,3.3639,3.488,3.5217,3.5885,3.6153,3.6353,3.6366,3.6286,3.6086,3.6072,3.6072,3.6072,3.6072,3.6072,3.5829,3.5829,3.5587,3.5102,3.6015,3.6611,3.6869,3.684,3.696,3.6807,3.6874,3.6484,2.6718,2.7134,2.7001,2.6897,2.6005,2.47,2.3147,2.1058,1.9182,1.7301,1.6029,1.5167,1.4529,1.4319,1.4238,1.4654,1.5049,1.5505,1.6256,1.7135,1.8191,1.9776,2.1682,2.3695,2.5634,2.6796,2.7963,2.9178,3.043,3.1391,3.2576,3.3131,3.3032,3.2246,3.1701,3.188,3.2531,3.3137,3.3939,3.4914,3.5363,3.5851,3.6393,3.658,3.6687,3.6687,3.6754,3.6754,0.0,3.6473,3.634,3.6326,3.6139,3.6006,3.5912,3.5912,3.5792,3.5631,3.5631,3.5578,3.5525,3.5525,3.5525,3.5525,3.5098,3.3727,3.2154,3.1175,3.0013,2.9207,2.863,2.8154,2.7618,2.756,2.7715,2.769,2.7618,2.7519,2.7408,2.7489,2.8005,2.8764,2.9734,3.132,3.2662,3.3525,3.4847,3.5653,3.5979,3.6126,3.6299,3.6473,3.6393,3.6313,3.6246,3.634,3.6393,3.6393,3.6393,3.6393,3.6161,3.6393,3.6161,3.5904,3.658,3.6934,3.6934,3.6874,3.6941,3.6941,3.6967,3.6812,0.0,2.687,2.7037,2.6253,2.5457,2.4117,2.2091,2.0268,0.0,1.6537,1.5694,1.5054,1.4496,1.4387,1.4531,1.5227,1.5694,1.6255,1.7128,1.8097,1.9573,2.1725,2.2979,2.4343,2.6246,2.8199,2.9845,3.0904,3.2442,3.369,3.4802,3.5076,3.5462,3.6126,3.4593,3.3927,3.458,3.5028,3.5389,3.5895,3.6321,3.6687,3.6941,3.6901,3.6901,3.6901,3.6607,3.6473,3.6473,3.6179,3.6059,3.6046,3.6046,3.5859,3.5591,3.5591,3.5591,3.5591,3.5591,3.5778,3.6019,3.6032,3.6046,3.6046,3.6086,3.4808,3.3334,3.3584,3.2774,3.1899,3.1899,3.1449,3.1033,3.0998,3.1033,3.0882,3.0666,3.0522,3.06,3.0812,3.1092,3.1904,3.3268,3.4208,3.4926,3.5584,3.6273,3.6794,3.654,3.65,3.65,3.65,3.6246,3.6179,3.6473,3.6754,3.6901,3.6941,3.6941,3.6941,3.6941,3.6941,3.6941,3.6941,3.6941,3.6941,3.6941,3.6941,3.6941,3.6941,3.6941,3.6967,2.4589,0.0,2.5718,2.4777,2.3709,2.2153,0.0,1.8535,1.69,1.583,1.5075,1.4661,1.4367,1.4673,1.4907,1.5362,1.6037,1.68,1.7882,1.938,2.1061,2.2363,2.3908,2.5729,2.7102,2.9169,3.1047,3.2325,3.3625,3.4867,3.5737,3.6029,3.6268,3.6727,3.63,3.6181,3.5983,3.6401,3.6547,3.6626,3.6821,3.6861,3.6941,3.6727,3.6607,3.658,3.6299,3.6179,3.6166,3.6099,3.5939,3.5738,3.5738,3.5551,3.5297,3.5297,3.5297,3.5297,3.5297,3.5351,3.5444,3.5658,3.5738,3.5819,3.6273,3.5976,3.5331,3.495,3.4324,3.3659,3.321,3.2567,3.2337,3.2762,3.2712,3.2439,3.2954,3.2888,3.2573,3.2407,3.2636,3.3139,3.3846,3.4516,3.505,3.5922,3.642,3.658,3.6513,3.65,3.65,3.65,3.6246,3.6099,3.6166,3.6433,3.6687,3.6941,3.6941,3.6941,3.6941,3.6941,3.6941,3.6941,3.6941,3.6941,3.6941,3.6941,3.6941,3.6941,3.6941,3.6941,2.3241,2.4032,2.4747,2.3856,2.2769,2.1322,1.937,1.7714,1.6186,1.5127,1.4592,1.4387,1.4659,1.4935,1.5463,1.6256,1.6898,1.7805,1.8996,2.0728,2.2117,2.2965,2.5079,2.712,2.86,3.0646,3.2424,3.3467,3.4515,3.5551,3.6059,3.6353,3.6647,3.6941,3.6941,3.6861,3.6714,3.6861,3.6941,3.6941,3.6794,3.6727,3.6727,3.6433,3.638,3.65,3.6206,3.6072,3.6059,3.5925,3.5698,3.5444,3.5578,3.5458,3.5204,3.5351,3.5391,3.5391,3.5391,3.5485,3.5618,3.5778,3.5925,3.6059,3.6246,3.6286,3.6299,3.5983,3.579,3.5352,3.5133,3.4681,3.4693,3.4926,3.482,3.4713,3.4948,3.4827,3.4617,3.412,3.4385,3.4477,3.5002,3.5292,3.5508,3.6233,3.6393,3.654,3.6687,3.658,3.65,3.65,3.6246,3.6072,3.6072,3.634,3.6513,3.654,3.6647,3.6727,3.696,3.6874,3.6941,3.6941,3.6941,3.6941,3.6941,3.6941,3.6941,3.6941,3.6941,3.6941,2.2153,2.2992,2.3634,2.3184,2.2419,2.0908,1.8714,1.714,1.6049,1.4653,1.4319,1.4517,1.5063,1.5463,1.6081,1.725,1.828,1.9195,2.0299,2.1854,2.3027,2.3667,2.6398,2.8721,3.0136,3.194,3.3626,3.4267,3.5219,3.5738,3.5992,3.6286,3.658,3.6861,3.6861,3.6861,3.6861,3.6901,3.6901,3.6861,3.662,3.6473,3.6433,3.6139,3.6139,3.6353,3.6059,3.5939,3.5925,3.5712,3.5458,3.5231,3.5511,3.5458,3.5231,3.5471,3.5565,3.5565,3.5565,3.5752,3.6006,3.6006,3.6206,3.6393,3.6153,3.6246,3.65,3.6727,3.6754,3.6754,3.6794,3.6754,3.6754,3.6861,3.6861,3.6666,3.6263,3.6249,3.6118,3.583,3.5532,3.5633,3.6046,3.6006,3.6099,3.6393,3.6433,3.654,3.6754,3.658,3.6433,3.638,3.6153,3.5992,3.5939,3.6166,3.6206,3.5952,3.6286,3.6513,3.6991,3.6807,3.6941,3.6941,3.6941,3.6941,3.6941,3.6941,3.6941,3.6941,3.6941,3.6941,2.1681,2.1894,2.1949,2.2322,2.1846,2.0726,1.8515,1.714,1.6049,1.4653,1.4757,1.5054,1.5362,1.6159,1.7125,1.8295,2.0114,2.1534,2.2134,2.349,2.4513,2.4942,2.792,3.0055,3.0713,3.2747,3.4202,3.4634,3.5324,3.5645,3.5698,3.5979,3.6273,3.658,3.658,3.658,3.658,3.6834,3.6834,3.658,3.654,3.638,3.6126,3.5832,3.5725,3.5752,3.5458,3.5338,3.5351,3.5551,3.5458,3.5231,3.5511,3.5458,3.5204,3.5244,3.5257,3.5257,3.5257,3.5458,3.5698,3.5698,3.5899,3.6126,3.6086,3.6099,3.6153,3.6193,3.6019,3.5885,3.6139,3.6019,3.5952,3.646,3.658,3.6647,3.6666,3.652,3.6268,3.5976,3.5723,3.5537,3.5698,3.5698,3.5805,3.6099,3.6139,3.6153,3.6206,3.6166,3.6046,3.5792,3.5725,3.5591,3.5351,3.5378,3.5378,3.5338,3.5829,3.6268,3.6991,3.6807,3.6941,3.6941,3.6941,3.6941,3.6941,3.6941,3.6941,3.6941,3.6941,3.6941,2.1184,2.1037,2.1055,2.1428,2.1353,2.0735,1.9285,1.8241,1.7254,1.5891,1.5927,1.6184,1.6442,1.7165,1.8145,1.9825,2.1438,2.2762,2.3344,2.4633,2.6052,2.712,2.936,3.1094,3.2251,3.3613,3.4754,3.499,3.5244,3.5458,3.5618,3.5765,3.6046,3.65,3.65,3.658,3.6727,3.6727,3.6647,3.65,3.6353,3.6206,3.6059,3.5605,3.5485,3.5618,3.5485,3.5431,3.5444,3.5578,3.5458,3.5204,3.5351,3.5311,3.5191,3.5191,3.5191,3.5191,3.5191,3.5284,3.5391,3.5391,3.5591,3.5805,3.5645,3.5712,3.5805,3.5645,3.5845,3.6139,3.6273,3.6206,3.6206,3.6647,3.662,3.654,3.6687,3.6607,3.6366,3.5925,3.5725,3.5578,3.5418,3.5391,3.5498,3.5792,3.5832,3.5899,3.6046,3.6072,3.6019,3.5885,3.5872,3.5752,3.5458,3.5578,3.5605,3.5458,3.5564,3.5856,3.6504,3.6148,3.6228,3.6951,3.6964,3.6964,3.6964,3.6964,3.6964,3.6964,3.6964,3.6964,2.0856,2.0538,2.0587,2.049,2.076,2.0648,1.963,1.8945,1.8279,1.72,1.7238,1.7466,1.7813,1.8536,1.9718,2.1475,2.308,2.4366,2.5204,2.6439,2.7835,2.9337,3.0834,3.24,3.3672,3.436,3.4963,3.5177,3.5191,3.5297,3.5511,3.5525,3.5765,3.6286,3.6299,3.6393,3.6647,3.6473,3.6393,3.6393,3.6179,3.6006,3.5859,3.5471,3.5378,3.5525,3.5525,3.5525,3.5525,3.5525,3.5404,3.5191,3.5191,3.5191,3.5191,3.5191,3.5191,3.5191,3.5191,3.5244,3.5284,3.5217,3.5391,3.5578,3.5284,3.5351,3.5485,3.5257,3.5725,3.6286,3.6219,3.6246,3.6353,3.658,3.65,3.6393,3.6393,3.6353,3.6166,3.5712,3.5578,3.5458,3.5231,3.5191,3.5271,3.5498,3.5525,3.5605,3.5845,3.5872,3.5872,3.5872,3.5872,3.5778,3.5551,3.5738,3.5778,3.5778,3.5351,3.5484,3.5952,3.5547,3.5816,3.6545,3.6572,3.6572,3.6559,3.6559,3.6559,3.6559,3.6559,3.6559,2.0769,2.0604,2.0492,2.0036,2.0148,2.0134,1.9423,1.8938,1.8488,1.752,1.8153,1.9118,1.8956,2.069,2.256,2.3634,2.552,2.7152,2.7812,2.9574,3.0869,3.1533,3.2598,3.3672,3.4121,3.4755,3.5177,3.5191,3.5191,3.5204,3.5231,3.5231,3.5364,3.5685,3.5685,3.5698,3.5725,3.5979,3.6099,3.6099,3.6086,3.5792,3.5271,3.5498,3.5458,3.5231,3.5231,3.5231,3.5231,3.5231,3.5217,3.5191,3.5191,3.5191,3.5191,3.5191,3.5191,3.5191,3.5191,3.5378,3.5551,3.5284,3.5391,3.5578,3.5284,3.5204,3.5217,3.5204,3.5431,3.5631,3.5364,3.5485,3.5698,3.5725,3.5925,3.6099,3.6099,3.5885,3.5685,3.5631,3.5418,3.5217,3.5204,3.5191,3.5204,3.5231,3.5231,3.5231,3.5257,3.5257,3.5257,3.5257,3.5257,3.5257,3.5231,3.5244,3.5257,3.5231,3.5245,3.5164,3.5191,3.567,3.5587,3.5331,3.5829,3.5829,3.5331,3.5331,3.5331,3.5331,3.5331,3.5331,2.2888,2.2094,2.1274,2.1163,2.063,2.018,1.9936,1.984,1.9776,1.898,1.9662,2.0468,2.0696,2.1998,2.3327,2.4529,2.6611,2.8446,2.9833,3.1118,3.241,3.3273,3.3697,3.4121,3.4768,3.498,3.5191,3.5191,3.5191,3.5191,3.5191,3.5191,3.5324,3.5618,3.5631,3.5712,3.5899,3.5832,3.5792,3.5792,3.5792,3.5778,3.5738,3.5471,3.5297,3.5191,3.5191,3.5191,3.5191,3.5191,3.5191,3.5191,3.5191,3.5191,3.5191,3.5191,3.5191,3.5191,3.5191,3.5271,3.5338,3.5231,3.5271,3.5338,3.5231,3.5191,3.5191,3.5191,3.5271,3.5378,3.5444,3.5551,3.5672,3.5859,3.5845,3.5792,3.5792,3.5712,3.5578,3.5391,3.5271,3.5191,3.5191,3.5191,3.5191,3.5191,3.5191,3.5191,3.5191,3.5191,3.5191,3.5191,3.5191,3.5191,3.5191,3.5191,3.5191,3.5191,3.5284,3.5126,3.5126,3.5458,3.5298,3.5272,3.5511,3.5511,3.5272,3.5272,3.5272,3.5272,3.5272,3.5272,2.4488,2.3589,2.2826,2.2241,2.1404,2.0798,2.0742,2.0755,2.0866,2.0488,2.0845,2.1769,2.2599,2.3499,2.4615,2.6013,2.807,3.0048,3.1557,3.2623,3.3697,3.4557,3.4557,3.4768,3.5191,3.5191,3.5231,3.5324,3.5244,3.5231,3.5324,3.5244,3.5284,3.5485,3.5498,3.5591,3.5792,3.5591,3.5538,3.5631,3.5538,3.5605,3.5778,3.5471,3.5284,3.5191,3.5191,3.5191,3.5191,3.5191,3.5191,3.5191,3.5191,3.5191,3.5191,3.5191,3.5191,3.5191,3.5191,3.5191,3.5191,3.5191,3.5191,3.5191,3.5191,3.5191,3.5191,3.5191,3.5191,3.5244,3.5444,3.5498,3.5538,3.5752,3.5645,3.5498,3.5498,3.5498,3.5431,3.5231,3.5191,3.5191,3.5191,3.5191,3.5191,3.5191,3.5191,3.5191,3.5191,3.5191,3.5191,3.5191,3.5191,3.5191,3.5191,3.5191,3.5191,3.5191,3.5191,3.5191,3.5191,3.5191,3.5191,3.5191,3.5191,3.5191,3.5191,3.5191,3.5191,3.5191,3.5191,3.5191,2.5372,2.5003,2.4638,2.3264,2.2625,2.2369,2.1989,2.1555,2.1421,2.1763,2.1828,2.2517,2.4606,2.5361,2.64,2.8545,3.0539,3.2209,3.326,3.4544,3.5191,3.5191,3.5191,3.5191,3.5191,3.5204,3.5324,3.5605,3.5364,3.5324,3.5605,3.5351,3.5191,3.5191,3.5191,3.5191,3.5191,3.5191,3.5338,3.5618,3.5338,3.5191,3.5204,3.5498,3.5471,3.5191,3.5191,3.5191,3.5191,3.5191,3.5191,3.5191,3.5191,3.5191,3.5191,3.5191,3.5191,3.5191,3.5191,3.5191,3.5191,3.5191,3.5191,3.5191,3.5191,3.5191,3.5191,3.5191,3.5191,3.5191,3.5191,3.5191,3.5191,3.5191,3.5191,3.5191,3.5191,3.5191,3.5191,3.5191,3.5191,3.5191,3.5191,3.5191,3.5191,3.5191,3.5191,3.5191,3.5191,3.5191,3.5191,3.5191,3.5191,3.5191,3.5191,3.5191,3.5191,3.5191,3.5191,3.5191,3.5191,3.5191,3.5191,3.5191,3.5191,3.5191,3.5191,3.5191,3.5191,3.5191,3.5191,3.5191,2.7471,2.6938,2.625,2.4917,2.4452,2.4194,2.387,2.2779,2.1994,2.2422,2.2352,2.2884,2.4438,2.5922,2.7398,2.9236,3.1165,3.2835,3.3909,3.4768,3.5191,3.5191,3.5191,3.5191,3.5191,3.5378,3.5458,3.5338,3.5431,3.5444,3.5324,3.5244,3.5191,3.5191,3.5191,3.5191,3.5191,3.5191,3.5244,3.5324,3.5231,3.5311,3.5498,3.5378,3.5284,3.5191,3.5191,3.5191,3.5191,3.5191,3.5191,3.5191,3.5191,3.5191,3.5191,3.5191,3.5191,3.5191,3.5191,3.5191,3.5191,3.5191,3.5191,3.5191,3.5191,3.5191,3.5191,3.5191,3.5191,3.5191,3.5191,3.5191,3.5191,3.5191,3.5191,3.5191,3.5191,3.5191,3.5191,3.5191,3.5191,3.5191,3.5191,3.5191,3.5191,3.5191,3.5191,3.5191,3.5191,3.5191,3.5191,3.5191,3.5191,3.5191,3.5191,3.5191,3.5191,3.5191,3.5191,3.5191,3.5191,3.5191,3.5191,3.5191,3.5191,3.5191,3.5191,3.5191,3.5191,3.5191,3.5191,3.5191,2.9231,2.8686,2.7973,2.6849,2.6275,2.6068,2.6021,2.4586,2.339,2.3971,2.3673,2.3833,2.5635,2.7256,2.8923,3.0951,3.2447,3.3736,3.4701,3.5059,3.5191,3.5191,3.5191,3.5191,3.5191,3.5351,3.5431,3.5378,3.5418,3.5431,3.5378,3.5257,3.5191,3.5191,3.5191,3.5191,3.5191,3.5191,3.5191,3.5191,3.5191,3.5284,3.5458,3.5271,3.5191,3.5191,3.5191,3.5191,3.5191,3.5191,3.5191,3.5191,3.5191,3.5191,3.5191,3.5191,3.5191,3.5191,3.5191,3.5191,3.5191,3.5191,3.5191,3.5191,3.5191,3.5191,3.5191,3.5191,3.5191,3.5191,3.5191,3.5191,3.5191,3.5191,3.5191,3.5191,3.5191,3.5191,3.5191,3.5191,3.5191,3.5191,3.5191,3.5191,3.5191,3.5191,3.5191,3.5191,3.5191,3.5191,3.5191,3.5191,3.5191,3.5191,3.5191,3.5191,3.5191,3.5191,3.5191,3.5191,3.5191,3.5191,3.5191,3.5191,3.5191,3.5191,3.5191,3.5191,3.5191,3.5191,3.5191,3.5191,3.0421,3.0193,2.9629,2.8915,2.8291,2.7969,2.8186,2.6889,2.5525,2.5949,2.5389,2.5615,2.7757,2.9007,3.0656,3.3124,3.412,3.4714,3.5591,3.5404,3.5231,3.5204,3.5191,3.5191,3.5191,3.5217,3.5338,3.5578,3.5364,3.5338,3.5578,3.5338,3.5191,3.5191,3.5191,3.5191,3.5191,3.5191,3.5191,3.5191,3.5191,3.5191,3.5191,3.5191,3.5191,3.5191,3.5191,3.5191,3.5191,3.5191,3.5191,3.5191,3.5191,3.5191,3.5191,3.5191,3.5191,3.5191,3.5191,3.5191,3.5191,3.5191,3.5191,3.5191,3.5191,3.5191,3.5191,3.5191,3.5191,3.5191,3.5191,3.5191,3.5191,3.5191,3.5191,3.5191,3.5191,3.5191,3.5191,3.5191,3.5191,3.5191,3.5191,3.5191,3.5191,3.5191,3.5191,3.5191,3.5191,3.5191,3.5191,3.5191,3.5191,3.5191,3.5191,3.5191,3.5191,3.5191,3.5191,3.5191,3.5191,3.5191,3.5191,3.5191,3.5191,3.5191,3.5191,3.5191,3.5191,3.5191,3.5191,3.5191,3.0127,3.0527,3.0708,3.0047,3.0013,3.0326,3.0822,3.0228,2.9134,2.7235,2.7022,2.7705,2.8869,3.0711,3.2362,3.3864,3.5102,3.5604,3.5658,3.5578,3.5458,3.5231,3.5191,3.5191,3.5191,3.5404,3.5471,3.5297,3.5444,3.5458,3.5297,3.5231,3.5191,3.5191,3.5191,3.5191,3.5191,3.5191,3.5191,3.5191,3.5191,3.5191,3.5191,3.5191,3.5191,3.5191,3.5191,3.5191,3.5191,3.5191,3.5191,3.5191,3.5191,3.5191,3.5191,3.5191,3.5191,3.5191,3.5191,3.5191,3.5191,3.5191,3.5191,3.5191,3.5191,3.5191,3.5191,3.5191,3.5191,3.5191,3.5191,3.5191,3.5191,3.5191,3.5191,3.5191,3.5191,3.5191,3.5191,3.5191,3.5191,3.5191,3.5191,3.5191,3.5191,3.5191,3.5191,3.5191,3.5191,3.5191,3.5191,3.5191,3.5191,3.5191,3.5191,3.5191,3.5191,3.5191,3.5191,3.5191,3.5191,3.5191,3.5191,3.5191,3.5191,3.5191,3.5191,3.5191,3.5191,3.5191,3.5191,3.5191,3.07,3.1074,3.1371,3.1401,3.1553,3.1771,3.2422,3.2422,3.1771,3.0679,3.0026,2.9806,3.0791,3.2471,3.3746,3.512,3.5489,3.5859,3.5845,3.5605,3.5364,3.5217,3.5191,3.5191,3.5191,3.5338,3.5364,3.5204,3.5338,3.5351,3.5204,3.5191,3.5191,3.5191,3.5191,3.5191,3.5191,3.5191,3.5191,3.5191,3.5191,3.5191,3.5191,3.5191,3.5191,3.5191,3.5191,3.5191,3.5191,3.5191,3.5191,3.5191,3.5191,3.5191,3.5191,3.5191,3.5191,3.5191,3.5191,3.5191,3.5191,3.5191,3.5191,3.5191,3.5191,3.5191,3.5191,3.5191,3.5191,3.5191,3.5191,3.5191,3.5191,3.5191,3.5191,3.5191,3.5191,3.5191,3.5191,3.5191,3.5191,3.5191,3.5191,3.5191,3.5191,3.5191,3.5191,3.5191,3.5191,3.5191,3.5191,3.5191,3.5191,3.5191,3.5191,3.5191,3.5191,3.5191,3.5191,3.5191,3.5191,3.5191,3.5191,3.5191,3.5191,3.5191,3.5191,3.5191,3.5191,3.5191,3.5191,3.5191,3.1047,3.1746,3.2213,3.286,3.3086,3.326,3.371,3.371,3.3787,3.4068,3.2853,3.2085,3.3004,3.4015,3.5055,3.5988,3.6069,3.5845,3.6046,3.5605,3.5257,3.5204,3.5191,3.5191,3.5191,3.5191,3.5191,3.5191,3.5191,3.5191,3.5191,3.5191,3.5191,3.5191,3.5191,3.5191,3.5191,3.5191,3.5191,3.5191,3.5191,3.5191,3.5191,3.5191,3.5191,3.5191,3.5191,3.5191,3.5191,3.5191,3.5191,3.5191,3.5191,3.5191,3.5191,3.5191,3.5191,3.5191,3.5191,3.5191,3.5191,3.5191,3.5191,3.5191,3.5191,3.5191,3.5191,3.5191,3.5191,3.5191,3.5191,3.5191,3.5191,3.5191,3.5191,3.5191,3.5191,3.5191,3.5191,3.5191,3.5191,3.5191,3.5191,3.5191,3.5191,3.5191,3.5191,3.5191,3.5191,3.5191,3.5191,3.5191,3.5191,3.5191,3.5191,3.5191,3.5191,3.5191,3.5191,3.5191,3.5191,3.5191,3.5191,3.5191,3.5191,3.5191,3.5191,3.5191,3.5191,3.5191,3.5191,3.5191,3.0369,3.1985,3.3382,3.4276,3.4741,3.4768,3.498,3.498,3.5073,3.5351,3.4527,3.4132,3.5068,3.5559,3.6184,3.6693,3.6647,3.6313,3.6099,3.5778,3.5471,3.5231,3.5191,3.5191,3.5191,3.5191,3.5191,3.5191,3.5191,3.5191,3.5191,3.5191,3.5191,3.5191,3.5191,3.5191,3.5191,3.5191,3.5191,3.5191,3.5191,3.5191,3.5191,3.5191,3.5191,3.5191,3.5191,3.5191,3.5191,3.5191,3.5191,3.5191,3.5191,3.5191,3.5191,3.5191,3.5191,3.5191,3.5191,3.5191,3.5191,3.5191,3.5191,3.5191,3.5191,3.5191,3.5191,3.5191,3.5191,3.5191,3.5191,3.5191,3.5191,3.5191,3.5191,3.5191,3.5191,3.5191,3.5191,3.5191,3.5191,3.5191,3.5191,3.5191,3.5191,3.5191,3.5191,3.5191,3.5191,3.5191,3.5191,3.5191,3.5191,3.5191,3.5191,3.5191,3.5191,3.5191,3.5191,3.5191,3.5191,3.5191,3.5191,3.5191,3.5191,3.5191,3.5191,3.5191,3.5191,3.5191,3.5191,3.5191,3.0795,3.2485,3.3884,3.4742,3.5073,3.5191,3.5191,3.5324,3.5525,3.5819,3.5666,3.5685,3.6049,3.6313,3.6719,3.6927,3.654,3.6219,3.6086,3.5672,3.5404,3.5431,3.5297,3.5257,3.5418,3.5284,3.5191,3.5191,3.5191,3.5191,3.5191,3.5191,3.5191,3.5191,3.5191,3.5191,3.5191,3.5191,3.5191,3.5191,3.5191,3.5284,3.5431,3.5431,3.5351,3.5191,3.5191,3.5191,3.5204,3.5378,3.5431,3.5458,3.5618,3.5685,3.5672,3.5498,3.5431,3.5418,3.5257,3.5191,3.5191,3.5191,3.5191,3.5191,3.5191,3.5191,3.5191,3.5191,3.5191,3.5191,3.5191,3.5191,3.5191,3.5191,3.5191,3.5191,3.5191,3.5191,3.5191,3.5191,3.5191,3.5191,3.5191,3.5191,3.5191,3.5191,3.5191,3.5191,3.5191,3.5191,3.5191,3.5191,3.5191,3.5191,3.5191,3.5191,3.5191,3.5191,3.5191,3.5191,3.5191,3.5191,3.5191,3.5191,3.5191,3.5191,3.5191,3.5191,3.5191,3.5191,3.5191,3.5191,3.1102,3.2585,3.3641,3.4523,3.4857,3.499,3.507,3.5311,3.5618,3.5992,3.6246,3.6433,3.658,3.6794,3.6941,3.6941,3.6433,3.6072,3.6072,3.5631,3.5391,3.5605,3.5431,3.5391,3.5605,3.5364,3.5191,3.5191,3.5191,3.5191,3.5191,3.5191,3.5191,3.5191,3.5191,3.5191,3.5191,3.5191,3.5191,3.5191,3.5271,3.5418,3.5631,3.5712,3.5618,3.5418,3.5418,3.5418,3.5431,3.5658,3.5738,3.5765,3.5992,3.6072,3.6046,3.5819,3.5738,3.5698,3.5404,3.5311,3.5297,3.5217,3.5191,3.5191,3.5191,3.5191,3.5191,3.5191,3.5191,3.5217,3.5284,3.5311,3.5324,3.5404,3.5418,3.5378,3.5231,3.5191,3.5191,3.5191,3.5191,3.5191,3.5191,3.5191,3.5191,3.5191,3.5191,3.5191,3.5191,3.5191,3.5191,3.5191,3.5191,3.5191,3.5191,3.5191,3.5191,3.5191,3.5191,3.5191,3.5191,3.5191,3.5191,3.5191,3.5191,3.5191,3.5191,3.5191,3.5191,3.5191,3.5191,3.5191,3.0595,3.1517,3.2398,3.328,3.3935,3.4442,3.4723,3.5004,3.5378,3.5952,3.6086,3.6259,3.6834,3.6941,3.6941,3.6941,3.6433,3.6072,3.6072,3.5805,3.5605,3.5631,3.5618,3.5605,3.5631,3.5364,3.5191,3.5191,3.5191,3.5191,3.5191,3.5191,3.5191,3.5191,3.5191,3.5191,3.5191,3.5191,3.5191,3.5204,3.5471,3.5618,3.5645,3.5925,3.6046,3.6032,3.6032,3.6032,3.6032,3.6046,3.6046,3.6046,3.6059,3.6072,3.6072,3.6059,3.6046,3.6006,3.5712,3.5605,3.5565,3.5284,3.5191,3.5191,3.5191,3.5191,3.5191,3.5191,3.5191,3.5257,3.5538,3.5605,3.5672,3.5965,3.6032,3.5872,3.5311,3.5191,3.5191,3.5191,3.5191,3.5191,3.5191,3.5191,3.5191,3.5191,3.5191,3.5191,3.5191,3.5191,3.5191,3.5191,3.5191,3.5191,3.5191,3.5191,3.5191,3.5191,3.5191,3.5191,3.5191,3.5191,3.5191,3.5191,3.5191,3.5191,3.5191,3.5191,3.5191,3.5191,3.5191,3.5191,3.0221,3.0875,3.157,3.2826,3.3587,3.4122,3.4416,3.5137,3.5819,3.6032,3.6366,3.6687,3.6901,3.6941,3.6941,3.6941,3.6607,3.6353,3.6353,3.6099,3.5979,3.6166,3.5859,3.5698,3.5899,3.5485,3.5191,3.5191,3.5191,3.5191,3.5191,3.5191,3.5191,3.5191,3.5191,3.5191,3.5191,3.5378,3.5471,3.5471,3.5778,3.6006,3.6193,3.6299,3.6473,3.662,3.662,3.6433,3.6086,3.6273,3.6353,3.6366,3.654,3.662,3.6607,3.6433,3.6353,3.6286,3.5792,3.5631,3.5578,3.5284,3.5324,3.5471,3.5471,3.5605,3.5765,3.5765,3.5765,3.5778,3.5885,3.5912,3.5899,3.5805,3.5792,3.5685,3.5284,3.5191,3.5191,3.5191,3.5191,3.5191,3.5191,3.5191,3.5191,3.5191,3.5191,3.5191,3.5191,3.5191,3.5191,3.5191,3.5191,3.5191,3.5191,3.5191,3.5191,3.5191,3.5191,3.5191,3.5191,3.5139,3.5152,3.5204,3.5152,3.5152,3.5191,3.5191,3.5191,3.5191,3.5191,3.5284,2.97,3.0274,3.0929,3.2104,3.2839,3.3414,3.3908,3.4776,3.5538,3.5738,3.6246,3.6687,3.6754,3.6861,3.6941,3.6941,3.6687,3.65,3.65,3.634,3.6286,3.6473,3.6166,3.6006,3.6193,3.5778,3.5498,3.5498,3.5404,3.5338,3.5338,3.5338,3.5391,3.5485,3.5391,3.5338,3.5338,3.5538,3.5631,3.5631,3.6032,3.6313,3.65,3.6607,3.6754,3.6941,3.6941,3.6727,3.638,3.658,3.6647,3.6687,3.6861,3.6941,3.6901,3.6727,3.6647,3.658,3.5979,3.5845,3.5859,3.5471,3.5538,3.5778,3.5778,3.5912,3.6072,3.6072,3.6072,3.6099,3.6193,3.6286,3.6313,3.6112,3.5925,3.5725,3.5538,3.5338,3.5191,3.5191,3.5191,3.5191,3.5191,3.5191,3.5191,3.5191,3.5191,3.5191,3.5191,3.5191,3.5191,3.5191,3.5191,3.5191,3.5191,3.5191,3.5191,3.5191,3.5191,3.5231,3.5112,3.5285,3.5351,3.5737,3.5431,3.5204,3.5245,3.5152,3.5152,3.5245,3.5152,3.5391,0.0,0.0,0.0,3.1049,3.165,3.2318,3.3173,3.3868,3.4482,3.507,3.5658,3.6166,3.6473,3.6754,3.6941,3.6941,3.6687,3.6513,3.6513,3.6513,3.6513,3.6513,3.65,3.65,3.65,3.6246,3.6072,3.6072,3.5792,3.5631,3.5631,3.5631,3.5765,3.6059,3.5792,3.5645,3.5645,3.5645,3.5658,3.5658,3.6246,3.6513,3.654,3.6794,3.6941,3.6941,3.6941,3.6941,3.6941,3.6941,3.6941,3.6941,3.6941,3.6941,3.6941,3.6941,3.6941,3.6861,3.6286,3.6273,3.6393,3.5832,3.5845,3.6086,3.6086,3.6086,3.6099,3.6099,3.6099,3.6166,3.6433,3.6727,3.6941,3.6901,3.6473,3.6059,3.6046,3.5591,3.5191,3.5191,3.5191,3.5191,3.5191,3.5191,3.5191,3.5191,3.5191,3.5191,3.5191,3.5191,3.5191,3.5191,3.5191,3.5191,3.5191,3.5191,3.5191,3.5191,3.5204,3.5112,3.5151,3.5178,3.5792,3.6815,3.5829,3.5344,3.5331,3.5296,3.5296,3.5305,3.527,3.5724,2.9245,0.0,0.0,0.0,0.0,0.0,3.2358,3.3427,3.4482,3.507,3.5658,3.6219,3.6727,3.6874,3.6941,3.6941,3.6861,3.6834,3.6834,3.6834,3.6834,3.6834,3.6647,3.65,3.65,3.6246,3.6072,3.6072,3.5792,3.5631,3.5631,3.5631,3.5765,3.6059,3.5992,3.5952,3.5952,3.6153,3.6259,3.6273,3.6647,3.6834,3.6834,3.6901,3.6941,3.6941,3.6941,3.6941,3.6941,3.6941,3.6941,3.6941,3.6941,3.6941,3.6941,3.6941,3.6941,3.6901,3.6513,3.6433,3.6433,3.6072,3.6153,3.6393,3.6393,3.654,3.6687,3.6687,3.6687,3.6727,3.6794,3.6727,3.658,3.6366,3.6019,3.5698,3.5485,3.5311,3.5191,3.5191,3.5191,3.5191,3.5191,3.5191,3.5191,3.5191,3.5191,3.5191,3.5191,3.5191,3.5191,3.5191,3.5191,3.5191,3.5191,3.5191,3.5191,3.5191,3.5165,3.5298,3.5151,3.6032,3.668,3.6815,3.653,3.6393,3.6393,3.6342,3.6369,3.6475,3.5658,3.5458,2.9392,2.9579,2.978,3.0247,0.0,0.0,3.1957,3.2959,3.4002,3.4843,3.5578,3.6179,3.6513,3.6687,3.6727,3.6607,3.6687,3.6794,3.6941,3.6941,3.6941,3.6941,3.6794,3.6687,3.6687,3.654,3.6433,3.6433,3.6046,3.5819,3.5819,3.5819,3.6006,3.6433,3.6313,3.6259,3.6259,3.6433,3.65,3.65,3.6794,3.6941,3.6941,3.6941,3.6941,3.6941,3.6941,3.6941,3.6941,3.6941,3.6941,3.6941,3.6941,3.6941,3.6941,3.6941,3.6941,3.6901,3.6607,3.658,3.6647,3.6353,3.6433,3.6687,3.6687,3.6794,3.6941,3.6941,3.6861,3.6754,3.6754,3.654,3.6286,3.6112,3.5845,3.5578,3.5418,3.5378,3.5338,3.5217,3.5191,3.5191,3.5191,3.5191,3.5191,3.5191,3.5191,3.5191,3.5191,3.5191,3.5191,3.5191,3.5191,3.5191,3.5191,3.5191,3.5191,3.5191,3.5232,3.5444,3.5819,3.6517,3.6924,3.6979,3.6799,3.6866,3.6991,3.6938,3.6652,3.6126,3.5405,3.5232,2.9579,2.974,2.998,3.0247,3.0354,0.0,3.1717,3.2438,3.3213,3.4376,3.5257,3.5859,3.5952,3.6193,3.6286,3.6059,3.6273,3.654,3.6861,3.6901,3.6941,3.6941,3.6941,3.6941,3.6941,3.6941,3.6941,3.6941,3.6393,3.6059,3.6019,3.6059,3.6326,3.6861,3.6687,3.654,3.654,3.654,3.654,3.654,3.6834,3.6941,3.6941,3.6941,3.6941,3.6941,3.6941,3.6941,3.6941,3.6941,3.6941,3.6941,3.6941,3.6941,3.6941,3.6941,3.6941,3.6901,3.6647,3.6727,3.6901,3.6647,3.6727,3.6941,3.6941,3.6941,3.6941,3.6901,3.6687,3.6473,3.65,3.6286,3.6086,3.6112,3.5899,3.5672,3.5672,3.5672,3.5605,3.5351,3.5297,3.5284,3.5244,3.5244,3.5231,3.5204,3.5191,3.5191,3.5191,3.5191,3.5191,3.5191,3.5191,3.5191,3.5191,3.5191,3.5204,3.5244,3.5272,3.5805,3.6843,3.6897,3.6799,3.6991,3.7001,3.7001,3.6991,3.6707,3.6181,3.5191,3.5164,3.5258,3.0194,3.006,2.9927,2.998,3.0354,0.0,3.0996,3.169,3.2545,3.348,3.4015,3.4523,3.5244,3.5418,3.5511,3.5685,3.5965,3.6259,3.654,3.6794,3.6941,3.6941,3.6941,3.6941,3.6941,3.6941,3.6941,3.6941,3.6393,3.5965,3.5725,3.5939,3.6233,3.658,3.6754,3.6861,3.6861,3.6861,3.6861,3.6861,3.6901,3.6941,3.6941,3.6941,3.6941,3.6941,3.6941,3.6941,3.6941,3.6941,3.6941,3.6941,3.6941,3.6941,3.6941,3.6941,3.6941,3.6941,3.6861,3.6901,3.6941,3.6861,3.6901,3.6941,3.6941,3.6941,3.6901,3.6647,3.638,3.6206,3.6433,3.6286,3.6126,3.6366,3.6193,3.5992,3.5992,3.5992,3.5965,3.5912,3.5899,3.5832,3.5591,3.5551,3.5471,3.5231,3.5191,3.5191,3.5191,3.5191,3.5191,3.5191,3.5191,3.5191,3.5191,3.5191,3.5284,3.5285,3.5108,3.564,3.6883,3.6934,3.7001,3.6991,3.684,3.684,3.6991,3.5962,3.5318,3.5239,3.5257,3.5244,3.0662,3.0461,3.0354,3.0354,0.0,0.0,0.0,3.1463,3.2131,3.3013,3.3561,3.4015,3.4456,3.4536,3.4589,3.4736,3.5137,3.5525,3.5805,3.6473,3.6941,3.6941,3.6941,3.6941,3.6941,3.6941,3.6834,3.654,3.6233,3.5939,3.5645,3.5912,3.6206,3.65,3.6794,3.6941,3.6941,3.6941,3.6941,3.6941,3.6941,3.6941,3.6941,3.6941,3.6941,3.6941,3.6941,3.6941,3.6941,3.6941,3.6941,3.6941,3.6941,3.6941,3.6941,3.6941,3.6941,3.6941,3.6941,3.6941,3.6941,3.6941,3.6941,3.6941,3.6941,3.6834,3.6727,3.6727,3.6393,3.6139,3.6433,3.6286,3.6112,3.6259,3.6179,3.6072,3.6072,3.6193,3.6286,3.6286,3.6393,3.6313,3.5725,3.5631,3.5538,3.5244,3.5191,3.5191,3.5191,3.5191,3.5191,3.5191,3.5099,3.5179,3.5179,3.5298,3.5204,3.5121,3.564,3.6353,3.6991,3.6807,3.6626,3.5987,3.658,3.6924,3.6802,3.6383,3.575,3.5134,3.5217,3.5151,3.1196,3.0915,3.0808,0.0,0.0,3.0568,0.0,0.0,0.0,3.2559,3.312,3.3494,3.3614,3.3627,3.3654,3.3708,3.4215,3.4696,3.499,3.5939,3.6647,3.6754,3.6861,3.6901,3.6861,3.6794,3.658,3.6112,3.6019,3.5885,3.5645,3.5965,3.6259,3.65,3.6794,3.6941,3.6941,3.6941,3.6941,3.6941,3.6941,3.6941,3.6941,3.6941,3.6941,3.6941,3.6941,3.6941,3.6941,3.6941,3.6941,3.6941,3.6941,3.6941,3.6941,3.6941,3.6941,3.6941,3.6941,3.6941,3.6941,3.6941,3.6941,3.6941,3.6941,3.6727,3.654,3.6794,3.6473,3.6139,3.6433,3.6326,3.6166,3.6233,3.6233,3.6233,3.6233,3.6433,3.658,3.658,3.6794,3.6687,3.5925,3.5792,3.5698,3.5404,3.5364,3.5364,3.5364,3.5364,3.5364,3.5364,3.5338,3.5244,3.5458,3.5213,3.5357,3.5423,3.638,3.6799,3.684,3.7001,3.6379,3.5455,3.6374,3.6842,3.6897,3.6599,3.6154,3.5151,3.5151,3.5285,3.2038,3.1383,3.0849,3.1116,3.0955,3.0755,3.0822,0.0,3.1076,3.169,0.0,3.2078,3.2599,0.0,0.0,3.304,3.3587,3.4082,3.4376,3.4977,3.5591,3.6112,3.662,3.6834,3.658,3.6326,3.6139,3.6072,3.5832,3.5672,3.5631,3.6153,3.6473,3.65,3.6794,3.6941,3.6941,3.6941,3.6941,3.6941,3.6941,3.6941,3.6941,3.6941,3.6941,3.6941,3.6941,3.6941,3.6941,3.6941,3.6941,3.6941,3.6941,3.6941,3.6941,3.6941,3.6941,3.6941,3.6941,3.6941,3.6941,3.6941,3.6941,3.6941,3.6941,3.6727,3.6513,3.654,3.6326,3.6139,3.6433,3.6473,3.6513,3.6794,3.6834,3.6834,3.6834,3.6861,3.6901,3.6901,3.6901,3.6834,3.6473,3.6393,3.6313,3.6019,3.5979,3.5979,3.5979,3.5979,3.5979,3.5979,3.5763,3.5776,3.6019,3.556,3.5679,3.6678,3.6732,3.6866,3.6874,3.6934,3.692,3.6693,3.6883,3.6965,3.6964,3.5949,3.5415,3.5151,3.5151,3.5257,3.2532,3.2211,3.2011,3.1784,3.1517,3.1209,3.0875,0.0,3.0862,0.0,0.0,0.0,0.0,0.0,0.0,0.0,3.2826,3.3213,3.3507,3.4055,3.4723,3.5471,3.5778,3.5952,3.5992,3.6046,3.6072,3.6072,3.5792,3.5698,3.5872,3.6286,3.65,3.65,3.6794,3.6941,3.6941,3.6941,3.6941,3.6941,3.6941,3.6941,3.6941,3.6941,3.6941,3.6941,3.6941,3.6941,3.6941,3.6941,3.6941,3.6941,3.6941,3.6941,3.6941,3.6941,3.6941,3.6941,3.6941,3.6941,3.6941,3.6941,3.6941,3.6941,3.6941,3.6727,3.654,3.6727,3.654,3.6393,3.6687,3.6754,3.6794,3.6901,3.6941,3.6941,3.6941,3.6941,3.6941,3.6941,3.6941,3.6901,3.6794,3.662,3.6393,3.6112,3.6072,3.6072,3.6072,3.6072,3.6072,3.6072,3.5976,3.6069,3.6082,3.6215,3.6374,3.6767,3.7001,3.6807,3.6941,3.6907,3.684,3.6934,3.7006,3.6545,3.5992,3.5389,3.5178,3.5152,3.5298,3.5138,3.3253,3.3066,3.2959,3.2372,3.1877,3.1436,0.0,0.0,0.0,0.0,3.1436,0.0,0.0,0.0,0.0,0.0,0.0,3.2599,3.2719,3.3187,3.3855,3.4736,3.4977,3.5191,3.5485,3.5565,3.5698,3.5939,3.5685,3.5712,3.6166,3.6473,3.662,3.662,3.6834,3.6941,3.6941,3.6941,3.6941,3.6941,3.6941,3.6941,3.6941,3.6941,3.6941,3.6941,3.6941,3.6941,3.6941,3.6941,3.6941,3.6941,3.6941,3.6941,3.6941,3.6941,3.6941,3.6941,3.6941,3.6941,3.6941,3.6941,3.6941,3.6941,3.6941,3.6794,3.6687,3.6874,3.6794,3.6687,3.6874,3.6941,3.6941,3.6941,3.6941,3.6941,3.6941,3.6941,3.6941,3.6941,3.6941,3.6941,3.6941,3.6754,3.654,3.634,3.6313,3.6313,3.6313,3.6313,3.6313,3.6313,3.6268,3.6361,3.6361,3.66,3.6941,3.6941,3.6941,3.6941,3.6941,3.696,3.6813,3.65,3.6463,3.5939,3.5151,3.5298,3.5165,3.5204,3.5179,3.5165,3.4429,3.3841,3.3253,3.2679,3.1877,3.1236,0.0,0.0,3.0955,0.0,0.0,0.0,0.0,0.0,0.0,0.0,0.0,0.0,0.0,3.2398,3.2919,3.3828,3.4429,3.4897,3.5177,3.4696,3.4723,3.5578,3.5378,3.5591,3.6433,3.6754,3.6941,3.6941,3.6941,3.6941,3.6941,3.6941,3.6941,3.6941,3.6941,3.6941,3.6941,3.6941,3.6941,3.6941,3.6941,3.6941,3.6941,3.6941,3.6941,3.6941,3.6941,3.6941,3.6941,3.6941,3.6941,3.6941,3.6941,3.6941,3.6941,3.6941,3.6941,3.6941,3.6941,3.6941,3.6941,3.6941,3.6941,3.6941,3.6941,3.6941,3.6941,3.6941,3.6941,3.6941,3.6941,3.6941,3.6941,3.6941,3.6941,3.6941,3.6941,3.6941,3.6941,3.6901,3.6901,3.6901,3.6901,3.6901,3.6901,3.6901,3.6901,3.6941,3.6941,3.6941,3.6941,3.6941,3.6941,3.6941,3.6941,3.6941,3.6313,3.5274,3.5245,3.52,3.5151,3.5126,3.5204,3.5191,3.5204,3.5204,0.0,0.0,3.4402,3.3627,3.3053,3.2519,3.1931,3.173,0.0,0.0,0.0,0.0,0.0,0.0,0.0,0.0,0.0,0.0,0.0,3.2064,3.2372,3.2666,3.3587,3.4229,3.4322,3.4496,3.4883,3.5578,3.5538,3.5872,3.6754,3.6901,3.6941,3.6941,3.6941,3.6941,3.6941,3.6941,3.6941,3.6941,3.6941,3.6941,3.6941,3.6941,3.6941,3.6941,3.6941,3.6941,3.6941,3.6941,3.6941,3.6941,3.6941,3.6941,3.6941,3.6941,3.6941,3.6941,3.6941,3.6941,3.6941,3.6941,3.6941,3.6941,3.6941,3.6941,3.6941,3.6941,3.6941,3.6941,3.6941,3.6941,3.6941,3.6941,3.6941,3.6941,3.6941,3.6941,3.6941,3.6941,3.6941,3.6941,3.6941,3.6941,3.6941,3.6941,3.6941,3.6941,3.6941,3.6941,3.6941,3.6941,3.6941,3.6941,3.6941,3.6941,3.6941,3.6941,3.6941,3.6941,3.6941,3.7001,3.6633,3.6268,3.5489,3.52,3.5151,3.5285,3.5152,3.5191,3.5191,3.5191,3.5979,3.5738,0.0,3.4576,3.4042,0.0,3.2893,3.2732,3.2826,3.312,0.0,0.0,0.0,0.0,0.0,0.0,0.0,0.0,0.0,3.1837,3.1984,3.2091,3.2973,3.3601,3.3708,3.4055,3.4656,3.5565,3.5538,3.5899,3.6901,3.6941,3.6941,3.6941,3.6941,3.6941,3.6941,3.6941,3.6941,3.6941,3.6941,3.6941,3.6941,3.6941,3.6941,3.6941,3.6941,3.6941,3.6941,3.6941,3.6941,3.6941,3.6941,3.6941,3.6941,3.6941,3.6941,3.6941,3.6941,3.6941,3.6941,3.6941,3.6941,3.6941,3.6941,3.6941,3.6941,3.6941,3.6941,3.6941,3.6941,3.6941,3.6941,3.6941,3.6941,3.6941,3.6941,3.6941,3.6941,3.6941,3.6941,3.6941,3.6941,3.6941,3.6941,3.6941,3.6941,3.6941,3.6941,3.6941,3.6941,3.6941,3.6941,3.6941,3.6941,3.6941,3.6941,3.6941,3.6941,3.6941,3.6941,3.7001,3.6866,3.6991,3.6082,3.5829,3.5792,3.531,3.5204,3.5258,3.5258,3.5205]}]]